[[{"header":{"parameterUnit":"m.s-1","parameterCategory":1,"la1":31.0,"la2":29.5877,"lo1":-88.7671,"lo2":-86.6584,"dy":0.0162,"dx":0.0185,"nx":115,"ny":88,"refTime":"2023-08-31T12:00:00:Z","depth":0,"parameterNumber":2,"parameterNumberName":"U-component_of_WINDS"},"data":[0.0,0.0,0.0,0.0,0.0,0.0,0.0,0.0,0.0,0.0,0.0,0.0,0.0,0.0,0.0,0.0,0.0,0.0,0.0,0.0,0.0,0.0,0.0,0.0,0.0,0.0,0.0,0.0,0.0,0.0,0.0,0.0,0.0,0.0,0.0,0.0,0.0,0.0,0.0,0.0,0.0,0.0,0.0,0.0,0.0,0.0,0.0,0.0,0.0,0.0,0.0,0.0,0.0,0.0,0.0,0.0,0.0,0.0,0.0,0.0,0.0,0.0,0.0,0.0,0.0,0.0,0.0,0.0,0.0,0.0,0.0,0.0,0.0,0.0,0.0,0.0,0.0,0.0,0.0,0.0,0.0,0.0,0.0,0.0,0.0,0.0,0.0,0.0,0.0,0.0,0.0,0.0,0.0,0.0,0.0,0.0,0.0,0.0,0.0,0.0,0.0,0.0,0.0,0.0,0.0,0.0,0.0,0.0,0.0,0.0,0.0,0.0,0.0,0.0,0.0,0.0,0.0,0.0,0.0,0.0,0.0,0.0,0.0,0.0,0.0,0.0,0.0,0.0,0.0,0.0,0.0,0.0,0.0,0.0,0.0,0.0,0.0,0.0,0.0,0.0,0.0,0.0,0.0,0.0,0.0,0.0,0.0,0.0,0.0,0.0,0.0,0.0,0.0,0.0,0.0,0.0,0.0,0.0,0.0,0.0,0.0,0.0,0.0,0.0,0.0,0.0,0.0,0.0,0.0,0.0,0.0,0.0,0.0,0.0,0.0,0.0,0.0,0.0,0.0,0.0,0.0,0.0,0.0,0.0,0.0,0.0,0.0,0.0,0.0,0.0,0.0,0.0,0.0,0.0,0.0,0.0,0.0,0.0,0.0,0.0,0.0,0.0,0.0,0.0,0.0,0.0,0.0,0.0,0.0,0.0,0.0,0.0,0.0,0.0,0.0,0.0,0.0,0.0,0.0,0.0,0.0,0.0,0.0,0.0,0.0,0.0,0.0,0.0,0.0,0.0,0.0,0.0,0.0,0.0,0.0,0.0,0.0,0.0,0.0,0.0,0.0,0.0,0.0,0.0,0.0,0.0,0.0,0.0,0.0,0.0,0.0,0.0,0.0,0.0,0.0,0.0,0.0,0.0,0.0,0.0,0.0,0.0,0.0,0.0,0.0,0.0,0.0,0.0,0.0,0.0,0.0,0.0,0.0,0.0,0.0,0.0,0.0,0.0,0.0,0.0,0.0,0.0,0.0,0.0,0.0,0.0,0.0,0.0,0.0,0.0,0.0,0.0,0.0,0.0,0.0,0.0,0.0,0.0,0.0,0.0,0.0,0.0,0.0,0.0,0.0,0.0,0.0,0.0,0.0,0.0,0.0,0.0,0.0,0.0,0.0,0.0,0.0,0.0,0.0,0.0,0.0,0.0,0.0,0.0,0.0,0.0,0.0,0.0,0.0,0.0,0.0,0.0,0.0,0.0,0.0,0.0,0.0,0.0,0.0,0.0,0.0,0.0,0.0,0.0,0.0,0.0,0.0,0.0,0.0,0.0,0.0,0.0,0.0,0.0,0.0,0.0,0.0,0.0,0.0,0.0,0.0,0.0,0.0,0.0,0.0,0.0,0.0,0.0,0.0,0.0,0.0,0.0,0.0,0.0,0.0,0.0,0.0,0.0,0.0,0.0,0.0,0.0,0.0,0.0,0.0,0.0,0.0,0.0,0.0,0.0,0.0,0.0,0.0,0.0,0.0,0.0,0.0,0.0,0.0,0.0,0.0,0.0,0.0,0.0,0.0,0.0,0.0,0.0,0.0,0.0,0.0,0.0,0.0,0.0,0.0,0.0,0.0,0.0,0.0,0.0,0.0,0.0,0.0,0.0,0.0,0.0,0.0,0.0,0.0,0.0,0.0,0.0,0.0,0.0,0.0,0.0,0.0,0.0,0.0,0.0,0.0,0.0,0.0,0.0,0.0,0.0,0.0,0.0,0.0,0.0,0.0,0.0,0.0,0.0,0.0,0.0,0.0,0.0,0.0,0.0,0.0,0.0,0.0,0.0,0.0,0.0,0.0,0.0,0.0,0.0,0.0,0.0,0.0,0.0,0.0,0.0,0.0,0.0,0.0,0.0,0.0,0.0,0.0,0.0,0.0,0.0,0.0,0.0,0.0,0.0,0.0,0.0,0.0,0.0,0.0,0.0,0.0,0.0,0.0,0.0,0.0,0.0,0.0,0.0,0.0,0.0,0.0,0.0,0.0,0.0,0.0,0.0,0.0,0.0,0.0,0.0,0.0,0.0,0.0,0.0,0.0,0.0,0.0,0.0,0.0,0.0,0.0,0.0,0.0,0.0,0.0,0.0,0.0,0.0,0.0,0.0,0.0,0.0,0.0,0.0,0.0,0.0,0.0,0.0,0.0,0.0,0.0,0.0,0.0,0.0,0.0,0.0,0.0,0.0,0.0,0.0,0.0,0.0,0.0,0.0,0.0,0.0,0.0,0.0,0.0,0.0,0.0,0.0,0.0,0.0,0.0,0.0,0.0,0.0,0.0,0.0,0.0,0.0,0.0,0.0,0.0,0.0,0.0,0.0,0.0,0.0,0.0,0.0,0.0,0.0,0.0,0.0,0.0,0.0,0.0,0.0,0.0,0.0,0.0,0.0,0.0,0.0,0.0,0.0,0.0,0.0,0.0,0.0,0.0,0.0,0.0,0.0,0.0,0.0,0.0,0.0,0.0,0.0,0.0,0.0,0.0,0.0,0.0,0.0,0.0,0.0,0.0,0.0,0.0,0.0,0.0,0.0,0.0,0.0,0.0,0.0,0.0,0.0,0.0,0.0,0.0,0.0,0.0,0.0,0.0,0.0,0.0,0.0,0.0,0.0,0.0,0.0,0.0,0.0,0.0,0.0,0.0,0.0,0.0,0.0,0.0,0.0,0.0,0.0,0.0,0.0,0.0,0.0,0.0,0.0,0.0,0.0,0.0,0.0,0.0,0.0,0.0,0.0,0.0,0.0,0.0,0.0,0.0,0.0,0.0,0.0,0.0,0.0,0.0,0.0,0.0,0.0,0.0,0.0,0.0,0.0,0.0,0.0,0.0,0.0,0.0,0.0,0.0,0.0,0.0,0.0,0.0,0.0,0.0,0.0,0.0,0.0,0.0,0.0,0.0,0.0,0.0,0.0,0.0,0.0,0.0,0.0,0.0,0.0,0.0,0.0,0.0,0.0,0.0,0.0,0.0,0.0,0.0,0.0,0.0,0.0,0.0,0.0,0.0,0.0,0.0,0.0,0.0,0.0,0.0,0.0,0.0,0.0,0.0,0.0,0.0,0.0,0.0,0.0,0.0,0.0,0.0,0.0,0.0,0.0,0.0,0.0,0.0,0.0,0.0,0.0,0.0,0.0,0.0,0.0,0.0,0.0,0.0,0.0,0.0,0.0,0.0,0.0,0.0,0.0,0.0,0.0,0.0,0.0,0.0,0.0,0.0,0.0,0.0,0.0,0.0,0.0,0.0,0.0,0.0,0.0,0.0,0.0,0.0,0.0,0.0,0.0,0.0,0.0,0.0,0.0,0.0,0.0,0.0,0.0,0.0,0.0,0.0,0.0,0.0,0.0,0.0,0.0,0.0,0.0,0.0,0.0,0.0,0.0,0.0,0.0,0.0,0.0,0.0,0.0,0.0,0.0,0.0,0.0,0.0,0.0,0.0,0.0,0.0,0.0,0.0,0.0,0.0,0.0,0.0,0.0,0.0,0.0,0.0,0.0,0.0,0.0,0.0,0.0,0.0,0.0,0.0,0.0,0.0,0.0,0.0,0.0,0.0,0.0,0.0,0.0,0.0,0.0,0.0,0.0,0.0,0.0,0.0,0.0,0.0,0.0,0.0,0.0,0.0,0.0,0.0,0.0,0.0,0.0,0.0,0.0,0.0,0.0,0.0,0.0,0.0,0.0,0.0,0.0,0.0,0.0,0.0,0.0,0.0,0.0,0.0,0.0,0.0,0.0,0.0,0.0,0.0,0.0,0.0,0.0,0.0,0.0,0.0,0.0,0.0,0.0,0.0,0.0,0.0,0.0,0.0,0.0,0.0,0.0,0.0,0.0,0.0,0.0,0.0,0.0,0.0,0.0,0.0,0.0,0.0,0.0,0.0,0.0,0.0,0.0,0.0,0.0,0.0,0.0,0.0,0.0,0.0,0.0,0.0,0.0,0.0,0.0,0.0,0.0,0.0,0.0,0.0,0.0,0.0,0.0,0.0,0.0,0.0,0.0,0.0,0.0,-1.7854,0.0,0.0,0.0,0.0,0.0,0.0,0.0,0.0,0.0,0.0,0.0,0.0,0.0,0.0,0.0,0.0,0.0,0.0,0.0,0.0,0.0,0.0,0.0,0.0,0.0,0.0,0.0,0.0,0.0,0.0,0.0,0.0,0.0,0.0,0.0,0.0,0.0,0.0,0.0,0.0,0.0,0.0,0.0,0.0,0.0,0.0,0.0,0.0,0.0,0.0,0.0,0.0,0.0,0.0,0.0,0.0,0.0,0.0,0.0,0.0,0.0,0.0,0.0,0.0,0.0,0.0,0.0,0.0,0.0,0.0,0.0,0.0,0.0,0.0,0.0,0.0,0.0,0.0,0.0,0.0,0.0,0.0,0.0,0.0,0.0,0.0,0.0,0.0,0.0,0.0,0.0,0.0,0.0,0.0,0.0,0.0,0.0,0.0,0.0,0.0,0.0,0.0,0.0,0.0,0.0,0.0,0.0,0.0,0.0,0.0,-1.8535,-1.8516,-1.8249,-1.8092,-1.8092,0.0,0.0,0.0,0.0,0.0,0.0,0.0,0.0,0.0,0.0,0.0,0.0,0.0,0.0,0.0,0.0,0.0,0.0,0.0,0.0,0.0,0.0,0.0,0.0,0.0,0.0,0.0,0.0,0.0,0.0,0.0,0.0,0.0,0.0,0.0,0.0,0.0,0.0,0.0,0.0,0.0,0.0,0.0,0.0,0.0,0.0,0.0,0.0,0.0,0.0,0.0,0.0,0.0,0.0,0.0,0.0,0.0,0.0,0.0,0.0,0.0,0.0,0.0,0.0,0.0,0.0,0.0,0.0,0.0,0.0,0.0,0.0,0.0,0.0,0.0,0.0,0.0,0.0,0.0,0.0,0.0,0.0,0.0,0.0,0.0,0.0,0.0,0.0,0.0,0.0,0.0,0.0,0.0,0.0,0.0,0.0,0.0,0.0,0.0,0.0,0.0,0.0,0.0,0.0,0.0,0.0,0.0,0.0,0.0,0.0,0.0,0.0,-1.9364,-1.8965,-1.8551,0.0,0.0,0.0,0.0,0.0,0.0,0.0,0.0,0.0,0.0,0.0,0.0,0.0,0.0,0.0,0.0,0.0,0.0,0.0,0.0,0.0,0.0,0.0,0.0,0.0,0.0,0.0,0.0,0.0,0.0,0.0,0.0,0.0,0.0,0.0,0.0,0.0,0.0,0.0,0.0,0.0,0.0,0.0,0.0,0.0,0.0,0.0,0.0,0.0,0.0,0.0,0.0,0.0,0.0,0.0,0.0,0.0,0.0,0.0,0.0,0.0,0.0,0.0,0.0,0.0,0.0,0.0,0.0,0.0,0.0,0.0,0.0,0.0,0.0,0.0,0.0,0.0,0.0,0.0,0.0,0.0,0.0,0.0,0.0,0.0,0.0,0.0,0.0,0.0,0.0,0.0,0.0,0.0,0.0,0.0,0.0,0.0,0.0,0.0,0.0,0.0,0.0,0.0,0.0,0.0,0.0,0.0,0.0,0.0,0.0,-2.052,-2.2297,-2.2301,0.0,-2.0088,0.0,0.0,0.0,0.0,0.0,0.0,0.0,0.0,0.0,0.0,0.0,0.0,0.0,0.0,0.0,0.0,0.0,0.0,0.0,0.0,0.0,0.0,0.0,0.0,0.0,0.0,0.0,0.0,0.0,0.0,0.0,0.0,0.0,0.0,0.0,0.0,0.0,0.0,0.0,0.0,0.0,0.0,0.0,0.0,0.0,0.0,0.0,0.0,0.0,0.0,0.0,0.0,0.0,0.0,0.0,0.0,0.0,0.0,0.0,0.0,0.0,0.0,0.0,0.0,0.0,0.0,0.0,0.0,0.0,0.0,0.0,0.0,0.0,0.0,0.0,0.0,0.0,0.0,0.0,0.0,0.0,0.0,0.0,0.0,0.0,0.0,0.0,0.0,0.0,0.0,0.0,0.0,0.0,0.0,0.0,0.0,0.0,0.0,0.0,0.0,0.0,0.0,0.0,0.0,0.0,0.0,0.0,0.0,0.0,0.0,-2.2451,-2.328,-2.328,-2.2411,0.0,0.0,0.0,0.0,0.0,0.0,0.0,0.0,0.0,0.0,0.0,0.0,0.0,0.0,0.0,0.0,0.0,0.0,0.0,0.0,0.0,0.0,0.0,0.0,0.0,0.0,0.0,0.0,0.0,0.0,0.0,0.0,0.0,0.0,0.0,0.0,0.0,0.0,0.0,0.0,0.0,0.0,0.0,0.0,0.0,0.0,0.0,0.0,0.0,0.0,0.0,0.0,0.0,0.0,0.0,0.0,0.0,0.0,0.0,0.0,0.0,0.0,0.0,0.0,0.0,0.0,0.0,0.0,0.0,0.0,0.0,0.0,0.0,0.0,0.0,0.0,0.0,0.0,0.0,0.0,0.0,0.0,0.0,0.0,0.0,0.0,0.0,0.0,0.0,0.0,0.0,0.0,0.0,0.0,0.0,0.0,0.0,0.0,0.0,0.0,0.0,0.0,0.0,0.0,0.0,0.0,0.0,0.0,0.0,0.0,-2.3092,-2.4116,-2.465,-2.4488,-2.3342,-2.1063,0.0,0.0,0.0,0.0,0.0,0.0,0.0,0.0,0.0,0.0,0.0,0.0,0.0,0.0,0.0,0.0,0.0,0.0,0.0,0.0,0.0,0.0,0.0,0.0,0.0,0.0,0.0,0.0,0.0,0.0,0.0,0.0,0.0,0.0,0.0,0.0,0.0,0.0,0.0,0.0,0.0,0.0,0.0,0.0,0.0,0.0,0.0,0.0,0.0,0.0,0.0,0.0,0.0,0.0,0.0,0.0,0.0,0.0,0.0,0.0,0.0,0.0,0.0,0.0,0.0,0.0,0.0,0.0,0.0,0.0,0.0,0.0,0.0,0.0,0.0,0.0,0.0,0.0,0.0,0.0,0.0,0.0,0.0,0.0,0.0,0.0,0.0,0.0,0.0,0.0,0.0,0.0,0.0,0.0,0.0,0.0,0.0,0.0,0.0,0.0,0.0,0.0,0.0,0.0,0.0,0.0,0.0,0.0,-2.5956,-2.4939,-2.5201,-2.7038,-2.6449,-2.4729,0.0,0.0,0.0,0.0,0.0,0.0,0.0,0.0,0.0,0.0,0.0,0.0,0.0,0.0,0.0,0.0,0.0,0.0,0.0,0.0,0.0,0.0,0.0,0.0,0.0,0.0,0.0,0.0,0.0,0.0,0.0,0.0,0.0,0.0,0.0,0.0,0.0,0.0,0.0,0.0,0.0,0.0,0.0,0.0,0.0,0.0,0.0,0.0,0.0,0.0,0.0,0.0,0.0,0.0,0.0,0.0,0.0,0.0,0.0,0.0,0.0,0.0,0.0,0.0,0.0,0.0,0.0,0.0,0.0,0.0,0.0,0.0,0.0,0.0,0.0,0.0,0.0,0.0,0.0,0.0,0.0,0.0,0.0,0.0,0.0,0.0,0.0,0.0,0.0,0.0,0.0,0.0,0.0,0.0,0.0,0.0,0.0,0.0,0.0,0.0,0.0,0.0,0.0,0.0,0.0,0.0,0.0,0.0,0.0,-2.2968,-2.4129,-2.6171,-2.8904,-2.6303,-2.4254,0.0,0.0,0.0,0.0,0.0,0.0,0.0,0.0,0.0,0.0,0.0,0.0,0.0,0.0,0.0,0.0,0.0,0.0,0.0,0.0,0.0,0.0,0.0,0.0,0.0,0.0,0.0,0.0,0.0,0.0,0.0,0.0,0.0,0.0,0.0,0.0,0.0,0.0,0.0,0.0,0.0,0.0,0.0,0.0,0.0,0.0,0.0,0.0,0.0,0.0,0.0,0.0,0.0,0.0,0.0,0.0,0.0,0.0,0.0,0.0,0.0,0.0,0.0,0.0,0.0,0.0,0.0,0.0,0.0,0.0,0.0,0.0,0.0,0.0,0.0,0.0,0.0,0.0,0.0,0.0,0.0,0.0,0.0,0.0,0.0,0.0,0.0,0.0,0.0,0.0,0.0,0.0,0.0,0.0,0.0,0.0,0.0,0.0,0.0,0.0,0.0,0.0,0.0,0.0,0.0,0.0,0.0,0.0,0.0,-2.3194,0.0,-2.7792,-2.9201,-2.6442,-2.4183,0.0,0.0,0.0,0.0,0.0,0.0,0.0,0.0,0.0,0.0,0.0,0.0,0.0,0.0,0.0,0.0,0.0,0.0,0.0,0.0,0.0,0.0,0.0,0.0,0.0,0.0,0.0,0.0,0.0,0.0,0.0,0.0,0.0,0.0,0.0,0.0,0.0,0.0,0.0,0.0,0.0,0.0,0.0,0.0,0.0,0.0,0.0,0.0,0.0,0.0,0.0,0.0,0.0,0.0,0.0,0.0,0.0,0.0,0.0,0.0,0.0,0.0,0.0,0.0,0.0,0.0,0.0,0.0,0.0,0.0,0.0,0.0,0.0,0.0,0.0,0.0,0.0,0.0,0.0,0.0,0.0,0.0,0.0,0.0,0.0,0.0,0.0,0.0,0.0,0.0,0.0,0.0,0.0,0.0,0.0,0.0,0.0,0.0,0.0,0.0,0.0,0.0,0.0,0.0,0.0,0.0,0.0,0.0,-2.3243,-2.7535,-2.9751,-2.9869,-2.7925,-2.6995,-2.4561,0.0,0.0,0.0,0.0,0.0,0.0,0.0,0.0,0.0,0.0,0.0,0.0,0.0,0.0,0.0,0.0,0.0,0.0,0.0,0.0,0.0,0.0,0.0,0.0,0.0,0.0,0.0,0.0,0.0,0.0,0.0,0.0,0.0,0.0,0.0,0.0,0.0,0.0,0.0,0.0,0.0,0.0,0.0,0.0,0.0,0.0,0.0,0.0,0.0,0.0,0.0,0.0,0.0,0.0,0.0,0.0,0.0,0.0,0.0,0.0,0.0,0.0,0.0,0.0,0.0,0.0,0.0,0.0,0.0,0.0,0.0,0.0,0.0,0.0,0.0,0.0,0.0,0.0,0.0,0.0,0.0,0.0,0.0,0.0,0.0,0.0,0.0,0.0,0.0,0.0,0.0,0.0,0.0,0.0,0.0,0.0,0.0,0.0,0.0,0.0,0.0,0.0,0.0,0.0,0.0,0.0,0.0,0.0,0.0,-2.6006,-2.7368,-2.8645,-2.961,-2.6311,-2.4615,0.0,0.0,0.0,0.0,0.0,0.0,0.0,0.0,0.0,0.0,0.0,0.0,0.0,0.0,0.0,0.0,0.0,0.0,0.0,0.0,0.0,0.0,0.0,0.0,0.0,0.0,0.0,0.0,0.0,0.0,0.0,0.0,0.0,0.0,0.0,0.0,0.0,0.0,0.0,0.0,0.0,0.0,0.0,0.0,0.0,0.0,0.0,0.0,0.0,0.0,0.0,0.0,0.0,0.0,0.0,0.0,0.0,0.0,0.0,0.0,0.0,0.0,0.0,0.0,0.0,0.0,0.0,0.0,0.0,0.0,0.0,0.0,0.0,0.0,0.0,0.0,0.0,0.0,0.0,0.0,0.0,0.0,0.0,0.0,0.0,0.0,0.0,0.0,0.0,0.0,0.0,0.0,0.0,0.0,0.0,0.0,0.0,0.0,0.0,0.0,0.0,0.0,0.0,0.0,0.0,0.0,0.0,0.0,0.0,-2.6911,-2.8594,-2.9813,-3.0451,-2.7249,-2.5636,-2.5843,0.0,0.0,0.0,0.0,0.0,0.0,0.0,0.0,0.0,0.0,0.0,0.0,0.0,0.0,0.0,0.0,0.0,0.0,0.0,0.0,0.0,0.0,0.0,0.0,0.0,0.0,0.0,0.0,0.0,0.0,0.0,0.0,0.0,0.0,0.0,0.0,0.0,0.0,0.0,0.0,0.0,0.0,0.0,0.0,0.0,0.0,0.0,0.0,0.0,0.0,0.0,0.0,0.0,0.0,0.0,0.0,0.0,0.0,0.0,0.0,0.0,0.0,0.0,0.0,0.0,0.0,0.0,0.0,0.0,0.0,0.0,0.0,0.0,0.0,0.0,0.0,0.0,0.0,0.0,0.0,0.0,0.0,0.0,0.0,0.0,0.0,0.0,0.0,0.0,0.0,0.0,0.0,0.0,0.0,0.0,0.0,0.0,0.0,0.0,0.0,0.0,0.0,0.0,0.0,0.0,0.0,0.0,0.0,-2.971,-3.2713,-3.3043,-3.0562,-2.9611,-2.7638,0.0,0.0,0.0,0.0,0.0,0.0,0.0,0.0,0.0,0.0,0.0,0.0,0.0,0.0,0.0,0.0,0.0,0.0,0.0,0.0,0.0,0.0,0.0,0.0,0.0,0.0,0.0,0.0,0.0,0.0,0.0,0.0,0.0,0.0,0.0,0.0,0.0,0.0,0.0,0.0,0.0,0.0,0.0,0.0,0.0,0.0,0.0,0.0,0.0,0.0,0.0,0.0,0.0,0.0,0.0,0.0,0.0,0.0,0.0,0.0,0.0,0.0,0.0,0.0,0.0,0.0,0.0,0.0,0.0,0.0,0.0,0.0,0.0,0.0,0.0,0.0,0.0,0.0,0.0,0.0,0.0,0.0,0.0,0.0,0.0,0.0,0.0,0.0,0.0,0.0,0.0,0.0,0.0,0.0,0.0,0.0,0.0,0.0,0.0,0.0,0.0,0.0,0.0,0.0,0.0,0.0,0.0,0.0,0.0,-3.1254,-3.4073,-3.5166,-3.435,-3.1516,-2.9663,0.0,0.0,0.0,0.0,0.0,0.0,0.0,0.0,0.0,0.0,0.0,0.0,0.0,0.0,0.0,0.0,0.0,0.0,0.0,0.0,0.0,0.0,0.0,0.0,0.0,0.0,0.0,0.0,0.0,0.0,0.0,0.0,0.0,0.0,0.0,0.0,0.0,0.0,0.0,0.0,0.0,0.0,0.0,0.0,0.0,0.0,0.0,0.0,0.0,0.0,0.0,0.0,0.0,0.0,0.0,0.0,0.0,0.0,0.0,0.0,0.0,0.0,0.0,0.0,0.0,0.0,0.0,0.0,0.0,0.0,0.0,0.0,0.0,0.0,0.0,0.0,0.0,0.0,0.0,0.0,0.0,0.0,0.0,0.0,0.0,0.0,0.0,0.0,0.0,0.0,0.0,0.0,0.0,0.0,0.0,0.0,0.0,0.0,0.0,0.0,0.0,0.0,0.0,0.0,0.0,0.0,0.0,0.0,-2.8558,-3.1104,-3.4021,-3.5669,-3.5933,-3.355,-3.1611,0.0,0.0,0.0,0.0,0.0,0.0,0.0,0.0,0.0,0.0,0.0,0.0,0.0,0.0,0.0,0.0,0.0,0.0,0.0,0.0,0.0,0.0,0.0,0.0,0.0,0.0,0.0,0.0,0.0,0.0,0.0,0.0,0.0,0.0,0.0,0.0,0.0,0.0,0.0,0.0,0.0,0.0,0.0,0.0,0.0,0.0,0.0,0.0,0.0,0.0,0.0,0.0,0.0,0.0,0.0,0.0,0.0,0.0,0.0,0.0,0.0,0.0,0.0,0.0,0.0,0.0,0.0,0.0,0.0,0.0,0.0,0.0,0.0,0.0,0.0,0.0,0.0,0.0,0.0,0.0,0.0,0.0,0.0,0.0,0.0,0.0,0.0,0.0,0.0,0.0,0.0,0.0,0.0,0.0,0.0,0.0,0.0,0.0,0.0,0.0,0.0,0.0,0.0,0.0,0.0,0.0,0.0,0.0,-2.8011,-3.027,-3.3333,-3.5279,-3.5935,-3.5385,-3.3455,0.0,0.0,0.0,0.0,0.0,0.0,0.0,0.0,0.0,0.0,0.0,0.0,0.0,0.0,0.0,0.0,0.0,0.0,0.0,0.0,0.0,0.0,0.0,0.0,0.0,0.0,0.0,0.0,0.0,0.0,0.0,0.0,0.0,0.0,0.0,0.0,0.0,0.0,0.0,0.0,0.0,0.0,0.0,0.0,0.0,0.0,0.0,0.0,0.0,0.0,0.0,0.0,0.0,0.0,0.0,0.0,0.0,0.0,0.0,0.0,0.0,0.0,0.0,0.0,0.0,0.0,0.0,0.0,0.0,0.0,0.0,0.0,0.0,0.0,0.0,0.0,0.0,0.0,0.0,0.0,0.0,0.0,0.0,0.0,0.0,0.0,0.0,0.0,0.0,0.0,0.0,0.0,0.0,0.0,0.0,0.0,0.0,0.0,0.0,0.0,0.0,0.0,0.0,0.0,0.0,0.0,0.0,0.0,-2.9481,-3.1492,-3.3949,-3.5473,-3.5987,-3.56,-3.4319,0.0,0.0,0.0,0.0,0.0,0.0,0.0,0.0,0.0,0.0,0.0,0.0,0.0,0.0,0.0,0.0,0.0,0.0,0.0,0.0,0.0,0.0,0.0,0.0,0.0,0.0,0.0,0.0,0.0,0.0,0.0,0.0,0.0,0.0,0.0,0.0,0.0,0.0,0.0,0.0,0.0,0.0,0.0,0.0,0.0,0.0,0.0,0.0,-2.3295,0.0,0.0,0.0,0.0,0.0,0.0,0.0,0.0,0.0,0.0,0.0,0.0,0.0,0.0,0.0,0.0,0.0,0.0,0.0,0.0,0.0,0.0,0.0,0.0,0.0,0.0,0.0,0.0,0.0,0.0,0.0,0.0,0.0,0.0,0.0,0.0,0.0,0.0,0.0,0.0,0.0,0.0,0.0,0.0,0.0,0.0,0.0,0.0,0.0,0.0,0.0,0.0,0.0,0.0,0.0,0.0,0.0,0.0,0.0,-2.9072,-3.1032,-3.3154,-3.4565,-3.5125,-3.5312,-3.4332,0.0,0.0,0.0,0.0,0.0,0.0,0.0,0.0,0.0,0.0,0.0,0.0,0.0,0.0,0.0,0.0,0.0,0.0,0.0,0.0,0.0,0.0,0.0,0.0,0.0,0.0,0.0,0.0,0.0,0.0,0.0,0.0,0.0,0.0,0.0,0.0,0.0,0.0,0.0,0.0,0.0,0.0,0.0,0.0,0.0,0.0,0.0,0.0,0.0,0.0,0.0,0.0,0.0,0.0,0.0,0.0,0.0,0.0,0.0,0.0,0.0,0.0,0.0,0.0,0.0,0.0,0.0,0.0,0.0,0.0,0.0,0.0,0.0,0.0,0.0,0.0,0.0,0.0,0.0,0.0,0.0,0.0,0.0,0.0,0.0,0.0,0.0,0.0,0.0,0.0,0.0,0.0,0.0,0.0,0.0,0.0,0.0,0.0,0.0,0.0,0.0,0.0,0.0,0.0,0.0,0.0,0.0,-2.6745,-2.8198,-3.0224,-3.217,-3.3448,-3.4068,-3.4913,-3.4085,-3.1422,0.0,0.0,0.0,0.0,0.0,0.0,0.0,0.0,0.0,0.0,0.0,0.0,0.0,0.0,0.0,0.0,0.0,0.0,0.0,0.0,0.0,0.0,0.0,0.0,0.0,0.0,0.0,0.0,0.0,0.0,0.0,0.0,0.0,0.0,0.0,0.0,0.0,0.0,-2.3017,-2.4822,0.0,0.0,0.0,0.0,0.0,0.0,0.0,0.0,-2.5914,0.0,0.0,0.0,0.0,0.0,0.0,0.0,0.0,0.0,0.0,0.0,0.0,0.0,0.0,0.0,0.0,0.0,0.0,0.0,0.0,0.0,0.0,0.0,0.0,0.0,0.0,0.0,0.0,0.0,0.0,0.0,0.0,0.0,0.0,0.0,0.0,0.0,0.0,0.0,0.0,0.0,0.0,0.0,0.0,0.0,0.0,0.0,0.0,0.0,0.0,0.0,0.0,0.0,0.0,0.0,0.0,-2.6781,-2.7406,-2.8783,-3.097,-3.2523,-3.3417,-3.3569,-3.4839,-3.4185,-3.1374,0.0,0.0,0.0,0.0,0.0,0.0,0.0,0.0,0.0,0.0,0.0,0.0,0.0,0.0,0.0,0.0,0.0,0.0,0.0,0.0,0.0,0.0,0.0,0.0,0.0,0.0,0.0,0.0,0.0,0.0,0.0,0.0,0.0,0.0,0.0,0.0,0.0,0.0,0.0,-2.6856,-2.8353,0.0,0.0,0.0,0.0,0.0,0.0,0.0,0.0,-2.721,0.0,0.0,0.0,0.0,0.0,0.0,0.0,0.0,0.0,0.0,0.0,0.0,0.0,0.0,0.0,0.0,0.0,0.0,0.0,0.0,0.0,0.0,0.0,0.0,0.0,0.0,0.0,0.0,0.0,0.0,0.0,0.0,0.0,0.0,0.0,0.0,0.0,0.0,0.0,0.0,0.0,0.0,0.0,0.0,0.0,0.0,0.0,0.0,0.0,0.0,0.0,0.0,0.0,0.0,0.0,-2.5967,-2.7082,-2.8619,-3.067,-3.2096,-3.3017,-3.3389,-3.3355,-3.2645,0.0,0.0,0.0,0.0,0.0,0.0,0.0,0.0,0.0,0.0,0.0,0.0,0.0,0.0,0.0,0.0,0.0,0.0,0.0,0.0,0.0,0.0,0.0,0.0,0.0,0.0,0.0,0.0,0.0,0.0,0.0,0.0,0.0,0.0,0.0,0.0,0.0,0.0,0.0,0.0,-2.8053,-2.9475,-3.0462,0.0,0.0,0.0,0.0,0.0,0.0,-2.8349,-2.8113,0.0,0.0,0.0,0.0,0.0,0.0,0.0,0.0,0.0,0.0,0.0,0.0,0.0,0.0,0.0,0.0,0.0,0.0,0.0,0.0,0.0,0.0,0.0,0.0,0.0,0.0,0.0,0.0,0.0,0.0,0.0,0.0,0.0,0.0,0.0,0.0,0.0,0.0,0.0,0.0,0.0,0.0,0.0,0.0,0.0,0.0,0.0,0.0,0.0,0.0,0.0,0.0,0.0,0.0,0.0,-2.5134,-2.6619,-2.8304,-3.0243,-3.165,-3.2677,-3.3351,-3.2424,-3.1594,0.0,0.0,0.0,0.0,0.0,0.0,0.0,0.0,0.0,0.0,0.0,0.0,0.0,0.0,0.0,0.0,0.0,0.0,0.0,0.0,0.0,0.0,0.0,0.0,0.0,0.0,0.0,0.0,0.0,0.0,0.0,0.0,0.0,0.0,0.0,0.0,0.0,0.0,0.0,0.0,0.0,-3.0507,-3.1361,-3.0746,0.0,0.0,0.0,0.0,-3.0073,-2.9624,0.0,0.0,0.0,0.0,0.0,0.0,0.0,0.0,0.0,0.0,0.0,0.0,0.0,0.0,0.0,0.0,0.0,0.0,0.0,0.0,0.0,0.0,0.0,0.0,0.0,0.0,0.0,0.0,0.0,0.0,0.0,0.0,0.0,0.0,0.0,0.0,0.0,0.0,0.0,0.0,0.0,0.0,0.0,0.0,0.0,0.0,0.0,0.0,0.0,0.0,0.0,0.0,0.0,0.0,0.0,0.0,-2.5134,-2.6513,-2.8232,-3.0239,-3.1715,-3.2779,-3.3381,-3.3906,-3.2951,0.0,0.0,0.0,0.0,0.0,0.0,0.0,0.0,0.0,0.0,0.0,0.0,0.0,0.0,0.0,0.0,0.0,0.0,0.0,0.0,0.0,0.0,0.0,0.0,0.0,0.0,0.0,0.0,0.0,0.0,0.0,0.0,0.0,0.0,0.0,0.0,0.0,0.0,0.0,0.0,0.0,-3.2003,-3.157,-3.1869,-3.2183,0.0,0.0,-3.1406,-3.2063,-3.16,0.0,0.0,0.0,0.0,0.0,0.0,0.0,0.0,0.0,0.0,0.0,0.0,0.0,0.0,0.0,0.0,0.0,0.0,0.0,0.0,0.0,0.0,0.0,0.0,0.0,0.0,0.0,0.0,0.0,0.0,0.0,0.0,0.0,0.0,0.0,0.0,0.0,0.0,0.0,0.0,0.0,0.0,0.0,0.0,0.0,0.0,0.0,0.0,0.0,0.0,0.0,0.0,0.0,0.0,0.0,-2.2816,-2.4318,-2.6689,-2.8556,-2.9837,-3.1588,-3.264,-3.2875,-3.2055,-3.0813,0.0,0.0,0.0,0.0,0.0,0.0,0.0,0.0,0.0,0.0,0.0,0.0,0.0,0.0,0.0,0.0,0.0,0.0,0.0,0.0,0.0,0.0,0.0,0.0,0.0,0.0,0.0,0.0,0.0,0.0,0.0,0.0,0.0,0.0,0.0,0.0,0.0,0.0,0.0,0.0,0.0,0.0,-3.308,-3.3125,0.0,0.0,0.0,-3.2751,-3.3021,0.0,0.0,0.0,0.0,0.0,0.0,0.0,0.0,0.0,0.0,0.0,0.0,0.0,0.0,0.0,0.0,0.0,0.0,0.0,0.0,0.0,0.0,0.0,0.0,0.0,0.0,0.0,0.0,0.0,0.0,0.0,0.0,0.0,0.0,0.0,0.0,0.0,0.0,0.0,0.0,0.0,0.0,0.0,0.0,0.0,0.0,0.0,0.0,0.0,0.0,0.0,0.0,0.0,0.0,0.0,0.0,0.0,-2.3879,-2.693,-2.8919,-2.9757,-3.1388,-3.2333,-3.2467,-3.0799,0.0,0.0,0.0,0.0,0.0,0.0,0.0,0.0,0.0,0.0,0.0,0.0,0.0,0.0,0.0,0.0,0.0,0.0,0.0,0.0,0.0,0.0,0.0,0.0,0.0,0.0,0.0,-1.7112,0.0,0.0,0.0,0.0,0.0,0.0,0.0,0.0,0.0,0.0,0.0,0.0,0.0,0.0,-3.2273,-3.3697,-3.3809,-3.3978,0.0,0.0,-3.3559,-3.3724,-3.2632,-3.1182,0.0,0.0,0.0,0.0,0.0,0.0,0.0,0.0,0.0,0.0,0.0,0.0,0.0,0.0,0.0,0.0,0.0,0.0,0.0,0.0,0.0,0.0,0.0,0.0,0.0,0.0,0.0,0.0,0.0,0.0,0.0,0.0,0.0,0.0,0.0,0.0,0.0,0.0,0.0,0.0,0.0,0.0,0.0,0.0,0.0,0.0,0.0,0.0,0.0,0.0,0.0,0.0,0.0,0.0,0.0,-2.459,-2.721,-2.9182,-3.0387,-3.1218,-3.193,-3.2458,-3.1814,-3.0447,0.0,0.0,0.0,0.0,0.0,0.0,0.0,0.0,0.0,0.0,0.0,0.0,0.0,0.0,0.0,0.0,0.0,0.0,0.0,0.0,0.0,0.0,0.0,0.0,0.0,0.0,0.0,0.0,0.0,0.0,0.0,0.0,0.0,0.0,0.0,0.0,0.0,0.0,0.0,0.0,0.0,-3.239,-3.2272,-3.349,-3.4651,0.0,0.0,-3.3694,-3.4339,-3.329,-3.1599,-2.9086,0.0,0.0,0.0,0.0,0.0,0.0,0.0,0.0,0.0,0.0,0.0,0.0,0.0,0.0,0.0,0.0,0.0,0.0,0.0,0.0,0.0,0.0,0.0,0.0,0.0,0.0,0.0,0.0,0.0,0.0,0.0,0.0,0.0,0.0,0.0,0.0,0.0,0.0,0.0,0.0,0.0,0.0,0.0,0.0,0.0,0.0,0.0,0.0,0.0,0.0,0.0,0.0,0.0,-2.3917,-2.4634,-2.7649,-2.9624,-3.0485,-3.1167,-3.164,-3.1873,-3.1256,-2.9977,0.0,0.0,0.0,0.0,0.0,0.0,0.0,0.0,0.0,0.0,0.0,0.0,0.0,0.0,0.0,0.0,0.0,0.0,0.0,0.0,0.0,0.0,0.0,0.0,0.0,0.0,0.0,0.0,-2.0024,-2.0087,-1.9786,0.0,0.0,0.0,0.0,0.0,0.0,0.0,0.0,0.0,0.0,-3.1785,-3.3082,-3.379,0.0,0.0,-3.507,-3.4666,-3.4533,-3.3036,-3.1271,-2.949,-2.7989,0.0,0.0,0.0,0.0,0.0,0.0,0.0,0.0,0.0,0.0,0.0,0.0,0.0,0.0,0.0,0.0,0.0,0.0,0.0,0.0,0.0,0.0,0.0,0.0,0.0,0.0,0.0,0.0,0.0,0.0,0.0,0.0,0.0,0.0,0.0,0.0,0.0,0.0,0.0,0.0,0.0,0.0,0.0,0.0,0.0,0.0,0.0,0.0,0.0,0.0,0.0,0.0,-2.4145,-2.4808,-2.7656,-2.9418,-3.0061,-3.0749,-3.1161,-3.1117,-3.051,-2.9387,0.0,0.0,0.0,0.0,0.0,0.0,0.0,0.0,0.0,0.0,0.0,0.0,0.0,0.0,0.0,0.0,0.0,0.0,0.0,0.0,0.0,0.0,0.0,0.0,0.0,0.0,0.0,0.0,-2.1117,-2.1119,-2.0742,0.0,0.0,0.0,0.0,0.0,0.0,0.0,0.0,0.0,0.0,-3.1447,-3.2947,-3.3622,-3.4245,-3.4953,-3.5148,-3.4966,-3.4324,-3.3021,-3.1539,-2.9876,0.0,0.0,0.0,0.0,0.0,0.0,0.0,0.0,0.0,0.0,0.0,0.0,0.0,0.0,0.0,0.0,0.0,0.0,0.0,0.0,0.0,0.0,0.0,0.0,0.0,0.0,0.0,0.0,0.0,0.0,-2.2318,0.0,0.0,0.0,0.0,0.0,0.0,0.0,0.0,0.0,0.0,0.0,0.0,0.0,0.0,0.0,0.0,0.0,0.0,0.0,0.0,0.0,0.0,-2.4601,-2.5283,-2.714,-2.8384,-2.9042,-2.9875,-3.0329,-3.0315,-2.9693,-2.8972,-2.8254,0.0,0.0,0.0,0.0,0.0,0.0,0.0,0.0,0.0,0.0,0.0,0.0,0.0,0.0,0.0,0.0,0.0,0.0,0.0,0.0,0.0,0.0,0.0,0.0,0.0,0.0,-2.1568,-2.1056,-2.0767,0.0,0.0,0.0,0.0,0.0,0.0,0.0,0.0,0.0,0.0,-3.0583,-3.1496,-3.1346,-3.282,-3.3945,-3.4027,-3.4295,-3.4277,-3.3602,-3.3439,-3.2572,0.0,0.0,0.0,0.0,0.0,0.0,0.0,0.0,0.0,0.0,0.0,0.0,0.0,0.0,0.0,0.0,0.0,0.0,0.0,0.0,0.0,0.0,0.0,0.0,0.0,0.0,0.0,-2.5394,-2.4516,0.0,0.0,0.0,0.0,0.0,0.0,0.0,0.0,0.0,0.0,0.0,-2.3444,-2.4564,0.0,0.0,0.0,0.0,0.0,0.0,0.0,0.0,0.0,0.0,0.0,0.0,-2.4435,-2.5969,-2.729,-2.8333,-2.8975,-2.9286,-2.9442,-2.9442,-2.9215,-2.8356,-2.6802,0.0,0.0,0.0,0.0,0.0,0.0,0.0,0.0,0.0,0.0,0.0,0.0,0.0,0.0,0.0,0.0,0.0,0.0,0.0,0.0,0.0,0.0,0.0,0.0,0.0,-2.3364,0.0,0.0,0.0,0.0,0.0,0.0,0.0,0.0,0.0,0.0,0.0,-2.8232,-2.8904,-2.9814,-3.0587,-3.1117,-3.1742,-3.2343,0.0,0.0,0.0,0.0,0.0,0.0,0.0,0.0,0.0,0.0,0.0,0.0,0.0,0.0,-2.8477,-2.6618,-2.5734,-2.5247,-2.5262,0.0,0.0,0.0,0.0,0.0,0.0,0.0,0.0,0.0,0.0,0.0,0.0,0.0,0.0,0.0,0.0,-2.4298,0.0,0.0,0.0,0.0,0.0,0.0,0.0,0.0,-2.4415,-2.4554,-2.4011,-2.5291,-2.5437,0.0,-2.5864,-2.5215,0.0,0.0,0.0,0.0,0.0,0.0,0.0,0.0,-2.4627,-2.609,-2.7016,-2.7696,-2.8122,-2.8395,-2.8556,-2.8556,-2.8556,-2.7714,-2.5914,-2.5132,-2.4178,0.0,0.0,0.0,0.0,0.0,0.0,0.0,0.0,0.0,0.0,0.0,0.0,0.0,0.0,0.0,0.0,0.0,0.0,0.0,0.0,0.0,0.0,0.0,-2.3154,0.0,0.0,0.0,0.0,0.0,0.0,0.0,0.0,0.0,-2.583,-2.7016,-2.8038,-2.8568,-2.9297,-3.0037,-3.0633,0.0,0.0,0.0,0.0,0.0,0.0,0.0,-3.1265,-3.0187,-3.0007,-2.9537,-2.8339,-2.8404,-2.8494,-2.8081,0.0,0.0,-2.8121,-2.7575,-2.732,-2.7305,-2.7485,-2.7694,-2.7904,-2.8389,-2.8956,0.0,0.0,0.0,0.0,0.0,0.0,0.0,0.0,-2.7172,-2.6467,0.0,-2.4376,0.0,0.0,0.0,0.0,0.0,0.0,0.0,0.0,-2.5601,-2.6099,-2.5536,-2.6092,-2.6121,-2.5708,-2.723,-2.6632,-2.4153,-2.3993,0.0,0.0,0.0,0.0,0.0,0.0,-2.5197,-2.5847,-2.6297,-2.6521,-2.6555,-2.7297,-2.767,-2.767,-2.767,-2.7011,-2.5723,-2.5736,-2.5262,-2.421,-2.3003,0.0,0.0,0.0,0.0,0.0,0.0,0.0,0.0,0.0,0.0,0.0,0.0,0.0,0.0,0.0,0.0,0.0,0.0,0.0,0.0,-2.1717,0.0,0.0,0.0,0.0,0.0,0.0,0.0,0.0,0.0,0.0,-2.6244,-2.691,-2.7474,-2.8024,0.0,0.0,0.0,0.0,-3.1106,-3.1143,-3.1924,-3.2258,-3.1611,-3.2073,-3.2046,-3.0774,0.0,0.0,-2.9063,-2.9273,-2.926,-2.8181,-2.8491,-2.9223,-2.9984,-3.009,-3.0263,-3.0319,-2.9856,-2.9821,-3.0313,-2.9981,-3.0023,-3.2014,0.0,0.0,0.0,0.0,-2.935,-2.8229,-2.6379,-2.6411,-2.5819,-2.4756,-2.4154,0.0,0.0,0.0,0.0,0.0,0.0,-2.4831,-2.4032,-2.4477,-2.4388,-2.3866,-2.4819,-2.5177,-2.5091,-2.6352,-2.6312,-2.5166,-2.515,-2.4165,-2.236,0.0,0.0,0.0,0.0,-2.5339,-2.636,-2.6467,-2.6487,-2.6487,-2.6714,-2.6837,-2.685,-2.685,-2.6637,-2.6248,-2.5861,-2.5503,-2.516,-2.317,0.0,0.0,0.0,0.0,0.0,0.0,0.0,0.0,0.0,0.0,0.0,0.0,0.0,0.0,0.0,0.0,0.0,0.0,0.0,-2.2455,-2.1718,-2.1671,0.0,0.0,0.0,0.0,0.0,0.0,0.0,0.0,0.0,-2.5215,-2.6117,-2.7077,0.0,0.0,-2.7999,-2.9585,-2.9355,-2.9279,-3.0088,0.0,0.0,0.0,-3.0635,-3.0709,-3.0104,-2.9823,-2.9346,-2.847,-2.8121,-2.7769,-2.708,-2.7552,-2.8149,-2.8382,-2.899,-2.9604,-3.016,-3.0207,-3.0367,-3.1022,-3.1047,-3.1032,-3.1819,-3.1815,-3.0869,-2.9926,-2.9158,-2.9343,-2.8266,-2.634,-2.6386,-2.5906,-2.5006,-2.4334,-2.4198,-2.4519,-2.4216,0.0,0.0,0.0,-2.4352,-2.363,-2.363,-2.344,-2.3169,-2.38,-2.4125,-2.4168,-2.5263,-2.5406,-2.4628,-2.5524,-2.4848,-2.2724,0.0,0.0,-2.3946,-2.4123,-2.4798,-2.5917,-2.5561,-2.5499,-2.5886,-2.5921,-2.5734,-2.5358,-2.5687,-2.5734,-2.5311,-2.4951,-2.4652,-2.4436,-2.3038,-2.1927,0.0,0.0,0.0,0.0,0.0,0.0,0.0,0.0,0.0,0.0,0.0,-2.1949,0.0,0.0,0.0,0.0,-2.1441,-2.1736,-2.2418,-2.1878,0.0,0.0,0.0,0.0,0.0,0.0,0.0,-2.5444,-2.443,-2.3764,-2.4094,-2.4723,-2.5557,-2.6644,-2.6625,-2.6976,-2.8303,0.0,-2.7695,-2.8422,-2.887,-2.9118,-2.9145,-2.9618,-2.9996,-2.9845,-2.9276,-2.87,-2.821,-2.7657,-2.714,-2.6719,-2.6918,-2.7229,-2.7229,-2.767,-2.8395,-2.9549,-3.0072,-3.0464,-3.0925,-3.1278,-3.1496,-3.1412,-3.124,-2.9617,-2.8701,-2.8464,-2.8896,-2.8174,-2.6671,-2.6754,-2.6384,-2.5615,-2.4777,-2.4746,-2.5197,-2.5352,0.0,-2.3971,-2.445,-2.4082,-2.3101,-2.3101,-2.3101,-2.3101,-2.3091,-2.3101,-2.3144,-2.4168,-2.4135,-2.3256,-2.5221,-2.5155,-2.3154,-2.3638,-2.3704,-2.3316,-2.3342,-2.3888,-2.4862,-2.3975,-2.3963,-2.4862,-2.4898,-2.4445,-2.3551,-2.4409,-2.4456,-2.3562,-2.3514,-2.3276,-2.2804,-2.2622,-2.1907,-2.0565,0.0,0.0,0.0,0.0,0.0,0.0,0.0,0.0,0.0,0.0,0.0,0.0,0.0,0.0,0.0,-2.1898,0.0,-2.2585,-2.2236,0.0,0.0,0.0,-2.4503,-2.5841,-2.5084,-2.4748,-2.524,0.0,0.0,-2.3101,0.0,-2.3507,-2.4542,-2.5588,-2.6307,-2.6483,-2.6431,-2.64,-2.6595,-2.7371,-2.7976,-2.8016,-2.8721,-2.9294,-2.9397,-2.9125,-2.8487,-2.8073,-2.7645,-2.7128,-2.6587,-2.6487,-2.6521,-2.6487,-2.6589,-2.696,-2.8492,-2.9456,-3.0072,-3.0163,-3.0703,-3.1175,-3.0602,-3.0446,-2.8747,-2.8099,-2.8269,-2.8365,-2.7506,-2.6,-2.5942,-2.5737,-2.5253,-2.501,-2.4631,-2.4163,-2.4209,-2.3884,-2.3335,-2.3424,-2.3343,-2.3091,-2.3101,-2.3101,-2.3101,-2.3101,-2.3101,-2.3135,-2.3387,-2.3343,-2.3144,-2.3647,-2.3624,-2.3123,-2.3218,-2.3296,-2.3313,-2.3735,-2.3932,-2.3854,-2.3624,-2.3624,-2.3854,-2.3854,-2.3745,-2.3526,-2.3745,-2.3745,-2.3478,-2.3478,-2.3422,-2.3299,-2.2012,-2.1243,-2.1172,-1.9657,0.0,0.0,0.0,0.0,0.0,0.0,0.0,0.0,0.0,-2.2309,-2.0638,0.0,-2.214,0.0,-2.2487,-2.3051,-2.3418,-2.3096,0.0,0.0,-2.4019,-2.4078,-2.4711,-2.4356,-2.4019,-2.4163,-2.3541,-2.3101,-2.3101,-2.3101,-2.3222,-2.3464,-2.3724,-2.451,-2.6152,-2.5755,-2.5504,-2.6276,-2.6678,-2.6883,-2.6901,-2.6795,-2.7053,-2.7798,-2.7468,-2.7199,-2.7449,-2.7394,-2.7153,-2.6625,-2.6487,-2.6487,-2.6452,-2.6487,-2.6624,-2.7061,-2.7723,-2.8524,-2.916,-2.9473,-2.9797,-2.9175,-2.903,-2.7851,-2.7379,-2.7415,-2.7425,-2.6742,-2.5742,-2.5684,-2.5596,-2.5352,-2.5194,-2.4851,-2.4336,-2.3965,-2.3652,-2.3418,-2.3188,-2.3101,-2.3101,-2.3101,-2.3101,-2.3101,-2.3101,-2.3101,-2.3101,-2.3101,-2.3101,-2.3101,-2.3101,-2.3101,-2.3101,-2.3101,-2.3048,-2.2945,-2.3103,-2.3175,-2.3139,-2.2948,-2.2638,-2.2226,-2.2627,-2.2627,-2.2226,-2.2627,-2.2638,-2.2226,-2.2188,-2.2131,-2.1871,-2.0932,-2.0404,-2.0435,-1.9448,-1.8842,0.0,0.0,0.0,0.0,0.0,0.0,0.0,0.0,0.0,0.0,0.0,-2.2582,0.0,-2.3208,-2.3736,-2.4297,-2.4141,-2.4268,-2.4894,-2.4748,-2.4678,-2.4717,-2.4336,-2.3994,-2.3809,-2.3408,-2.3101,-2.3101,-2.3101,-2.3101,-2.3101,-2.3101,-2.356,-2.4648,-2.4425,-2.4307,-2.4893,-2.5431,-2.5975,-2.6389,-2.6098,-2.5961,-2.6419,-2.602,-2.5665,-2.5911,-2.5756,-2.5493,-2.523,-2.5546,-2.5851,-2.5838,-2.6245,-2.6499,-2.6555,-2.685,-2.7451,-2.8233,-2.8703,-2.9192,-2.7728,-2.7679,-2.7139,-2.6719,-2.6387,-2.6328,-2.6084,-2.5684,-2.5684,-2.5684,-2.5664,-2.5322,-2.5135,-2.4979,-2.4255,-2.3818,-2.3682,-2.3266,-2.3101,-2.3101,-2.3101,-2.3101,-2.3101,-2.3101,-2.3101,-2.3101,-2.3101,-2.3101,-2.3101,-2.3101,-2.3101,-2.3101,-2.3101,-2.2886,-2.251,-2.21,-2.2069,-2.2424,-2.2057,-2.1451,-2.0644,-2.1413,-2.1441,-2.0673,-2.1413,-2.1451,-2.0644,-2.0615,-2.042,-2.0107,-1.9991,-1.9883,-1.9629,-1.9521,-1.9763,0.0,-1.9836,0.0,0.0,0.0,0.0,0.0,0.0,0.0,0.0,-2.2895,-2.3555,-2.3926,-2.4014,-2.4346,-2.5088,-2.5156,-2.5312,-2.5635,-2.5635,-2.5498,-2.5145,-2.4489,-2.3961,-2.3593,-2.3177,-2.2862,-2.2818,-2.3003,-2.3101,-2.3101,-2.3101,-2.3096,-2.3057,-2.3129,-2.3202,-2.3042,-2.3882,-2.4756,-2.5554,-2.5513,-2.5209,-2.5281,-2.4637,-2.4073,-2.4254,-2.3928,-2.3562,-2.3635,-2.4253,-2.4779,-2.4826,-2.5616,-2.6233,-2.6233,-2.6383,-2.6794,-2.7417,-2.8051,-2.8684,-2.7728,-2.765,-2.6826,-2.6465,-2.6357,-2.6006,-2.5771,-2.5684,-2.5684,-2.5684,-2.5684,-2.5644,-2.5215,-2.4541,-2.4375,-2.3881,-2.3218,-2.313,-2.3101,-2.3101,-2.3101,-2.3101,-2.3101,-2.3101,-2.3101,-2.3101,-2.3101,-2.3101,-2.3101,-2.3101,-2.3101,-2.3101,-2.3101,-2.2886,-2.2519,0.0,0.0,0.0,-2.0896,-2.0779,-2.0595,-2.0789,-2.0779,-2.0595,-2.0789,0.0,-2.0605,-2.0615,-2.0732,-2.0917,-2.0644,0.0,0.0,0.0,0.0,0.0,0.0,0.0,0.0,0.0,0.0,0.0,-2.2266,-2.2305,-2.2432,-2.3818,-2.4746,-2.4871,-2.5156,-2.543,-2.5547,-2.5557,-2.5596,-2.5664,-2.541,-2.5204,-2.5049,-2.3522,-2.2428,-2.2355,-2.1924,-2.1614,-2.1702,-2.2448,-2.3047,-2.296,-2.3091,-2.2955,-2.2609,-2.2853,-2.2964,-2.2715,-2.2893,-2.3172,-2.3674,-2.3168,-2.3094,-2.3393,-2.3034,-2.2794,-2.3375,-2.3542,-2.3441,-2.3404,-2.3624,-2.3781,-2.3781,-2.46,-2.5264,-2.5264,-2.5908,-2.6568,-2.6692,-2.6837,-2.7149,-2.7041,0.0,-2.6338,-2.6064,0.0,-2.5057,-2.4716,-2.4756,-2.543,-2.5684,-2.5723,-2.5498,-2.5156,-2.4717,-2.4297,-2.3877,-2.3447,-2.3188,-2.3101,-2.3101,-2.3101,-2.3101,-2.3101,-2.3101,-2.3101,-2.3101,-2.3101,-2.3101,-2.3101,-2.3101,-2.3101,-2.3101,-2.3101,-2.2877,-2.2467,-2.1349,-2.0719,-2.0615,-2.0615,-2.0615,-2.0615,-2.0615,-2.0615,-2.0615,0.0,0.0,0.0,0.0,0.0,0.0,0.0,0.0,0.0,0.0,0.0,-2.0617,-2.0254,-2.0078,-2.0078,-2.0225,-2.0555,-2.0986,-2.1203,-2.1587,-2.2192,-2.3801,-2.4589,-2.4221,-2.4521,-2.4707,-2.4707,-2.3972,-2.3492,-2.3474,-2.3178,-2.2917,-2.2586,-2.1722,-2.0997,-2.0769,-2.057,-2.0395,-2.0395,-2.0899,-2.1266,-2.1311,-2.1311,-2.1283,-2.1218,-2.2236,-2.2945,-2.2568,-2.2305,-2.2275,-2.2412,-2.2012,-2.1685,-2.207,-2.1744,-2.1578,-2.1973,-2.2048,-2.2086,-2.2124,-2.2414,-2.2776,-2.285,-2.3551,-2.4264,-2.4301,-2.4648,-2.5016,-2.5052,-2.5791,-2.6589,-2.5867,-2.5669,-2.5201,-2.502,-2.4913,-2.3791,-2.3335,-2.3434,0.0,0.0,0.0,-2.4574,-2.4336,-2.4155,-2.3479,-2.3136,-2.305,-2.2663,-2.2457,-2.2448,-2.2457,-2.2457,-2.2448,-2.2457,-2.2457,-2.2457,-2.2457,-2.2457,-2.2457,-2.2457,-2.2457,-2.2457,-2.2448,-2.2258,-2.1769,-2.0149,-1.9543,-2.0076,-2.0039,-1.9991,-2.004,-2.004,-1.9991,-2.0031,-2.0031,-2.0029,-2.0115,-2.0417,-2.0503,-2.0303,-2.0626,-2.0813,-2.0857,-2.0292,-2.0076,-2.0403,-1.9872,-1.9497,-1.9497,-1.9497,-1.9497,-1.9497,-1.9807,-2.0505,-2.1737,-2.2982,-2.3495,-2.2808,-2.3041,-2.3171,-2.3171,-2.1987,-2.1154,-2.1097,-2.0878,-2.0537,-2.0168,-1.9772,-1.9532,-1.9234,-1.9185,-1.9185,-1.9177,-1.9451,-1.9497,-1.9542,-1.9716,-1.9497,-1.9745,-2.1193,-2.2399,-2.2434,-2.2109,-2.1807,-2.1826,-2.1512,-2.122,-2.129,-2.0948,-2.0625,-2.0615,-2.0615,-2.0615,-2.076,-2.126,-2.1669,-2.18,-2.2467,-2.311,-2.3135,-2.3215,-2.3268,-2.3413,-2.4555,-2.5669,-2.3963,-2.286,-2.2418,-2.2257,-2.2257,-2.2055,-2.2005,-2.2005,-2.2215,-2.207,-2.1822,-2.1763,-2.1389,-2.0832,-2.0674,-2.0415,-2.0119,-2.0068,-1.9997,0.0,-1.9988,-1.9988,-1.9988,-1.9988,-1.9997,-1.9997,-2.0034,-1.9997,-1.9988,-2.0042,-1.9997,-2.0042,-1.9997,-1.9802,-1.9272,-1.8455,-1.8104,-1.8178,-1.7907,-1.7779,-1.7779,-1.7747,-1.7738,-1.7787,-1.7779,-1.7899,-1.817,-1.8279,-1.8532,-1.9028,-1.9121,-1.9333,-1.9698,-1.9614,-1.9591,-1.9641,-1.9563,-1.9497,-1.9497,-1.9497,-1.9497,-1.9497,-1.9538,-1.9966,-2.0867,-2.1168,-2.1266,-2.1134,-2.1202,-2.121,-2.1193,-2.0918,-2.0692,-2.0716,-2.0417,-2.0121,-1.9953,-1.8793,-1.8024,-1.7971,-1.7963,-1.7956,-1.8048,-1.8772,-1.9268,-1.9405,-1.9085,-1.9405,-1.9459,-2.0009,-2.0994,-2.2009,-2.1785,-2.1502,-2.1436,-2.1463,-2.107,-2.12,-2.081,-2.0527,-2.0615,-2.0615,-2.0615,-2.0615,-2.0789,-2.0847,-2.0827,-2.1275,-2.1634,-2.1754,-2.199,-2.2278,-2.2267,-2.2673,-2.3236,-2.2511,-2.1993,-2.1768,-2.1693,-2.1651,-2.0888,-2.0128,-1.9517,-1.9465,-2.014,-2.1139,-2.0997,-2.0568,-2.0118,-1.9865,-1.9691,-1.9497,-1.9497,-1.9497,-1.9497,-1.9497,-1.9497,-1.9497,-1.9497,-1.9497,-1.9497,-1.9497,-1.9497,-1.9497,-1.9497,-1.9497,-1.948,-1.9253,-1.8705,-1.7924,-1.7247,-1.6572,-1.6069,-1.6865,-1.7302,-1.7302,-1.7302,-1.7302,-1.7302,-1.7302,-1.7466,-1.7795,-1.7992,-1.8329,-1.8794,-1.9044,-1.9278,-1.948,-1.8864,-1.8503,-1.8495,-1.7848,-1.7529,-1.7475,-1.7483,-1.7483,-1.7483,-1.7483,-1.7648,-1.8025,-1.955,-2.013,-1.9534,-1.9589,-1.9659,-1.9643,-1.8865,-1.8379,-1.8379,-1.7992,-1.7792,-1.773,-1.7171,-1.6669,-1.6669,-1.6669,-1.6669,-1.6669,-1.7163,-1.7483,-1.7483,-1.7529,-1.7708,-1.838,-1.8301,-1.8672,-1.9865,-1.9576,-1.92,-1.9389,-1.9241,-1.9326,-1.9888,-1.9848,-2.002,-2.0411,-2.0566,-2.0566,-2.0615,-2.0566,-2.0498,-2.0283,-2.0399,-2.0468,-2.0295,-2.0432,-2.0613,-2.0663,-2.081,-2.1557,-2.1041,-2.0786,-2.0786,-2.0786,-2.0684,-1.9627,-1.8558,-1.7635,-1.7635,-1.8626,-2.0098,-1.9907,-1.9558,-1.9209,-1.8822,-1.8672,-1.8672,-1.8672,-1.8664,-1.8664,-1.8672,-1.8672,-1.8672,-1.8672,-1.8672,-1.8672,-1.8672,-1.8672,-1.8664,-1.8593,-1.8553,-1.8522,-1.8194,-1.765,-1.6856,-1.6264,-1.5523,-1.4821,-1.5983,-1.6647,-1.6568,-1.6568,-1.6568,-1.6568,-1.6647,-1.6844,-1.7156,-1.753,-1.7825,-1.8118,-1.8476,-1.8672,-1.8626,-1.777,-1.7271,-1.7178,-1.6339,-1.5825,-1.5825,-1.5825,-1.5825,-1.5825,-1.5825,-1.5825,-1.5981,-1.7792,-1.8738,-1.7937,-1.7889,-1.8021,-1.7894,-1.7023,-1.6172,-1.6159,-1.5979,-1.5987,-1.5825,-1.5825,-1.5825,-1.5825,-1.5825,-1.5825,-1.5825,-1.5825,-1.5886,-1.5873,-1.5732,-1.6128,-1.6839,-1.6497,-1.6608,-1.7149,-1.7322,-1.7481,-1.7302,-1.7399,-1.7764,-1.851,-1.8598,-1.8908,-1.9471,-1.9795,-1.9835,-1.9708,-1.9896,-1.9812,-1.9592,-1.9585,-1.9482,-1.9288,-1.9219,-1.9078,-1.911,-1.9389,-2.0208,-1.9117,-1.8042,-1.8094,-1.7989,-1.8042,-1.7891,-1.7733,-1.7635,-1.7589,-1.7519,-1.7698,-1.7223,-1.6978,-1.6635,-1.6375,-1.6292,-1.6237,-1.615,-1.6244,-1.6237,-1.615,-1.615,-1.6292,-1.619,-1.615,-1.6237,-1.6285,-1.6379,-1.6365,-1.6023,-1.584,-1.5747,-1.572,-1.5876,-1.5886,-1.5629,-1.5389,-1.5304,-1.4933,-1.4643,-1.439,-1.4419,-1.4377,-1.4377,-1.4629,-1.4915,-1.5387,-1.5509,-1.5802,-1.6028,-1.617,-1.619,-1.615,-1.6062,-1.6015,-1.6015,-1.5872,-1.5825,-1.5825,-1.5825,-1.5825,-1.5825,-1.5825,-1.5825,-1.5825,-1.6082,-1.6191,-1.613,-1.6137,-1.6232,-1.6048,-1.5946,-1.5899,-1.5912,-1.5858,-1.5825,-1.5825,-1.5825,-1.5825,-1.5825,-1.5825,-1.5825,-1.5825,-1.5812,-1.5705,-1.5464,-1.5431,-1.5456,-1.5468,-1.5236,-1.4945,-1.5296,-1.6137,-1.7049,-1.7098,-1.7261,-1.718,-1.7374,-1.7464,-1.7658,-1.7859,-1.7874,-1.7649,-1.8201,-1.8214,-1.8504,-1.8476,-1.8601,-1.8621,-1.8311,-1.8177,-1.8095,-1.8149,-1.8473,-1.9374,-1.8101,-1.7589,-1.7589,-1.7589,-1.7589,-1.7589,-1.7589,-1.7589,-1.7589,-1.7515,-1.7407,-1.6914,-1.6547,-1.6259,-1.5959,-1.5825,-1.5825,-1.5825,-1.5825,-1.5825,-1.5825,-1.5825,-1.5825,-1.5825,-1.5825,-1.5825,-1.5825,-1.5825,-1.5778,-1.5538,-1.5311,-1.5202,-1.5182,-1.5291,-1.5531,-1.5291,-1.5224,-1.5378,-1.4997,-1.4767,-1.4626,-1.4262,-1.4168,-1.4335,-1.4462,-1.475,-1.517,-1.5344,-1.5524,-1.5798,-1.5825,-1.5825,-1.5825,-1.5825,-1.5825,-1.5825,-1.5825,-1.5825,-1.5825,-1.5825,-1.5825,-1.5825,-1.5825,-1.5825,-1.5825,-1.5825,-1.5825,-1.5825,-1.5825,-1.5825,-1.5825,-1.5825,-1.5825,-1.5825,-1.5825,-1.5825,-1.5825,-1.5825,-1.5825,-1.5825,-1.5825,-1.5825,-1.5798,-1.5678,-1.5464,-1.5211,-1.5144,-1.507,-1.4995,-1.4716,-1.4543,-1.4562,-1.5099,-1.5333,-1.547,-1.5394,-1.5718,-1.615,-1.6355,-1.6437,-1.7074,-1.7151,-1.7083,-1.7012,-1.7088,-1.7033,-1.6851,-1.6872,-1.6893,-1.6866,-1.716,-1.7173,-1.7182,-1.7737,-1.8513,-1.7589,-1.7589,-1.7589,-1.7589,-1.7589,-1.7589,-1.7589,-1.7589,-1.7589,-1.7535,-1.7408,-1.6927,-1.6547,-1.6259,-1.5965,-1.5825,-1.5825,-1.5825,-1.5825,-1.5825,-1.5825,-1.5825,-1.5825,-1.5825,-1.5825,-1.5825,-1.5825,-1.5698,-1.5598,-1.5391,-1.513,-1.4928,-1.4888,-1.499,-1.5237,-1.5169,-1.5229,-1.5357,-1.5184,-1.5122,-1.5017,-1.4589,-1.4429,-1.4616,-1.4643,-1.485,-1.5257,-1.5357,-1.5484,-1.5651,-1.5785,-1.5825,-1.5825,-1.5825,-1.5825,-1.5825,-1.5825,-1.5825,-1.5825,-1.5825,-1.5825,-1.5825,-1.5825,-1.5825,-1.5825,-1.5825,-1.5825,-1.5825,-1.5825,-1.5825,-1.5825,-1.5825,-1.5825,-1.5825,-1.5825,-1.5825,-1.5825,-1.5825,-1.5825,-1.5825,-1.5825,-1.5792,-1.5691,-1.5458,-1.517,-1.491,-1.4843,-1.4796,-1.4767,-1.4529,-1.4396,-1.4402,-1.4251,-1.4186,-1.4088,-1.425,-1.4531,-1.4894,-1.5255,-1.5511,-1.6257,-1.6139,-1.596,-1.5431,-1.5669,-1.577,-1.5629,-1.5487,-1.5591,-1.5457,-1.5728,-1.6219,-1.621,-1.6975,-1.7476,-1.7589,-1.7589,-1.7589,-1.7589,-1.7589,-1.7589,-1.7589,-1.7589,-1.7589,-1.7487,-1.7226,-1.6854,-1.6547,-1.6253,-1.5959,-1.5825,-1.5825,-1.5825,-1.5825,-1.5825,-1.5825,-1.5825,-1.5825,-1.5825,-1.5825,-1.5825,-1.5825,-1.5571,-1.5129,-1.5062,-1.483,-1.4569,-1.4563,-1.4696,-1.497,-1.5184,-1.5364,-1.5351,-1.5331,-1.5344,-1.5317,-1.5102,-1.4941,-1.4981,-1.4981,-1.4995,-1.5082,-1.5257,-1.5418,-1.5424,-1.5691,-1.5825,-1.5825,-1.5825,-1.5825,-1.5825,-1.5825,-1.5825,-1.5825,-1.5825,-1.5825,-1.5825,-1.5825,-1.5825,-1.5825,-1.5825,-1.5825,-1.5825,-1.5825,-1.5825,-1.5825,-1.5825,-1.5825,-1.5825,-1.5825,-1.5825,-1.5825,-1.5825,-1.5825,-1.5683,-1.5514,-1.5222,-1.5239,-1.5164,-1.464,-1.4359,-1.4361,-1.4245,-1.3919,-1.3936,-1.3881,-1.3838,-1.3848,-1.4046,-1.4046,-1.4088,-1.413,-1.437,-1.4531,-1.4307,-1.4107,-1.3999,-1.396,-1.3917,-1.4205,-1.4359,-1.438,-1.456,-1.4872,-1.4914,-1.495,-1.519,-1.5226,-1.6035,-1.6532,-1.7589,-1.7589,-1.7589,-1.7589,-1.7589,-1.7589,-1.7589,-1.7589,-1.7589,-1.7467,-1.7186,-1.6834,-1.6547,-1.6308,-1.5959,-1.5825,-1.5825,-1.5825,-1.5825,-1.5825,-1.5825,-1.5825,-1.5825,-1.5825,-1.5825,-1.5825,-1.5825,-1.5625,-1.5291,-1.5244,-1.499,-1.4546,-1.4516,-1.4583,-1.4683,-1.4776,-1.4923,-1.5104,-1.5169,-1.5117,-1.5078,-1.5062,-1.5044,-1.5217,-1.5057,-1.5095,-1.5231,-1.5344,-1.5478,-1.5665,-1.5731,-1.5825,-1.5825,-1.5825,-1.5825,-1.5825,-1.5825,-1.5825,-1.5825,-1.5825,-1.5825,-1.5825,-1.5825,-1.5825,-1.5825,-1.5825,-1.5825,-1.5825,-1.5825,-1.5825,-1.5825,-1.5825,-1.5778,-1.5825,-1.5778,-1.5683,-1.5825,-1.5778,-1.5486,-1.468,-1.3844,-1.3053,-1.2899,-1.2557,-1.2364,-1.2055,-1.1999,-1.2051,-1.1952,-1.1863,-1.1997,-1.1912,-1.1869,-1.2126,-1.2942,-1.3688,-1.413,-1.413,-1.411,-1.4025,-1.3848,-1.3561,-1.352,-1.333,-1.331,-1.3182,-1.3364,-1.338,-1.3702,-1.3702,-1.381,-1.4227,-1.4243,-1.501,-1.5458,-1.6234,-1.6227,-1.6227,-1.6227,-1.6227,-1.6227,-1.6499,-1.677,-1.6393,-1.6298,-1.6337,-1.6118,-1.5836,-1.5599,-1.5721,-1.5825,-1.5825,-1.5825,-1.5825,-1.5825,-1.5825,-1.5588,-1.5242,-1.5194,-1.4949,-1.4567,-1.4513,-1.4568,-1.4657,-1.4347,-1.3875,-1.3369,-1.3395,-1.3352,-1.3341,-1.3396,-1.3558,-1.3733,-1.3808,-1.3851,-1.3857,-1.3938,-1.3973,-1.4053,-1.3933,-1.4389,-1.5345,-1.5398,-1.5478,-1.5671,-1.5731,-1.5825,-1.5825,-1.5825,-1.5825,-1.5825,-1.5825,-1.5825,-1.5825,-1.5825,-1.5825,-1.5825,-1.5825,-1.5825,-1.5825,-1.5825,-1.5825,-1.5778,-1.5343,-1.5194,-1.5099,-1.4806,-1.4711,-1.4949,-1.4806,-1.4561,-1.4561,-1.4513,-1.4076,-1.3233,-1.2301,-1.1538,-1.1144,-1.1027,-1.0909,-1.0621,-1.0567,-1.0567,-1.0567,-1.0567,-1.0567,-1.0611,-1.074,-1.1085,-1.1558,-1.2254,-1.3464,-1.3682,-1.3754,-1.3677,-1.3485,-1.322,-1.3019,-1.2811,-1.2565,-1.2392,-1.2305,-1.2305,-1.2305,-1.2342,-1.2682,-1.3237,-1.3504,-1.3907,-1.4261,-1.3426,-1.3534,-1.3318,-1.3588,-1.3696,-1.3696,-1.4234,-1.5097,-1.4073,-1.4143,-1.4724,-1.4597,-1.4328,-1.4165,-1.4867,-1.5588,-1.5439,-1.5343,-1.5581,-1.5784,-1.5683,-1.5051,-1.4118,-1.3926,-1.3295,-1.2334,-1.2042,-1.2507,-1.3344,-1.2476,-1.1786,-1.1313,-1.1451,-1.1495,-1.092,-1.1448,-1.1413,-1.1455,-1.1695,-1.1705,-1.1569,-1.1863,-1.19,-1.1641,-1.1714,-1.2813,-1.5087,-1.5167,-1.5087,-1.5332,-1.5544,-1.5771,-1.5778,-1.5825,-1.5825,-1.5825,-1.5825,-1.5825,-1.5825,-1.5825,-1.5825,-1.5825,-1.5825,-1.573,-1.5581,-1.5581,-1.5534,-1.5194,-1.4507,-1.3872,-1.368,-1.2813,-1.2571,-1.3536,-1.3011,-1.2382,-1.2188,-1.1994,-1.1854,-1.1616,-1.1099,-1.1029,-1.0899,-1.0421,-1.012,-1.0101,-1.0135,-1.0091,-1.0005,-0.9961,-1.0351,-1.0351,-1.0005,-0.9918,-1.0265,-1.074,-1.2114,-1.3159,-1.3268,-1.3266,-1.3072,-1.2837,-1.2827,-1.2663,-1.2478,-1.2311,-1.2305,-1.2305,-1.2305,-1.2335,-1.2455,-1.244,-1.267,-1.2961,-1.3001,-1.3318,-1.3318,-1.3318,-1.3318,-1.3318,-1.3318,-1.3588,-1.3911,-1.3426,-1.3329,-1.3265,-1.3211,-1.2957,-1.2656,-1.2963,-1.3156,-1.3108,-1.3162,-1.4028,-1.5391,-1.4854,-1.4262,-1.3776,-1.2915,-1.2285,-1.1945,-1.1896,-1.206,-1.2234,-1.193,-1.1622,-1.1442,-1.1308,-1.124,-1.0903,-1.0965,-1.0915,-1.0875,-1.0965,-1.105,-1.102,-1.1176,-1.1311,-1.1453,-1.1472,-1.2047,-1.2874,-1.2831,-1.3249,-1.4271,-1.4464,-1.4854,-1.5588,-1.5825,-1.5825,-1.5825,-1.5825,-1.5825,-1.5784,-1.5778,-1.5683,-1.5778,-1.5778,-1.5343,-1.4603,-1.4513,-1.4076,-1.3355,-1.2721,-1.2522,-1.2328,-1.1361,-1.1214,-1.2377,-1.2139,-1.175,-1.1599,-1.1063,-1.0518,-1.0092,-0.9279,-0.8665,-0.8463,-0.8288,-0.8416,-0.84,-0.8356,-0.836,-0.8269,-0.844,-0.8185,-0.8185,-0.8273,-0.875,-0.9144,-0.9456,-1.0186,-1.1376,-1.1881,-1.2264,-1.2203,-1.2181,-1.2266,-1.245,-1.2304,-1.2318,-1.2311,-1.2305,-1.2305,-1.2245,-1.2244,-1.2152,-1.1962,-1.2011,-1.2185,-1.1647,-1.1647,-1.1647,-1.1647,-1.1647,-1.1647,-1.2028,-1.2335,-1.1833,-1.1672,-1.1803,-1.1741,-1.1527,-1.1364,-1.1658,-1.1896,-1.1896,-1.1896,-1.277,-1.4082,-1.359,-1.2952,-1.2377,-1.1063,-1.0774,-1.1023,-1.0681,-1.073,-1.117,-1.0676,-1.0369,-1.0211,-1.0193,-1.0049,-0.9874,-0.9747,-0.9664,-0.9644,-0.959,-0.9581,-0.962,-0.9764,-0.996,-1.0074,-1.0158,-1.0255,-1.0422,-1.0259,-1.1115,-1.2732,-1.3151,-1.359,-1.4274,-1.4322,-1.437,-1.437,-1.4328,-1.4322,-1.437,-1.4172,-1.437,-1.437,-1.437,-1.4028,-1.3295,-1.3156,-1.2673,-1.2091,-1.1458,-1.1219,-1.1019,-1.0047,-0.9752,-1.0337,-1.0386,-1.0435,-1.0333,-0.9739,-0.9191,-0.8748,-0.819,-0.7567,-0.7305,-0.7227,-0.7193,-0.7119,-0.7095,-0.7095,-0.7095,-0.7183,-0.7139,-0.7139,-0.7401,-0.7837,-0.8105,-0.8317,-0.8418,-0.9301,-1.0218,-1.064,-1.0847,-1.0883,-1.0948,-1.1658,-1.1811,-1.2238,-1.2305,-1.2305,-1.2298,-1.2191,-1.2045,-1.208,-1.1966,-1.1672,-1.1683,-0.8937,-0.8937,-0.8937,-0.9154,-0.9154,-0.9154,-0.9915,-1.0643,-0.9533,-0.9576,-1.0327,-1.0263,-1.0025,-1.0175,-1.0877,-1.1263,-1.1609,-1.1361,-1.1312,-1.1604,-1.1507,-1.1019,-1.0047,-0.897,-0.9019,-0.9558,-0.8775,-0.8825,-0.9801,-0.892,-0.8038,-0.8315,-0.835,-0.8016,-0.8174,-0.7907,-0.8006,-0.7994,-0.7842,-0.7842,-0.7849,-0.7941,-0.8018,-0.808,-0.8199,-0.8322,-0.8375,-0.8411,-0.9391,-1.1409,-1.1945,-1.2139,-1.2042,-1.1945,-1.2188,-1.2237,-1.1994,-1.2139,-1.2042,-1.2334,-1.2285,-1.2334,-1.2334,-1.1848,-1.1848,-1.1799,-1.1604,-1.1219,-1.0435,-0.9899,-0.9657,-0.8924,-0.8283,-0.8088,-0.8478,-0.8432,-0.8124,-0.8021,-0.8087,-0.7938,-0.7689,-0.7543,-0.7433,-0.7353,-0.7282,-0.7139,-0.7095,-0.7095,-0.7095,-0.7095,-0.7095,-0.7095,-0.7095,-0.7228,-0.7665,-0.7621,-0.7716,-0.7968,-0.8718,-0.9068,-0.9664,-0.9804,-1.0003,-1.0669,-1.1279,-1.1774,-1.2003,-1.1781,-1.1811,-1.181,-1.1819,-1.2015,-1.1931,-1.1637,-1.1342,-0.8937,-0.8937,-0.8937,-0.8937,-0.8937,-0.8937,-0.9103,-0.9405,-0.8988,-0.8877,-0.9041,-0.8889,-0.8772,-0.8588,-0.892,-0.9019,-0.9164,-0.9164,-0.9019,-0.9015,-0.9019,-0.8874,-0.8581,-0.8237,-0.8184,-0.8482,-0.8233,-0.8187,-0.8478,-0.8184,-0.7988,-0.7988,-0.7988,-0.7975,-0.7924,-0.7872,-0.7801,-0.776,-0.7753,-0.7756,-0.7777,-0.785,-0.7928,-0.7934,-0.7968,-0.7988,-0.7988,-0.7988,-0.8726,-1.0342,-1.1458,-1.1896,-1.175,-1.175,-1.1653,-1.1653,-1.175,-1.1848,-1.1799,-1.1799,-1.1848,-1.1896,-1.1653,-1.1458,-1.0583,-1.0485,-0.9998,-0.9312,-0.8627,-0.8577,-0.8528,-0.8233,-0.7988,-0.7988,-0.7988,-0.7988,-0.7982,-0.7955,-0.794,-0.7834,-0.778,-0.7645,-0.7475,-0.738,-0.7326,-0.72,-0.7102,-0.7095,-0.7095,-0.7095,-0.7095,-0.7095,-0.7095,-0.7095,-0.716,-0.7074,-0.7001,-0.6958,-0.7297,-0.7573,-0.832,-0.8937,-0.9273,-0.9744,-1.0121,-1.0614,-1.0614,-1.0496,-1.0795,-1.1168,-1.142,-1.1531,-1.1748,-1.1615,-1.1328,-0.8937,-0.8937,-0.8937,-0.8937,-0.8937,-0.8937,-0.8937,-0.8838,-0.8706,-0.8567,-0.8452,-0.8258,-0.8073,-0.7992,-0.8038,-0.7988,-0.7988,-0.7988,-0.8038,-0.8038,-0.8088,-0.8088,-0.8038,-0.7988,-0.7988,-0.7988,-0.7988,-0.7988,-0.8038,-0.7988,-0.7988,-0.7988,-0.7988,-0.7988,-0.7978,-0.7914,-0.7906,-0.7909,-0.7909,-0.7906,-0.7867,-0.7941,-0.7978,-0.7988,-0.7988,-0.7988,-0.7988,-0.7988,-0.8382,-0.9167,-0.985,-1.0239,-1.0239,-1.0288,-1.0288,-1.0239,-1.0239,-1.0243,-1.0239,-1.0239,-1.0239,-1.0239,-1.0243,-0.9948,-0.9312,-0.9167,-0.8676,-0.8237,-0.7988,-0.7988,-0.7988,-0.7988,-0.7988,-0.7988,-0.7988,-0.7988,-0.7988,-0.7985,-0.7951,-0.7936,-0.7896,-0.7824,-0.758,-0.7506,-0.7394,-0.7275,-0.7177,-0.7156,-0.7095,-0.7095,-0.7095,-0.7095,-0.7095,-0.7095,-0.7058,-0.698,-0.6878,-0.675,-0.6629,-0.6756,-0.7247,-0.8046,-0.8389,-0.8732,-0.9031,-0.9296,-0.9372,-0.9556,-0.9933,-1.0301,-1.0698,-1.0979,-1.1153,-1.142,-1.119,-0.8937,-0.8937,-0.8937,-0.8937,-0.8937,-0.8937,-0.8937,-0.8882,-0.8655,-0.8513,-0.8431,-0.8191,-0.8035,-0.7988,-0.7988,-0.7988,-0.7988,-0.7988,-0.7988,-0.7988,-0.7988,-0.7988,-0.7988,-0.7988,-0.7988,-0.7988,-0.7988,-0.7988,-0.7988,-0.7988,-0.7988,-0.7988,-0.7988,-0.7988,-0.7988,-0.7978,-0.7985,-0.7971,-0.7965,-0.7961,-0.7961,-0.7982,-0.7988,-0.7988,-0.7988,-0.7988,-0.7988,-0.7988,-0.8088,-0.8038,-0.7988,-0.8237,-0.8184,-0.8084,-0.8134,-0.8287,-0.8428,-0.8333,-0.8137,-0.8379,-0.8184,-0.8333,-0.8283,-0.7988,-0.8187,-0.8233,-0.8137,-0.8038,-0.7988,-0.7988,-0.7988,-0.7988,-0.7988,-0.7988,-0.7988,-0.7988,-0.7988,-0.7988,-0.7988,-0.7988,-0.7985,-0.7914,-0.7834,-0.7695,-0.7553,-0.7339,-0.7248,-0.7204,-0.7122,-0.7095,-0.7095,-0.7095,-0.7095,-0.7095,-0.7041,-0.6977,-0.6851,-0.6671,-0.648,-0.6489,-0.6602,-0.7138,-0.7442,-0.7744,-0.7897,-0.8199,-0.8466,-0.8732,-0.9069,-0.9324,-0.967,-1.0028,-1.0375,-1.0772,-1.0814,-0.8937,-0.8937,-0.8937,-0.8937,-0.8937,-0.8937,-0.8937,-0.892,-0.874,-0.8574,-0.8459,-0.8292,-0.815,-0.7988,-0.7988,-0.7988,-0.7988,-0.7988,-0.7988,-0.7988,-0.7988,-0.7988,-0.7988,-0.7988,-0.7988,-0.7988,-0.7988,-0.7988,-0.7988,-0.7988,-0.7988,-0.7988,-0.7988,-0.7988,-0.7988,-0.7988,-0.7988,-0.7988,-0.7988,-0.7988,-0.7988,-0.7988,-0.7988,-0.7988,-0.7988,-0.7988,-0.7988,-0.7988,-0.7988,-0.7988,-0.7988,-0.7988,-0.7988,-0.7988,-0.7988,-0.7988,-0.7988,-0.7988,-0.7988,-0.7988,-0.7988,-0.7988,-0.7988,-0.7988,-0.7988,-0.7988,-0.7988,-0.7988,-0.7988,-0.7988,-0.7988,-0.7988,-0.7988,-0.7988,-0.7988,-0.7988,-0.7988,-0.7988,-0.7988,-0.7988,-0.7985,-0.7934,-0.7838,-0.7797,-0.7641,-0.7431,-0.7326,-0.7261,-0.721,-0.7115,-0.7095,-0.7095,-0.7095,-0.7092,-0.7058,-0.6964,-0.6824,-0.6654,-0.6474,-0.6306,-0.6423,-0.6454,-0.6834,-0.6834,-0.6679,-0.7022,-0.7557,-0.7825,-0.8127,-0.8389,-0.8656,-0.9069,-0.9497,-0.9979,-1.0452,-0.8937,-0.8937,-0.8937,-0.8937,-0.8937,-0.8937,-0.8937,-0.8893,-0.8693,-0.8557,-0.8448,-0.8262,-0.8116,-0.7992,-0.7988,-0.7988,-0.7988,-0.7988,-0.7988,-0.7988,-0.7988,-0.7988,-0.7988,-0.7988,-0.7988,-0.7988,-0.7988,-0.7988,-0.7988,-0.7988,-0.7988,-0.7988,-0.7988,-0.7988,-0.7988,-0.7988,-0.7988,-0.7988,-0.7988,-0.7988,-0.7988,-0.7988,-0.7988,-0.7988,-0.7988,-0.7988,-0.7988,-0.7988,-0.7988,-0.7988,-0.7988,-0.7988,-0.7988,-0.7988,-0.7988,-0.7988,-0.7988,-0.7988,-0.7988,-0.7988,-0.7988,-0.7988,-0.7988,-0.7988,-0.7988,-0.7988,-0.7988,-0.7988,-0.7988,-0.7988,-0.7988,-0.7988,-0.7988,-0.7988,-0.7988,-0.7988,-0.7988,-0.7988,-0.7988,-0.7988,-0.7988,-0.7958,-0.7943,-0.7875,-0.7794,-0.7611,-0.7446,-0.7329,-0.7275,-0.7224,-0.7112,-0.7095,-0.7095,-0.7088,-0.7065,-0.695,-0.68,-0.6634,-0.6461,-0.6371,-0.6352,-0.6345,-0.6335,-0.6335,-0.6374,-0.6335,-0.6795,-0.6988,-0.7176,-0.7253,-0.7518,-0.8008,-0.8452,-0.8831,-0.9338,-0.8937,-0.8937,-0.8937,-0.8937,-0.8937,-0.8937,-0.892,-0.8859,-0.8635,-0.8509,-0.8411,-0.8174,-0.8099,-0.7995,-0.7988,-0.7988,-0.7988,-0.7988,-0.7988,-0.7988,-0.7988,-0.7988,-0.7988,-0.7988,-0.7988,-0.7988,-0.7988,-0.7988,-0.7988,-0.7988,-0.7988,-0.7988,-0.7988,-0.7988,-0.7988,-0.7988,-0.7988,-0.7988,-0.7988,-0.7988,-0.7988,-0.7988,-0.7988,-0.7988,-0.7988,-0.7988,-0.7988,-0.7988,-0.7988,-0.7988,-0.7988,-0.7988,-0.7988,-0.7988,-0.7988,-0.7988,-0.7988,-0.7988,-0.7988,-0.7988,-0.7988,-0.7988,-0.7988,-0.7988,-0.7988,-0.7988,-0.7988,-0.7988,-0.7988,-0.7988,-0.7988,-0.7988,-0.7988,-0.7988,-0.7988,-0.7988,-0.7988,-0.7988,-0.7988,-0.7988,-0.7988,-0.7968,-0.7941,-0.7891,-0.7875,-0.7784,-0.757,-0.746,-0.7366,-0.7299,-0.7238,-0.7129,-0.7129,-0.7102,-0.7075,-0.6991,-0.6831,-0.6719,-0.6542,-0.6474,-0.6388,-0.6375,-0.6371,-0.6306,-0.63,-0.63,-0.63,-0.6528,-0.6567,-0.6296,-0.6528,-0.7138,-0.748,-0.7672,-0.83,-0.8937,-0.8937,-0.8937,-0.8937,-0.8937,-0.8937,-0.8814,-0.8754,-0.8686,-0.8526,-0.8316,-0.8248,-0.814,-0.8019,-0.7988,-0.7988,-0.7988,-0.7988,-0.7988,-0.7988,-0.7988,-0.7988,-0.7988,-0.7988,-0.7988,-0.7988,-0.7988,-0.7988,-0.7988,-0.7988,-0.7988,-0.7988,-0.7988,-0.7988,-0.7988,-0.7988,-0.7988,-0.7988,-0.7988,-0.7988,-0.7988,-0.7988,-0.7988,-0.7988,-0.7988,-0.7988,-0.7988,-0.7988,-0.7988,-0.7988,-0.7988,-0.7988,-0.7988,-0.7988,-0.7988,-0.7988,-0.7988,-0.7988,-0.7988,-0.7988,-0.7988,-0.7988,-0.7988,-0.7988,-0.7988,-0.7988,-0.7988,-0.7988,-0.7988,-0.7988,-0.7988,-0.7988,-0.7988,-0.7988,-0.7988,-0.7988,-0.7988,-0.7988,-0.7988,-0.7988,-0.7988,-0.7988,-0.7961,-0.7938,-0.7943,-0.7872,-0.7733,-0.7604,-0.7543,-0.7448,-0.735,-0.7278,-0.7173,-0.7132,-0.7092,-0.6991,-0.6905,-0.6854,-0.6719,-0.659,-0.6552,-0.6501,-0.6457,-0.6426,-0.6347,-0.63,-0.63,-0.63,-0.63,-0.63,-0.6338,-0.6377,-0.676,-0.7138,-0.748,-0.8937,-0.8937,-0.8937,-0.8937,-0.8937,-0.8937,-0.8852,-0.8713,-0.8625,-0.8476,-0.8299,-0.8187,-0.8062,-0.8002,-0.7988,-0.7988,-0.7988,-0.7988,-0.7988,-0.7988,-0.7988,-0.7988,-0.7988,-0.7988,-0.7988,-0.7988,-0.7988,-0.7988,-0.7988,-0.7988,-0.7988,-0.7988,-0.7988,-0.7988,-0.7988,-0.7988,-0.7988,-0.7988,-0.7988,-0.7988,-0.7988,-0.7988,-0.7988,-0.7988,-0.7988,-0.7988,-0.7988,-0.7988,-0.7988,-0.7988,-0.7988,-0.7988,-0.7988,-0.7988,-0.7988,-0.7988,-0.7988,-0.7988,-0.7988,-0.7988,-0.7988,-0.7988,-0.7988,-0.7988,-0.7988,-0.7988,-0.7988,-0.7988,-0.7988,-0.7988,-0.7988,-0.7988,-0.7988,-0.7988,-0.7988,-0.7988,-0.7988,-0.7988,-0.7988,-0.7988,-0.7988,-0.7988,-0.7988,-0.7965,-0.7948,-0.7887,-0.7813,-0.779,-0.7716,-0.76,-0.7475,-0.7329,-0.7244,-0.7132,-0.7095,-0.7034,-0.6947,-0.6943,-0.6888,-0.6759,-0.6661,-0.6607,-0.6576,-0.6549,-0.6451,-0.6364,-0.6303,-0.6306,-0.6303,-0.63,-0.63,-0.6338,-0.6416,-0.6644,-0.7022,-0.8937,-0.8937,-0.8848,-0.8838,-0.8831,-0.8801,-0.8754,-0.8618,-0.8492,-0.8408,-0.8218,-0.8106,-0.7995,-0.7988,-0.7988,-0.7988,-0.7988,-0.7988,-0.7988,-0.7988,-0.7988,-0.7988,-0.7988,-0.7988,-0.7988,-0.7988,-0.7988,-0.7988,-0.7988,-0.7988,-0.7988,-0.7988,-0.7988,-0.7988,-0.7988,-0.7988,-0.7988,-0.7988,-0.7988,-0.7988,-0.7988,-0.7988,-0.7988,-0.7988,-0.7988,-0.7988,-0.7988,-0.7988,-0.7988,-0.7988,-0.7988,-0.7988,-0.7988,-0.7988,-0.7988,-0.7988,-0.7988,-0.7988,-0.7988,-0.7988,-0.7988,-0.7988,-0.7988,-0.7988,-0.7988,-0.7988,-0.7988,-0.7988,-0.7988,-0.7988,-0.7988,-0.7988,-0.7988,-0.7988,-0.7988,-0.7988,-0.7988,-0.7988,-0.7988,-0.7988,-0.7988,-0.7939,-0.7889,-0.7988,-0.7965,-0.7958,-0.7887,-0.7874,-0.7845,-0.7729,-0.759,-0.739,-0.7261,-0.7177,-0.7095,-0.7095,-0.7024,-0.7021,-0.6947,-0.6873,-0.6824,-0.6746,-0.6719,-0.6678,-0.6559,-0.648,-0.6399,-0.6317,-0.6303,-0.63,-0.63,-0.63,-0.6377,-0.6377,-0.6567,-0.8937,-0.8868,-0.8794,-0.8737,-0.8662,-0.8604,-0.8462,-0.8343,-0.8319,-0.8208,-0.8035,-0.8005,-0.7988,-0.7988,-0.7988,-0.7988,-0.7988,-0.7988,-0.7988,-0.7988,-0.7988,-0.7988,-0.7988,-0.7988,-0.7988,-0.7988,-0.7988,-0.7988,-0.7988,-0.7988,-0.7988,-0.7988,-0.7988,-0.7988,-0.7988,-0.7988,-0.7988,-0.7988,-0.7988,-0.7988,-0.7988,-0.7988,-0.7988,-0.7988,-0.7988,-0.7988,-0.7988,-0.7988,-0.7988,-0.7988,-0.7988,-0.7988,-0.7988,-0.7988,-0.7988,-0.7988,-0.7988,-0.7988,-0.7988,-0.7988,-0.7988,-0.7988,-0.7988,-0.7988,-0.7988,-0.7988,-0.7988,-0.7988,-0.7988,-0.7988,-0.7988,-0.7988,-0.7988,-0.7988,-0.7988,-0.7988,-0.7988,-0.7988,-0.7988,-0.7786,-0.7736,-0.7736,-0.7736,-0.7889,-0.7985,-0.7982,-0.7975,-0.7855,-0.7605,-0.7191,-0.69,-0.6494,-0.6272,-0.6185,-0.6097,-0.6228,-0.6369,-0.6508,-0.6711,-0.6736,-0.6668,-0.6541,-0.6831,-0.677,-0.6664,-0.659,-0.6529,-0.6441,-0.6358,-0.631,-0.6323,-0.6313,-0.63,-0.63,-0.63,-0.6929,-0.7704,-0.8409,-0.8173,-0.7611,-0.8187,-0.8456,-0.8344,-0.832,-0.8184,-0.8008,-0.7988,-0.7988,-0.7988,-0.7988,-0.7988,-0.7988,-0.7988,-0.7988,-0.7988,-0.7988,-0.7988,-0.7988,-0.7988,-0.7988,-0.7988,-0.7988,-0.7988,-0.7988,-0.7988,-0.7988,-0.7988,-0.7988,-0.7988,-0.7988,-0.7988,-0.7988,-0.7988,-0.7988,-0.7988,-0.7988,-0.7988,-0.7988,-0.7988,-0.7988,-0.7988,-0.7988,-0.7988,-0.7988,-0.7988,-0.7988,-0.7988,-0.7988,-0.7988,-0.7988,-0.7988,-0.7988,-0.7988,-0.7988,-0.7992,-0.7988,-0.7988,-0.7988,-0.7988,-0.7988,-0.7988,-0.7988,-0.7988,-0.7988,-0.7988,-0.7988,-0.7988,-0.7988,-0.7988,-0.7988,-0.7988,-0.7988,-0.7988,-0.7939,-0.7686,-0.7385,-0.7182,-0.7083,-0.7282,-0.7332,-0.7381,-0.7077,-0.6716,-0.6226,-0.5613,-0.5352,-0.5093,-0.4955,-0.4829,-0.4755,-0.4737,-0.4788,-0.5031,-0.5783,-0.5855,-0.6154,-0.6278,-0.6529,-0.6797,-0.6829,-0.6797,-0.6715,-0.6566,-0.6413,-0.6399,-0.6358,-0.6334,-0.6313,-0.63,-0.6296,-0.4906,-0.5694,-0.7037,-0.6929,-0.6053,-0.6969,-0.7264,-0.7184,-0.7122,-0.7276,-0.7609,-0.7786,-0.7988,-0.7988,-0.7988,-0.7988,-0.7988,-0.7988,-0.7988,-0.7988,-0.7988,-0.7988,-0.7988,-0.7988,-0.7988,-0.7988,-0.7988,-0.7988,-0.7988,-0.7988,-0.7988,-0.7988,-0.7988,-0.7988,-0.7988,-0.7988,-0.7988,-0.7988,-0.7988,-0.7988,-0.7988,-0.7988,-0.7988,-0.7988,-0.7988,-0.7988,-0.7988,-0.7988,-0.7988,-0.7988,-0.7988,-0.7988,-0.7988,-0.7988,-0.8025,-0.8099,-0.8123,-0.8116,-0.8099,-0.8079,-0.7998,-0.7988,-0.7988,-0.7988,-0.7988,-0.7988,-0.7988,-0.7988,-0.7988,-0.7988,-0.7988,-0.7988,-0.7988,-0.7988,-0.7988,-0.7988,-0.7939,-0.7736,-0.7434,-0.6983,-0.6531,-0.5977,-0.6077,-0.6476,-0.6628,-0.6681,-0.6276,-0.5625,-0.4939,-0.4254,-0.4215,-0.4123,-0.4087,-0.399,-0.3924,-0.3755,-0.3579,-0.3638,-0.4399,-0.483,-0.5043,-0.5656,-0.6201,-0.6486,-0.6652,-0.6953,-0.6873,-0.6709,-0.6512,-0.6484,-0.6416,-0.6358,-0.6327,-0.6313,-0.63,-0.3734,-0.2647,-0.3941,-0.4455,-0.4391,-0.4313,-0.4384,-0.4688,-0.4531,-0.5186,-0.6232,-0.7285,-0.7789,-0.7939,-0.7939,-0.7988,-0.7988,-0.7988,-0.7988,-0.7988,-0.7988,-0.7988,-0.7988,-0.7988,-0.7988,-0.7988,-0.7988,-0.7988,-0.7988,-0.7988,-0.7988,-0.7988,-0.7988,-0.7988,-0.7988,-0.7988,-0.7988,-0.7988,-0.7988,-0.7988,-0.7988,-0.7988,-0.7988,-0.7988,-0.7988,-0.7988,-0.7988,-0.7988,-0.7988,-0.7988,-0.8015,-0.8022,-0.8032,-0.8056,-0.8163,-0.8228,-0.8252,-0.8252,-0.8238,-0.8143,-0.8055,-0.7992,-0.7988,-0.7988,-0.7988,-0.7988,-0.7988,-0.7988,-0.7988,-0.7988,-0.7988,-0.7988,-0.7988,-0.7889,-0.7786,-0.7484,-0.7385,-0.7232,-0.688,-0.6329,-0.5625,-0.4772,-0.4171,-0.437,-0.512,-0.527,-0.472,-0.4067,-0.3704,-0.318,-0.3354,-0.3366,-0.3412,-0.3367,-0.3402,-0.3136,-0.2632,-0.2657,-0.3244,-0.3582,-0.3735,-0.4538,-0.5478,-0.5628,-0.5752,-0.6441,-0.6963,-0.6517,-0.6255,-0.6421,-0.6484,-0.6417,-0.6399,-0.6364,-0.6334,-0.1384,-0.0917,-0.1426,-0.2085,-0.2945,-0.3677,-0.4016,-0.4016,-0.4016,-0.4266,-0.487,-0.6126,-0.6781,-0.6983,-0.7739,-0.7988,-0.7988,-0.7988,-0.7988,-0.7988,-0.7988,-0.7988,-0.7988,-0.7988,-0.7988,-0.7988,-0.7988,-0.7988,-0.7988,-0.7988,-0.7988,-0.7988,-0.7988,-0.7988,-0.7988,-0.7988,-0.7988,-0.7988,-0.7988,-0.7988,-0.7988,-0.7988,-0.7988,-0.7988,-0.7988,-0.7988,-0.7988,-0.7988,-0.7988,-0.8012,-0.8126,-0.8157,-0.8184,-0.8241,-0.8319,-0.8387,-0.8397,-0.8401,-0.8377,-0.8262,-0.8147,-0.7998,-0.7988,-0.7998,-0.8012,-0.7995,-0.7988,-0.7988,-0.7988,-0.7988,-0.7988,-0.7988,-0.7939,-0.7786,-0.7434,-0.693,-0.6628,-0.6376,-0.5772,-0.4972,-0.4019,-0.3116,-0.2515,-0.2063,-0.2964,-0.3715,-0.3115,0.0,0.0,0.0,0.0,0.0,0.0,0.0,0.0,0.0,0.0,-0.1778,-0.2142,-0.2312,-0.2573,-0.3524,-0.433,-0.4484,-0.476,-0.5272,-0.562,-0.5843,-0.6104,-0.6489,-0.6583,-0.6556,-0.6485,-0.6439,-0.6412,0.0,0.0,0.0,-0.0504,-0.1511,-0.2413,-0.2814,-0.2814,-0.2714,-0.3115,-0.3515,-0.477,-0.5677,-0.6179,-0.6833,-0.7736,-0.7889,-0.7988,-0.7988,-0.7988,-0.7988,-0.7988,-0.7988,-0.7988,-0.7988,-0.7988,-0.7988,-0.7988,-0.7988,-0.7988,-0.7988,-0.7988,-0.7988,-0.7988,-0.7988,-0.7988,-0.7988,-0.7988,-0.7988,-0.7988,-0.7988,-0.7988,-0.7988,-0.7988,-0.7988,-0.7988,-0.7988,-0.7988,-0.7988,-0.8035,-0.816,-0.8252,-0.8368,-0.8394,-0.8489,-0.8533,-0.855,-0.8554,-0.8516,-0.8414,-0.8292,-0.8225,-0.8201,-0.8174,-0.8123,-0.8102,-0.8116,-0.7988,-0.7988,-0.7988,-0.7889,-0.7637,-0.7282,-0.693,-0.5924,-0.537,-0.527,-0.5018,-0.4268,-0.3516,-0.2715,0.0,0.0,0.0,0.0,0.0,0.0,0.0,0.0,0.0,0.0,0.0,0.0,0.0,0.0,0.0,0.0,-0.0765,-0.1047,-0.1137,-0.156,-0.2475,-0.309,-0.3194,-0.3489,-0.397,-0.4373,-0.4748,-0.5643,-0.6675,-0.6635,-0.6537,-0.6614,-0.6579,-0.6512,0.0,0.0,0.0,0.0,0.0,0.0,0.0,0.0,0.0,-0.1008,-0.2163,-0.3466,-0.4668,-0.5475,-0.5827,-0.6478,-0.7232,-0.7534,-0.7534,-0.7385,-0.7534,-0.7786,-0.7889,-0.7839,-0.7988,-0.7988,-0.7988,-0.7988,-0.7988,-0.7988,-0.7988,-0.7988,-0.7988,-0.7988,-0.7988,-0.7988,-0.7988,-0.7988,-0.7988,-0.7988,-0.7992,-0.8005,-0.8025,-0.8029,-0.8032,-0.8085,-0.8035,-0.7998,-0.8005,-0.8059,-0.8228,-0.8313,-0.8357,-0.8476,-0.8591,-0.8693,-0.8703,-0.8706,-0.8696,-0.856,-0.8482,-0.8418,-0.8367,-0.8353,-0.8286,-0.8252,-0.8204,-0.8119,-0.7872,-0.7802,-0.749,-0.683,-0.6329,-0.5724,-0.4718,-0.4017,-0.3865,-0.3366,-0.2564,-0.2163,-0.1963,0.0,0.0,0.0,0.0,0.0,0.0,0.0,0.0,0.0,0.0,0.0,0.0,0.0,0.0,0.0,0.0,0.0,0.0,0.0,0.0,-0.1304,-0.1731,0.0,-0.2227,-0.2683,-0.319,-0.3671,-0.4685,-0.5662,-0.6357,-0.646,-0.6587,-0.6685,-0.6654,0.0,0.0,0.0,0.0,0.0,0.0,0.0,0.0,0.0,0.0,-0.0857,-0.2113,-0.2814,-0.3468,-0.432,-0.497,-0.537,-0.537,-0.537,-0.5522,-0.6276,-0.6581,-0.6883,-0.7487,-0.7889,-0.7988,-0.7988,-0.7988,-0.7988,-0.7988,-0.7988,-0.7988,-0.7988,-0.7988,-0.7988,-0.7988,-0.7988,-0.7988,-0.7988,-0.7992,-0.8005,-0.8133,-0.8194,-0.8194,-0.8194,-0.8194,-0.8184,-0.8076,-0.8066,-0.8197,-0.8333,-0.8442,-0.8533,-0.8672,-0.8784,-0.8849,-0.8855,-0.8807,-0.8804,-0.8788,-0.8682,-0.8577,-0.8503,-0.8489,-0.8414,-0.8408,-0.8326,-0.7977,-0.742,-0.7128,-0.645,-0.5377,-0.472,-0.4418,-0.3615,-0.2914,-0.2413,-0.1561,-0.0857,-0.0756,-0.0605,0.0,0.0,0.0,0.0,0.0,0.0,0.0,0.0,0.0,0.0,0.0,0.0,0.0,0.0,0.0,0.0,0.0,0.0,0.0,0.0,0.0,0.0,0.0,0.0,-0.1391,-0.2028,-0.2731,-0.3622,-0.4486,-0.5032,-0.5826,-0.6214,-0.6486,-0.6793,0.0,0.0,0.0,0.0,0.0,0.0,0.0,0.0,0.0,0.0,0.0,-0.0958,-0.1661,-0.2213,-0.2815,-0.3767,-0.3915,-0.4016,-0.4016,-0.4116,-0.4818,-0.5575,-0.6229,-0.6783,-0.7033,-0.7385,-0.7739,-0.7839,-0.7285,-0.7786,-0.7988,-0.7988,-0.7988,-0.7988,-0.7988,-0.7988,-0.7988,-0.8005,-0.8082,-0.8136,-0.8177,-0.8248,-0.8391,-0.8395,-0.8395,-0.8398,-0.8319,-0.8275,-0.8235,-0.8353,-0.8476,-0.8598,-0.873,-0.8838,-0.8927,-0.8937,-0.8881,-0.8878,-0.8871,-0.8868,-0.8804,-0.8699,-0.8645,-0.8611,-0.8577,-0.856,-0.8476,-0.8024,-0.6987,-0.6392,-0.5807,-0.4568,-0.3342,-0.2988,-0.2371,-0.1667,0.0,0.0,0.0,0.0,0.0,0.0,0.0,0.0,0.0,0.0,0.0,0.0,0.0,0.0,0.0,0.0,0.0,0.0,0.0,0.0,0.0,0.0,0.0,0.0,0.0,0.0,0.0,0.0,0.0,0.0,0.0,-0.1751,-0.2362,-0.292,-0.343,-0.4406,-0.5529,-0.6007,-0.6276,0.0,0.0,0.0,0.0,0.0,0.0,0.0,0.0,0.0,0.0,0.0,0.0,-0.0706,-0.1711,-0.1963,-0.2464,-0.3215,-0.3465,-0.3416,-0.3615,-0.3717,-0.457,-0.5222,-0.5727,-0.5927,-0.6331,-0.6651,-0.6575,-0.6145,-0.7021,-0.7625,-0.7988,-0.7988,-0.7988,-0.7988,-0.7988,-0.8005,-0.8106,-0.817,-0.8231,-0.8292,-0.8411,-0.8476,-0.8492,-0.8545,-0.8489,-0.8472,-0.8445,-0.8452,-0.8523,-0.8621,-0.8686,-0.8767,-0.8862,-0.891,-0.8937,-0.8937,-0.8937,-0.8937,-0.8937,-0.8933,-0.8855,-0.8882,-0.8835,-0.8767,-0.8656,-0.8418,-0.7743,-0.6732,-0.6235,-0.5599,-0.3769,-0.1957,-0.1435,-0.0916,0.0,0.0,0.0,0.0,0.0,0.0,0.0,0.0,0.0,0.0,0.0,0.0,0.0,0.0,0.0,0.0,0.0,0.0,0.0,0.0,0.0,0.0,0.0,0.0,0.0,0.0,0.0,0.0,0.0,0.0,0.0,0.0,0.0,-0.0758,0.0,0.0,-0.3082,-0.4273,-0.4965,-0.53,0.0,0.0,0.0,0.0,0.0,0.0,0.0,0.0,0.0,0.0,0.0,0.0,0.0,-0.0555,-0.0605,0.0,0.0,-0.1159,-0.1109,-0.1461,-0.2264,-0.2766,-0.3417,-0.4119,-0.442,-0.4744,-0.4924,-0.5216,-0.4969,-0.594,-0.7211,-0.7856,-0.7832,-0.7869,-0.7965,-0.7995,-0.8126,-0.8197,-0.8275,-0.8336,-0.8442,-0.8567,-0.8618,-0.8642,-0.8645,-0.8642,-0.8635,-0.8554,-0.856,-0.8655,-0.8682,-0.874,-0.8824,-0.8861,-0.8937,-0.8937,-0.8937,-0.8937,-0.8937,-0.8937,-0.8937,-0.8881,-0.8826,-0.8875,-0.8828,-0.8562,-0.8176,-0.7283,-0.5882,-0.4975,-0.3971,-0.2317,0.0,0.0,0.0,0.0,0.0,0.0,0.0,0.0,0.0,0.0,0.0,0.0,0.0,0.0,0.0,0.0,0.0,0.0,0.0,0.0,0.0,0.0,0.0,0.0,0.0,0.0,0.0,0.0,0.0,0.0,0.0,0.0,0.0,0.0,0.0,0.0,0.0,0.0,0.0,0.0,-0.2899,-0.3616,-0.4281,0.0,0.0,0.0,0.0,0.0,0.0,0.0,0.0,0.0,0.0,0.0,0.0,0.0,0.0,0.0,0.0,0.0,0.0,0.0,-0.0504,0.0,-0.1561,-0.2213,-0.2717,-0.3083,-0.3306,-0.3592,-0.3985,-0.38,-0.4588,-0.5855,-0.716,-0.7337,-0.7747,-0.8024,-0.8255,-0.8323,-0.8377,-0.8425,-0.8455,-0.857,-0.8716,-0.8777,-0.8791,-0.874,-0.874,-0.8788,-0.8676,-0.872,-0.8788,-0.8798,-0.878,-0.8875,-0.8881,-0.8937,-0.8937,-0.8937,-0.8937,-0.8937,-0.8937,-0.8937,-0.8771,-0.838,-0.7983,-0.7928,-0.7735,-0.7367,-0.6663,-0.4835,-0.3175,-0.206,0.0,0.0,0.0,0.0,0.0,0.0,0.0,0.0,0.0,0.0,0.0,0.0,0.0,0.0,0.0,0.0,0.0,0.0,0.0,0.0,0.0,0.0,0.0,0.0,0.0,0.0,0.0,0.0,0.0,0.0,0.0,0.0,0.0,0.0,0.0,0.0,0.0,0.0,0.0,0.0,0.0,0.0,-0.2319,-0.3003,0.0,0.0,0.0,0.0,0.0,0.0,0.0,0.0,0.0,0.0,0.0,0.0,0.0,0.0,0.0,0.0,0.0,0.0,0.0,0.0,0.0,0.0,-0.136,-0.1864,-0.1828,-0.226,-0.2599,-0.2676,-0.2599,-0.3401,-0.4669,-0.615,-0.644,-0.7049,-0.8248,-0.8408,-0.8476,-0.8577,-0.857,-0.8574,-0.8716,-0.8849,-0.8937,-0.8927,-0.8923,-0.8923,-0.8927,-0.8927,-0.8937,-0.8937,-0.8881,-0.8871,-0.8878,-0.8937,-0.8937,-0.8937,-0.8937,-0.8937,-0.8937,-0.8937,-0.8937,-0.8432,-0.7595,-0.7202,-0.7149,-0.6647,-0.6176,-0.5335,-0.3548,-0.2435,-0.1318,0.0,0.0,0.0,0.0,0.0,0.0,0.0,0.0,0.0,0.0,0.0,0.0,0.0,0.0,0.0,0.0,0.0,0.0,0.0,0.0,0.0,0.0,0.0,0.0,0.0,0.0,0.0,0.0,0.0,0.0,0.0,0.0,0.0,0.0,0.0,0.0,0.0,0.0,0.0,0.0,0.0,0.0,0.0,-0.189,0.0,0.0,0.0,0.0,0.0,0.0,0.0,0.0,0.0,0.0,0.0,0.0,0.0,0.0,0.0,0.0,0.0,0.0,0.0,0.0,0.0,0.0,0.0,0.0,0.0,-0.057,-0.0893,-0.1548,-0.1891,-0.2543,-0.3764,-0.5898,-0.6061,-0.6608,-0.821,-0.8312,-0.8381,-0.8672,-0.871,-0.8723,-0.8852,-0.8893,-0.8937,-0.8937,-0.8937,-0.8937,-0.8937,-0.8937,-0.8937,-0.8937,-0.8937,-0.8881,-0.8937,-0.8937,-0.8937,-0.8937,-0.8937,-0.8937,-0.8826,-0.8771,-0.8657,-0.8266,-0.754,-0.7035,-0.6422,-0.553,-0.4582,-0.3575,-0.2624,-0.1617,0.0,0.0,0.0,0.0,0.0,0.0,0.0,0.0,0.0,0.0,0.0,0.0,0.0,0.0,0.0,0.0,0.0,0.0,0.0,0.0,0.0,0.0,0.0,0.0,0.0,0.0,0.0,0.0,0.0,0.0,0.0,0.0,0.0,0.0,0.0,0.0,0.0,0.0,0.0,0.0,0.0,0.0,0.0,0.0,0.0,0.0,0.0,0.0,0.0,0.0,0.0,0.0,0.0,0.0,0.0,0.0,0.0,0.0,0.0,0.0,0.0,0.0,0.0,0.0,0.0,0.0,0.0,0.0,0.0,0.0,0.0,0.0,-0.0548,0.0,-0.127,-0.2355,-0.4283,-0.4712,-0.5577,-0.726,-0.7759,-0.8107,-0.8753,-0.8747,-0.8855,-0.8937,-0.8937,-0.8937,-0.8937,-0.8937,-0.8937,-0.8937,-0.8937,-0.8937,-0.8937,-0.8937,-0.8937,-0.8937,-0.8937,-0.8937,-0.8937,-0.8937,-0.8881,-0.8716,-0.8377,-0.8042,-0.7485,-0.5748,-0.4578,-0.4077,-0.3242,-0.2907,-0.2013,-0.1455,0.0,0.0,0.0,0.0,0.0,0.0,0.0,0.0,0.0,0.0,0.0,0.0,0.0,0.0,0.0,0.0,0.0,0.0,0.0,0.0,0.0,0.0,0.0,0.0,0.0,0.0,0.0,0.0,0.0,0.0,0.0,0.0,0.0,0.0,0.0,0.0,0.0,0.0,0.0,0.0,0.0,0.0,0.0,0.0,0.0,0.0,0.0,0.0,0.0,0.0,0.0,0.0,0.0,0.0,0.0,0.0,0.0,0.0,0.0,0.0,0.0,0.0,0.0,0.0,0.0,0.0,0.0,0.0,0.0,0.0,0.0,0.0,0.0,0.0,0.0,0.0,-0.0949,-0.19,-0.2738,-0.3627,-0.5639,-0.6805,-0.7296,-0.818,-0.8514,-0.8865,-0.8937,-0.8937,-0.8937,-0.8937,-0.8937,-0.8937,-0.8937,-0.8937,-0.8937,-0.8937,-0.8937,-0.8937,-0.8937,-0.8937,-0.8937,-0.8937,-0.8937,-0.8716,-0.8325,-0.7482,-0.6924,-0.5864,-0.3463,-0.2291,-0.2014,-0.1571,-0.1291,0.0,0.0,0.0,0.0,0.0,0.0,0.0,0.0,0.0,0.0,0.0,0.0,0.0,0.0,0.0,0.0,0.0,0.0,0.0,0.0,0.0,0.0,0.0,0.0,0.0,0.0,0.0,0.0,0.0,0.0,0.0,0.0,0.0,0.0,0.0,0.0,0.0,0.0,0.0,0.0,0.0,0.0,0.0,0.0,0.0,0.0,0.0,0.0,0.0,0.0,0.0,0.0,0.0,0.0,0.0,0.0,0.0,0.0,0.0,0.0,0.0,0.0,0.0,0.0,0.0,0.0,0.0,0.0,0.0,0.0,0.0,0.0,0.0,0.0,0.0,0.0,0.0,0.0,-0.0672,-0.1956,-0.2068,-0.3073,-0.4637,-0.5641,-0.6589,-0.7426,-0.8266,-0.8712,-0.8881,-0.8937,-0.8937,-0.8937,-0.8937,-0.8937,-0.8937,-0.8937,-0.8937,-0.8937,-0.8937,-0.8937,-0.8937,-0.8937,-0.8937,-0.8781,-0.8781,-0.8125,-0.751,-0.6502,-0.5833,-0.4763,-0.2915,-0.196,-0.1518,-0.0908,0.0,0.0,0.0,0.0,0.0,0.0,0.0,0.0,0.0,0.0,0.0,0.0,0.0,0.0,0.0,0.0,0.0,0.0,0.0,0.0,0.0,0.0,0.0,0.0,0.0,0.0,0.0,0.0,0.0,0.0,0.0,0.0,0.0,0.0,0.0,0.0,0.0,0.0,0.0,0.0,0.0,0.0,0.0,0.0,0.0,0.0,0.0,0.0,0.0]},{"header":{"parameterUnit":"m.s-1","parameterCategory":1,"la1":31.0,"la2":29.5877,"lo1":-88.7671,"lo2":-86.6584,"dy":0.0162,"dx":0.0185,"nx":115,"ny":88,"refTime":"2023-08-31T12:00:00:Z","depth":0,"parameterNumber":3,"parameterNumberName":"V-component_of_WINDS"},"data":[0.0,0.0,0.0,0.0,0.0,0.0,0.0,0.0,0.0,0.0,0.0,0.0,0.0,0.0,0.0,0.0,0.0,0.0,0.0,0.0,0.0,0.0,0.0,0.0,0.0,0.0,0.0,0.0,0.0,0.0,0.0,0.0,0.0,0.0,0.0,0.0,0.0,0.0,0.0,0.0,0.0,0.0,0.0,0.0,0.0,0.0,0.0,0.0,0.0,0.0,0.0,0.0,0.0,0.0,0.0,0.0,0.0,0.0,0.0,0.0,0.0,0.0,0.0,0.0,0.0,0.0,0.0,0.0,0.0,0.0,0.0,0.0,0.0,0.0,0.0,0.0,0.0,0.0,0.0,0.0,0.0,0.0,0.0,0.0,0.0,0.0,0.0,0.0,0.0,0.0,0.0,0.0,0.0,0.0,0.0,0.0,0.0,0.0,0.0,0.0,0.0,0.0,0.0,0.0,0.0,0.0,0.0,0.0,0.0,0.0,0.0,0.0,0.0,0.0,0.0,0.0,0.0,0.0,0.0,0.0,0.0,0.0,0.0,0.0,0.0,0.0,0.0,0.0,0.0,0.0,0.0,0.0,0.0,0.0,0.0,0.0,0.0,0.0,0.0,0.0,0.0,0.0,0.0,0.0,0.0,0.0,0.0,0.0,0.0,0.0,0.0,0.0,0.0,0.0,0.0,0.0,0.0,0.0,0.0,0.0,0.0,0.0,0.0,0.0,0.0,0.0,0.0,0.0,0.0,0.0,0.0,0.0,0.0,0.0,0.0,0.0,0.0,0.0,0.0,0.0,0.0,0.0,0.0,0.0,0.0,0.0,0.0,0.0,0.0,0.0,0.0,0.0,0.0,0.0,0.0,0.0,0.0,0.0,0.0,0.0,0.0,0.0,0.0,0.0,0.0,0.0,0.0,0.0,0.0,0.0,0.0,0.0,0.0,0.0,0.0,0.0,0.0,0.0,0.0,0.0,0.0,0.0,0.0,0.0,0.0,0.0,0.0,0.0,0.0,0.0,0.0,0.0,0.0,0.0,0.0,0.0,0.0,0.0,0.0,0.0,0.0,0.0,0.0,0.0,0.0,0.0,0.0,0.0,0.0,0.0,0.0,0.0,0.0,0.0,0.0,0.0,0.0,0.0,0.0,0.0,0.0,0.0,0.0,0.0,0.0,0.0,0.0,0.0,0.0,0.0,0.0,0.0,0.0,0.0,0.0,0.0,0.0,0.0,0.0,0.0,0.0,0.0,0.0,0.0,0.0,0.0,0.0,0.0,0.0,0.0,0.0,0.0,0.0,0.0,0.0,0.0,0.0,0.0,0.0,0.0,0.0,0.0,0.0,0.0,0.0,0.0,0.0,0.0,0.0,0.0,0.0,0.0,0.0,0.0,0.0,0.0,0.0,0.0,0.0,0.0,0.0,0.0,0.0,0.0,0.0,0.0,0.0,0.0,0.0,0.0,0.0,0.0,0.0,0.0,0.0,0.0,0.0,0.0,0.0,0.0,0.0,0.0,0.0,0.0,0.0,0.0,0.0,0.0,0.0,0.0,0.0,0.0,0.0,0.0,0.0,0.0,0.0,0.0,0.0,0.0,0.0,0.0,0.0,0.0,0.0,0.0,0.0,0.0,0.0,0.0,0.0,0.0,0.0,0.0,0.0,0.0,0.0,0.0,0.0,0.0,0.0,0.0,0.0,0.0,0.0,0.0,0.0,0.0,0.0,0.0,0.0,0.0,0.0,0.0,0.0,0.0,0.0,0.0,0.0,0.0,0.0,0.0,0.0,0.0,0.0,0.0,0.0,0.0,0.0,0.0,0.0,0.0,0.0,0.0,0.0,0.0,0.0,0.0,0.0,0.0,0.0,0.0,0.0,0.0,0.0,0.0,0.0,0.0,0.0,0.0,0.0,0.0,0.0,0.0,0.0,0.0,0.0,0.0,0.0,0.0,0.0,0.0,0.0,0.0,0.0,0.0,0.0,0.0,0.0,0.0,0.0,0.0,0.0,0.0,0.0,0.0,0.0,0.0,0.0,0.0,0.0,0.0,0.0,0.0,0.0,0.0,0.0,0.0,0.0,0.0,0.0,0.0,0.0,0.0,0.0,0.0,0.0,0.0,0.0,0.0,0.0,0.0,0.0,0.0,0.0,0.0,0.0,0.0,0.0,0.0,0.0,0.0,0.0,0.0,0.0,0.0,0.0,0.0,0.0,0.0,0.0,0.0,0.0,0.0,0.0,0.0,0.0,0.0,0.0,0.0,0.0,0.0,0.0,0.0,0.0,0.0,0.0,0.0,0.0,0.0,0.0,0.0,0.0,0.0,0.0,0.0,0.0,0.0,0.0,0.0,0.0,0.0,0.0,0.0,0.0,0.0,0.0,0.0,0.0,0.0,0.0,0.0,0.0,0.0,0.0,0.0,0.0,0.0,0.0,0.0,0.0,0.0,0.0,0.0,0.0,0.0,0.0,0.0,0.0,0.0,0.0,0.0,0.0,0.0,0.0,0.0,0.0,0.0,0.0,0.0,0.0,0.0,0.0,0.0,0.0,0.0,0.0,0.0,0.0,0.0,0.0,0.0,0.0,0.0,0.0,0.0,0.0,0.0,0.0,0.0,0.0,0.0,0.0,0.0,0.0,0.0,0.0,0.0,0.0,0.0,0.0,0.0,0.0,0.0,0.0,0.0,0.0,0.0,0.0,0.0,0.0,0.0,0.0,0.0,0.0,0.0,0.0,0.0,0.0,0.0,0.0,0.0,0.0,0.0,0.0,0.0,0.0,0.0,0.0,0.0,0.0,0.0,0.0,0.0,0.0,0.0,0.0,0.0,0.0,0.0,0.0,0.0,0.0,0.0,0.0,0.0,0.0,0.0,0.0,0.0,0.0,0.0,0.0,0.0,0.0,0.0,0.0,0.0,0.0,0.0,0.0,0.0,0.0,0.0,0.0,0.0,0.0,0.0,0.0,0.0,0.0,0.0,0.0,0.0,0.0,0.0,0.0,0.0,0.0,0.0,0.0,0.0,0.0,0.0,0.0,0.0,0.0,0.0,0.0,0.0,0.0,0.0,0.0,0.0,0.0,0.0,0.0,0.0,0.0,0.0,0.0,0.0,0.0,0.0,0.0,0.0,0.0,0.0,0.0,0.0,0.0,0.0,0.0,0.0,0.0,0.0,0.0,0.0,0.0,0.0,0.0,0.0,0.0,0.0,0.0,0.0,0.0,0.0,0.0,0.0,0.0,0.0,0.0,0.0,0.0,0.0,0.0,0.0,0.0,0.0,0.0,0.0,0.0,0.0,0.0,0.0,0.0,0.0,0.0,0.0,0.0,0.0,0.0,0.0,0.0,0.0,0.0,0.0,0.0,0.0,0.0,0.0,0.0,0.0,0.0,0.0,0.0,0.0,0.0,0.0,0.0,0.0,0.0,0.0,0.0,0.0,0.0,0.0,0.0,0.0,0.0,0.0,0.0,0.0,0.0,0.0,0.0,0.0,0.0,0.0,0.0,0.0,0.0,0.0,0.0,0.0,0.0,0.0,0.0,0.0,0.0,0.0,0.0,0.0,0.0,0.0,0.0,0.0,0.0,0.0,0.0,0.0,0.0,0.0,0.0,0.0,0.0,0.0,0.0,0.0,0.0,0.0,0.0,0.0,0.0,0.0,0.0,0.0,0.0,0.0,0.0,0.0,0.0,0.0,0.0,0.0,0.0,0.0,0.0,0.0,0.0,0.0,0.0,0.0,0.0,0.0,0.0,0.0,0.0,0.0,0.0,0.0,0.0,0.0,0.0,0.0,0.0,0.0,0.0,0.0,0.0,0.0,0.0,0.0,0.0,0.0,0.0,0.0,0.0,0.0,0.0,0.0,0.0,0.0,0.0,0.0,0.0,0.0,0.0,0.0,0.0,0.0,0.0,0.0,0.0,0.0,0.0,0.0,0.0,0.0,0.0,0.0,0.0,0.0,0.0,0.0,0.0,0.0,0.0,0.0,0.0,0.0,0.0,0.0,0.0,0.0,0.0,0.0,0.0,0.0,0.0,0.0,0.0,0.0,0.0,0.0,0.0,0.0,0.0,0.0,0.0,0.0,0.0,0.0,0.0,0.0,0.0,0.0,0.0,0.0,0.0,0.0,0.0,0.0,0.0,0.0,0.0,0.0,0.0,0.0,0.0,0.0,0.0,0.0,0.0,0.0,0.0,0.0,0.0,0.0,0.0,0.0,0.0,0.0,0.0,0.0,0.0,0.0,0.0,0.0,0.0,0.0,0.0,0.0,0.0,0.0,1.8327,0.0,0.0,0.0,0.0,0.0,0.0,0.0,0.0,0.0,0.0,0.0,0.0,0.0,0.0,0.0,0.0,0.0,0.0,0.0,0.0,0.0,0.0,0.0,0.0,0.0,0.0,0.0,0.0,0.0,0.0,0.0,0.0,0.0,0.0,0.0,0.0,0.0,0.0,0.0,0.0,0.0,0.0,0.0,0.0,0.0,0.0,0.0,0.0,0.0,0.0,0.0,0.0,0.0,0.0,0.0,0.0,0.0,0.0,0.0,0.0,0.0,0.0,0.0,0.0,0.0,0.0,0.0,0.0,0.0,0.0,0.0,0.0,0.0,0.0,0.0,0.0,0.0,0.0,0.0,0.0,0.0,0.0,0.0,0.0,0.0,0.0,0.0,0.0,0.0,0.0,0.0,0.0,0.0,0.0,0.0,0.0,0.0,0.0,0.0,0.0,0.0,0.0,0.0,0.0,0.0,0.0,0.0,0.0,0.0,0.0,1.7666,1.7686,1.7933,1.8092,1.8092,0.0,0.0,0.0,0.0,0.0,0.0,0.0,0.0,0.0,0.0,0.0,0.0,0.0,0.0,0.0,0.0,0.0,0.0,0.0,0.0,0.0,0.0,0.0,0.0,0.0,0.0,0.0,0.0,0.0,0.0,0.0,0.0,0.0,0.0,0.0,0.0,0.0,0.0,0.0,0.0,0.0,0.0,0.0,0.0,0.0,0.0,0.0,0.0,0.0,0.0,0.0,0.0,0.0,0.0,0.0,0.0,0.0,0.0,0.0,0.0,0.0,0.0,0.0,0.0,0.0,0.0,0.0,0.0,0.0,0.0,0.0,0.0,0.0,0.0,0.0,0.0,0.0,0.0,0.0,0.0,0.0,0.0,0.0,0.0,0.0,0.0,0.0,0.0,0.0,0.0,0.0,0.0,0.0,0.0,0.0,0.0,0.0,0.0,0.0,0.0,0.0,0.0,0.0,0.0,0.0,0.0,0.0,0.0,0.0,0.0,0.0,0.0,1.8097,1.8234,1.8072,0.0,0.0,0.0,0.0,0.0,0.0,0.0,0.0,0.0,0.0,0.0,0.0,0.0,0.0,0.0,0.0,0.0,0.0,0.0,0.0,0.0,0.0,0.0,0.0,0.0,0.0,0.0,0.0,0.0,0.0,0.0,0.0,0.0,0.0,0.0,0.0,0.0,0.0,0.0,0.0,0.0,0.0,0.0,0.0,0.0,0.0,0.0,0.0,0.0,0.0,0.0,0.0,0.0,0.0,0.0,0.0,0.0,0.0,0.0,0.0,0.0,0.0,0.0,0.0,0.0,0.0,0.0,0.0,0.0,0.0,0.0,0.0,0.0,0.0,0.0,0.0,0.0,0.0,0.0,0.0,0.0,0.0,0.0,0.0,0.0,0.0,0.0,0.0,0.0,0.0,0.0,0.0,0.0,0.0,0.0,0.0,0.0,0.0,0.0,0.0,0.0,0.0,0.0,0.0,0.0,0.0,0.0,0.0,0.0,0.0,1.7295,1.8792,1.8879,0.0,1.8087,0.0,0.0,0.0,0.0,0.0,0.0,0.0,0.0,0.0,0.0,0.0,0.0,0.0,0.0,0.0,0.0,0.0,0.0,0.0,0.0,0.0,0.0,0.0,0.0,0.0,0.0,0.0,0.0,0.0,0.0,0.0,0.0,0.0,0.0,0.0,0.0,0.0,0.0,0.0,0.0,0.0,0.0,0.0,0.0,0.0,0.0,0.0,0.0,0.0,0.0,0.0,0.0,0.0,0.0,0.0,0.0,0.0,0.0,0.0,0.0,0.0,0.0,0.0,0.0,0.0,0.0,0.0,0.0,0.0,0.0,0.0,0.0,0.0,0.0,0.0,0.0,0.0,0.0,0.0,0.0,0.0,0.0,0.0,0.0,0.0,0.0,0.0,0.0,0.0,0.0,0.0,0.0,0.0,0.0,0.0,0.0,0.0,0.0,0.0,0.0,0.0,0.0,0.0,0.0,0.0,0.0,0.0,0.0,0.0,0.0,1.7422,1.8106,1.8106,1.7946,0.0,0.0,0.0,0.0,0.0,0.0,0.0,0.0,0.0,0.0,0.0,0.0,0.0,0.0,0.0,0.0,0.0,0.0,0.0,0.0,0.0,0.0,0.0,0.0,0.0,0.0,0.0,0.0,0.0,0.0,0.0,0.0,0.0,0.0,0.0,0.0,0.0,0.0,0.0,0.0,0.0,0.0,0.0,0.0,0.0,0.0,0.0,0.0,0.0,0.0,0.0,0.0,0.0,0.0,0.0,0.0,0.0,0.0,0.0,0.0,0.0,0.0,0.0,0.0,0.0,0.0,0.0,0.0,0.0,0.0,0.0,0.0,0.0,0.0,0.0,0.0,0.0,0.0,0.0,0.0,0.0,0.0,0.0,0.0,0.0,0.0,0.0,0.0,0.0,0.0,0.0,0.0,0.0,0.0,0.0,0.0,0.0,0.0,0.0,0.0,0.0,0.0,0.0,0.0,0.0,0.0,0.0,0.0,0.0,0.0,1.7322,1.7481,1.7909,1.7832,1.751,1.6942,0.0,0.0,0.0,0.0,0.0,0.0,0.0,0.0,0.0,0.0,0.0,0.0,0.0,0.0,0.0,0.0,0.0,0.0,0.0,0.0,0.0,0.0,0.0,0.0,0.0,0.0,0.0,0.0,0.0,0.0,0.0,0.0,0.0,0.0,0.0,0.0,0.0,0.0,0.0,0.0,0.0,0.0,0.0,0.0,0.0,0.0,0.0,0.0,0.0,0.0,0.0,0.0,0.0,0.0,0.0,0.0,0.0,0.0,0.0,0.0,0.0,0.0,0.0,0.0,0.0,0.0,0.0,0.0,0.0,0.0,0.0,0.0,0.0,0.0,0.0,0.0,0.0,0.0,0.0,0.0,0.0,0.0,0.0,0.0,0.0,0.0,0.0,0.0,0.0,0.0,0.0,0.0,0.0,0.0,0.0,0.0,0.0,0.0,0.0,0.0,0.0,0.0,0.0,0.0,0.0,0.0,0.0,0.0,1.9559,1.7707,1.7401,1.8932,1.8649,1.7598,0.0,0.0,0.0,0.0,0.0,0.0,0.0,0.0,0.0,0.0,0.0,0.0,0.0,0.0,0.0,0.0,0.0,0.0,0.0,0.0,0.0,0.0,0.0,0.0,0.0,0.0,0.0,0.0,0.0,0.0,0.0,0.0,0.0,0.0,0.0,0.0,0.0,0.0,0.0,0.0,0.0,0.0,0.0,0.0,0.0,0.0,0.0,0.0,0.0,0.0,0.0,0.0,0.0,0.0,0.0,0.0,0.0,0.0,0.0,0.0,0.0,0.0,0.0,0.0,0.0,0.0,0.0,0.0,0.0,0.0,0.0,0.0,0.0,0.0,0.0,0.0,0.0,0.0,0.0,0.0,0.0,0.0,0.0,0.0,0.0,0.0,0.0,0.0,0.0,0.0,0.0,0.0,0.0,0.0,0.0,0.0,0.0,0.0,0.0,0.0,0.0,0.0,0.0,0.0,0.0,0.0,0.0,0.0,0.0,1.6535,1.6199,1.7077,1.9177,1.741,1.6398,0.0,0.0,0.0,0.0,0.0,0.0,0.0,0.0,0.0,0.0,0.0,0.0,0.0,0.0,0.0,0.0,0.0,0.0,0.0,0.0,0.0,0.0,0.0,0.0,0.0,0.0,0.0,0.0,0.0,0.0,0.0,0.0,0.0,0.0,0.0,0.0,0.0,0.0,0.0,0.0,0.0,0.0,0.0,0.0,0.0,0.0,0.0,0.0,0.0,0.0,0.0,0.0,0.0,0.0,0.0,0.0,0.0,0.0,0.0,0.0,0.0,0.0,0.0,0.0,0.0,0.0,0.0,0.0,0.0,0.0,0.0,0.0,0.0,0.0,0.0,0.0,0.0,0.0,0.0,0.0,0.0,0.0,0.0,0.0,0.0,0.0,0.0,0.0,0.0,0.0,0.0,0.0,0.0,0.0,0.0,0.0,0.0,0.0,0.0,0.0,0.0,0.0,0.0,0.0,0.0,0.0,0.0,0.0,0.0,1.5171,0.0,1.7073,1.8247,1.6323,1.5221,0.0,0.0,0.0,0.0,0.0,0.0,0.0,0.0,0.0,0.0,0.0,0.0,0.0,0.0,0.0,0.0,0.0,0.0,0.0,0.0,0.0,0.0,0.0,0.0,0.0,0.0,0.0,0.0,0.0,0.0,0.0,0.0,0.0,0.0,0.0,0.0,0.0,0.0,0.0,0.0,0.0,0.0,0.0,0.0,0.0,0.0,0.0,0.0,0.0,0.0,0.0,0.0,0.0,0.0,0.0,0.0,0.0,0.0,0.0,0.0,0.0,0.0,0.0,0.0,0.0,0.0,0.0,0.0,0.0,0.0,0.0,0.0,0.0,0.0,0.0,0.0,0.0,0.0,0.0,0.0,0.0,0.0,0.0,0.0,0.0,0.0,0.0,0.0,0.0,0.0,0.0,0.0,0.0,0.0,0.0,0.0,0.0,0.0,0.0,0.0,0.0,0.0,0.0,0.0,0.0,0.0,0.0,0.0,1.5131,1.6018,1.722,1.7288,1.6163,1.5625,1.4216,0.0,0.0,0.0,0.0,0.0,0.0,0.0,0.0,0.0,0.0,0.0,0.0,0.0,0.0,0.0,0.0,0.0,0.0,0.0,0.0,0.0,0.0,0.0,0.0,0.0,0.0,0.0,0.0,0.0,0.0,0.0,0.0,0.0,0.0,0.0,0.0,0.0,0.0,0.0,0.0,0.0,0.0,0.0,0.0,0.0,0.0,0.0,0.0,0.0,0.0,0.0,0.0,0.0,0.0,0.0,0.0,0.0,0.0,0.0,0.0,0.0,0.0,0.0,0.0,0.0,0.0,0.0,0.0,0.0,0.0,0.0,0.0,0.0,0.0,0.0,0.0,0.0,0.0,0.0,0.0,0.0,0.0,0.0,0.0,0.0,0.0,0.0,0.0,0.0,0.0,0.0,0.0,0.0,0.0,0.0,0.0,0.0,0.0,0.0,0.0,0.0,0.0,0.0,0.0,0.0,0.0,0.0,0.0,0.0,1.3827,1.5366,1.6124,1.591,1.4735,1.3926,0.0,0.0,0.0,0.0,0.0,0.0,0.0,0.0,0.0,0.0,0.0,0.0,0.0,0.0,0.0,0.0,0.0,0.0,0.0,0.0,0.0,0.0,0.0,0.0,0.0,0.0,0.0,0.0,0.0,0.0,0.0,0.0,0.0,0.0,0.0,0.0,0.0,0.0,0.0,0.0,0.0,0.0,0.0,0.0,0.0,0.0,0.0,0.0,0.0,0.0,0.0,0.0,0.0,0.0,0.0,0.0,0.0,0.0,0.0,0.0,0.0,0.0,0.0,0.0,0.0,0.0,0.0,0.0,0.0,0.0,0.0,0.0,0.0,0.0,0.0,0.0,0.0,0.0,0.0,0.0,0.0,0.0,0.0,0.0,0.0,0.0,0.0,0.0,0.0,0.0,0.0,0.0,0.0,0.0,0.0,0.0,0.0,0.0,0.0,0.0,0.0,0.0,0.0,0.0,0.0,0.0,0.0,0.0,0.0,1.3823,1.5364,1.6314,1.6448,1.4526,1.3523,1.3633,0.0,0.0,0.0,0.0,0.0,0.0,0.0,0.0,0.0,0.0,0.0,0.0,0.0,0.0,0.0,0.0,0.0,0.0,0.0,0.0,0.0,0.0,0.0,0.0,0.0,0.0,0.0,0.0,0.0,0.0,0.0,0.0,0.0,0.0,0.0,0.0,0.0,0.0,0.0,0.0,0.0,0.0,0.0,0.0,0.0,0.0,0.0,0.0,0.0,0.0,0.0,0.0,0.0,0.0,0.0,0.0,0.0,0.0,0.0,0.0,0.0,0.0,0.0,0.0,0.0,0.0,0.0,0.0,0.0,0.0,0.0,0.0,0.0,0.0,0.0,0.0,0.0,0.0,0.0,0.0,0.0,0.0,0.0,0.0,0.0,0.0,0.0,0.0,0.0,0.0,0.0,0.0,0.0,0.0,0.0,0.0,0.0,0.0,0.0,0.0,0.0,0.0,0.0,0.0,0.0,0.0,0.0,0.0,1.5343,1.6848,1.7523,1.7335,1.4804,1.3146,0.0,0.0,0.0,0.0,0.0,0.0,0.0,0.0,0.0,0.0,0.0,0.0,0.0,0.0,0.0,0.0,0.0,0.0,0.0,0.0,0.0,0.0,0.0,0.0,0.0,0.0,0.0,0.0,0.0,0.0,0.0,0.0,0.0,0.0,0.0,0.0,0.0,0.0,0.0,0.0,0.0,0.0,0.0,0.0,0.0,0.0,0.0,0.0,0.0,0.0,0.0,0.0,0.0,0.0,0.0,0.0,0.0,0.0,0.0,0.0,0.0,0.0,0.0,0.0,0.0,0.0,0.0,0.0,0.0,0.0,0.0,0.0,0.0,0.0,0.0,0.0,0.0,0.0,0.0,0.0,0.0,0.0,0.0,0.0,0.0,0.0,0.0,0.0,0.0,0.0,0.0,0.0,0.0,0.0,0.0,0.0,0.0,0.0,0.0,0.0,0.0,0.0,0.0,0.0,0.0,0.0,0.0,0.0,0.0,1.614,1.6664,1.6962,1.6986,1.4906,1.3518,0.0,0.0,0.0,0.0,0.0,0.0,0.0,0.0,0.0,0.0,0.0,0.0,0.0,0.0,0.0,0.0,0.0,0.0,0.0,0.0,0.0,0.0,0.0,0.0,0.0,0.0,0.0,0.0,0.0,0.0,0.0,0.0,0.0,0.0,0.0,0.0,0.0,0.0,0.0,0.0,0.0,0.0,0.0,0.0,0.0,0.0,0.0,0.0,0.0,0.0,0.0,0.0,0.0,0.0,0.0,0.0,0.0,0.0,0.0,0.0,0.0,0.0,0.0,0.0,0.0,0.0,0.0,0.0,0.0,0.0,0.0,0.0,0.0,0.0,0.0,0.0,0.0,0.0,0.0,0.0,0.0,0.0,0.0,0.0,0.0,0.0,0.0,0.0,0.0,0.0,0.0,0.0,0.0,0.0,0.0,0.0,0.0,0.0,0.0,0.0,0.0,0.0,0.0,0.0,0.0,0.0,0.0,0.0,1.6158,1.68,1.6547,1.6538,1.6804,1.4631,1.3255,0.0,0.0,0.0,0.0,0.0,0.0,0.0,0.0,0.0,0.0,0.0,0.0,0.0,0.0,0.0,0.0,0.0,0.0,0.0,0.0,0.0,0.0,0.0,0.0,0.0,0.0,0.0,0.0,0.0,0.0,0.0,0.0,0.0,0.0,0.0,0.0,0.0,0.0,0.0,0.0,0.0,0.0,0.0,0.0,0.0,0.0,0.0,0.0,0.0,0.0,0.0,0.0,0.0,0.0,0.0,0.0,0.0,0.0,0.0,0.0,0.0,0.0,0.0,0.0,0.0,0.0,0.0,0.0,0.0,0.0,0.0,0.0,0.0,0.0,0.0,0.0,0.0,0.0,0.0,0.0,0.0,0.0,0.0,0.0,0.0,0.0,0.0,0.0,0.0,0.0,0.0,0.0,0.0,0.0,0.0,0.0,0.0,0.0,0.0,0.0,0.0,0.0,0.0,0.0,0.0,0.0,0.0,0.0,1.6132,1.7257,1.6619,1.6404,1.6614,1.4296,1.28,0.0,0.0,0.0,0.0,0.0,0.0,0.0,0.0,0.0,0.0,0.0,0.0,0.0,0.0,0.0,0.0,0.0,0.0,0.0,0.0,0.0,0.0,0.0,0.0,0.0,0.0,0.0,0.0,0.0,0.0,0.0,0.0,0.0,0.0,0.0,0.0,0.0,0.0,0.0,0.0,0.0,0.0,0.0,0.0,0.0,0.0,0.0,0.0,0.0,0.0,0.0,0.0,0.0,0.0,0.0,0.0,0.0,0.0,0.0,0.0,0.0,0.0,0.0,0.0,0.0,0.0,0.0,0.0,0.0,0.0,0.0,0.0,0.0,0.0,0.0,0.0,0.0,0.0,0.0,0.0,0.0,0.0,0.0,0.0,0.0,0.0,0.0,0.0,0.0,0.0,0.0,0.0,0.0,0.0,0.0,0.0,0.0,0.0,0.0,0.0,0.0,0.0,0.0,0.0,0.0,0.0,0.0,0.0,1.651,1.6613,1.7391,1.7445,1.6733,1.5203,1.3649,0.0,0.0,0.0,0.0,0.0,0.0,0.0,0.0,0.0,0.0,0.0,0.0,0.0,0.0,0.0,0.0,0.0,0.0,0.0,0.0,0.0,0.0,0.0,0.0,0.0,0.0,0.0,0.0,0.0,0.0,0.0,0.0,0.0,0.0,0.0,0.0,0.0,0.0,0.0,0.0,0.0,0.0,0.0,0.0,0.0,0.0,0.0,0.0,1.9547,0.0,0.0,0.0,0.0,0.0,0.0,0.0,0.0,0.0,0.0,0.0,0.0,0.0,0.0,0.0,0.0,0.0,0.0,0.0,0.0,0.0,0.0,0.0,0.0,0.0,0.0,0.0,0.0,0.0,0.0,0.0,0.0,0.0,0.0,0.0,0.0,0.0,0.0,0.0,0.0,0.0,0.0,0.0,0.0,0.0,0.0,0.0,0.0,0.0,0.0,0.0,0.0,0.0,0.0,0.0,0.0,0.0,0.0,0.0,1.6912,1.6893,1.7397,1.7517,1.7179,1.6701,1.5421,0.0,0.0,0.0,0.0,0.0,0.0,0.0,0.0,0.0,0.0,0.0,0.0,0.0,0.0,0.0,0.0,0.0,0.0,0.0,0.0,0.0,0.0,0.0,0.0,0.0,0.0,0.0,0.0,0.0,0.0,0.0,0.0,0.0,0.0,0.0,0.0,0.0,0.0,0.0,0.0,0.0,0.0,0.0,0.0,0.0,0.0,0.0,0.0,0.0,0.0,0.0,0.0,0.0,0.0,0.0,0.0,0.0,0.0,0.0,0.0,0.0,0.0,0.0,0.0,0.0,0.0,0.0,0.0,0.0,0.0,0.0,0.0,0.0,0.0,0.0,0.0,0.0,0.0,0.0,0.0,0.0,0.0,0.0,0.0,0.0,0.0,0.0,0.0,0.0,0.0,0.0,0.0,0.0,0.0,0.0,0.0,0.0,0.0,0.0,0.0,0.0,0.0,0.0,0.0,0.0,0.0,0.0,1.6389,1.7195,1.7494,1.7376,1.7551,1.7924,1.8417,1.7555,1.5283,0.0,0.0,0.0,0.0,0.0,0.0,0.0,0.0,0.0,0.0,0.0,0.0,0.0,0.0,0.0,0.0,0.0,0.0,0.0,0.0,0.0,0.0,0.0,0.0,0.0,0.0,0.0,0.0,0.0,0.0,0.0,0.0,0.0,0.0,0.0,0.0,0.0,0.0,1.9271,2.0828,0.0,0.0,0.0,0.0,0.0,0.0,0.0,0.0,2.1744,0.0,0.0,0.0,0.0,0.0,0.0,0.0,0.0,0.0,0.0,0.0,0.0,0.0,0.0,0.0,0.0,0.0,0.0,0.0,0.0,0.0,0.0,0.0,0.0,0.0,0.0,0.0,0.0,0.0,0.0,0.0,0.0,0.0,0.0,0.0,0.0,0.0,0.0,0.0,0.0,0.0,0.0,0.0,0.0,0.0,0.0,0.0,0.0,0.0,0.0,0.0,0.0,0.0,0.0,0.0,0.0,1.6775,1.6467,1.6786,1.7881,1.8589,1.8954,1.9041,1.9811,1.9341,1.7526,0.0,0.0,0.0,0.0,0.0,0.0,0.0,0.0,0.0,0.0,0.0,0.0,0.0,0.0,0.0,0.0,0.0,0.0,0.0,0.0,0.0,0.0,0.0,0.0,0.0,0.0,0.0,0.0,0.0,0.0,0.0,0.0,0.0,0.0,0.0,0.0,0.0,0.0,0.0,2.2535,2.3791,0.0,0.0,0.0,0.0,0.0,0.0,0.0,0.0,2.2782,0.0,0.0,0.0,0.0,0.0,0.0,0.0,0.0,0.0,0.0,0.0,0.0,0.0,0.0,0.0,0.0,0.0,0.0,0.0,0.0,0.0,0.0,0.0,0.0,0.0,0.0,0.0,0.0,0.0,0.0,0.0,0.0,0.0,0.0,0.0,0.0,0.0,0.0,0.0,0.0,0.0,0.0,0.0,0.0,0.0,0.0,0.0,0.0,0.0,0.0,0.0,0.0,0.0,0.0,0.0,1.7351,1.7503,1.7926,1.8657,1.8859,1.9062,1.9277,1.9258,1.8848,0.0,0.0,0.0,0.0,0.0,0.0,0.0,0.0,0.0,0.0,0.0,0.0,0.0,0.0,0.0,0.0,0.0,0.0,0.0,0.0,0.0,0.0,0.0,0.0,0.0,0.0,0.0,0.0,0.0,0.0,0.0,0.0,0.0,0.0,0.0,0.0,0.0,0.0,0.0,0.0,2.354,2.4732,2.5561,0.0,0.0,0.0,0.0,0.0,0.0,2.3735,2.359,0.0,0.0,0.0,0.0,0.0,0.0,0.0,0.0,0.0,0.0,0.0,0.0,0.0,0.0,0.0,0.0,0.0,0.0,0.0,0.0,0.0,0.0,0.0,0.0,0.0,0.0,0.0,0.0,0.0,0.0,0.0,0.0,0.0,0.0,0.0,0.0,0.0,0.0,0.0,0.0,0.0,0.0,0.0,0.0,0.0,0.0,0.0,0.0,0.0,0.0,0.0,0.0,0.0,0.0,0.0,1.7599,1.8509,1.9091,1.9267,1.9111,1.9104,1.9304,1.8956,1.8518,0.0,0.0,0.0,0.0,0.0,0.0,0.0,0.0,0.0,0.0,0.0,0.0,0.0,0.0,0.0,0.0,0.0,0.0,0.0,0.0,0.0,0.0,0.0,0.0,0.0,0.0,0.0,0.0,0.0,0.0,0.0,0.0,0.0,0.0,0.0,0.0,0.0,0.0,0.0,0.0,0.0,2.5598,2.6373,2.5799,0.0,0.0,0.0,0.0,2.5234,2.4858,0.0,0.0,0.0,0.0,0.0,0.0,0.0,0.0,0.0,0.0,0.0,0.0,0.0,0.0,0.0,0.0,0.0,0.0,0.0,0.0,0.0,0.0,0.0,0.0,0.0,0.0,0.0,0.0,0.0,0.0,0.0,0.0,0.0,0.0,0.0,0.0,0.0,0.0,0.0,0.0,0.0,0.0,0.0,0.0,0.0,0.0,0.0,0.0,0.0,0.0,0.0,0.0,0.0,0.0,0.0,0.0,1.7599,1.8694,1.9267,1.9311,2.001,2.0038,1.937,2.0777,2.0242,0.0,0.0,0.0,0.0,0.0,0.0,0.0,0.0,0.0,0.0,0.0,0.0,0.0,0.0,0.0,0.0,0.0,0.0,0.0,0.0,0.0,0.0,0.0,0.0,0.0,0.0,0.0,0.0,0.0,0.0,0.0,0.0,0.0,0.0,0.0,0.0,0.0,0.0,0.0,0.0,0.0,2.6854,2.6549,2.6801,2.7005,0.0,0.0,2.6411,2.6904,2.6575,0.0,0.0,0.0,0.0,0.0,0.0,0.0,0.0,0.0,0.0,0.0,0.0,0.0,0.0,0.0,0.0,0.0,0.0,0.0,0.0,0.0,0.0,0.0,0.0,0.0,0.0,0.0,0.0,0.0,0.0,0.0,0.0,0.0,0.0,0.0,0.0,0.0,0.0,0.0,0.0,0.0,0.0,0.0,0.0,0.0,0.0,0.0,0.0,0.0,0.0,0.0,0.0,0.0,0.0,0.0,1.819,1.8871,2.0111,2.0938,2.1233,2.1659,2.1707,2.1349,2.1317,2.054,0.0,0.0,0.0,0.0,0.0,0.0,0.0,0.0,0.0,0.0,0.0,0.0,0.0,0.0,0.0,0.0,0.0,0.0,0.0,0.0,0.0,0.0,0.0,0.0,0.0,0.0,0.0,0.0,0.0,0.0,0.0,0.0,0.0,0.0,0.0,0.0,0.0,0.0,0.0,0.0,0.0,0.0,2.7758,2.7795,0.0,0.0,0.0,2.7482,2.7708,0.0,0.0,0.0,0.0,0.0,0.0,0.0,0.0,0.0,0.0,0.0,0.0,0.0,0.0,0.0,0.0,0.0,0.0,0.0,0.0,0.0,0.0,0.0,0.0,0.0,0.0,0.0,0.0,0.0,0.0,0.0,0.0,0.0,0.0,0.0,0.0,0.0,0.0,0.0,0.0,0.0,0.0,0.0,0.0,0.0,0.0,0.0,0.0,0.0,0.0,0.0,0.0,0.0,0.0,0.0,0.0,0.0,2.0037,2.1614,2.2594,2.2885,2.312,2.3116,2.2893,2.207,0.0,0.0,0.0,0.0,0.0,0.0,0.0,0.0,0.0,0.0,0.0,0.0,0.0,0.0,0.0,0.0,0.0,0.0,0.0,0.0,0.0,0.0,0.0,0.0,0.0,0.0,0.0,2.0393,0.0,0.0,0.0,0.0,0.0,0.0,0.0,0.0,0.0,0.0,0.0,0.0,0.0,0.0,2.7261,2.8843,2.8621,2.8511,0.0,0.0,2.816,2.8298,2.7381,2.6223,0.0,0.0,0.0,0.0,0.0,0.0,0.0,0.0,0.0,0.0,0.0,0.0,0.0,0.0,0.0,0.0,0.0,0.0,0.0,0.0,0.0,0.0,0.0,0.0,0.0,0.0,0.0,0.0,0.0,0.0,0.0,0.0,0.0,0.0,0.0,0.0,0.0,0.0,0.0,0.0,0.0,0.0,0.0,0.0,0.0,0.0,0.0,0.0,0.0,0.0,0.0,0.0,0.0,0.0,0.0,2.0679,2.2782,2.3737,2.3475,2.39,2.3735,2.2939,2.3595,2.2684,0.0,0.0,0.0,0.0,0.0,0.0,0.0,0.0,0.0,0.0,0.0,0.0,0.0,0.0,0.0,0.0,0.0,0.0,0.0,0.0,0.0,0.0,0.0,0.0,0.0,0.0,0.0,0.0,0.0,0.0,0.0,0.0,0.0,0.0,0.0,0.0,0.0,0.0,0.0,0.0,0.0,2.7786,2.9249,2.9113,2.9076,0.0,0.0,2.8273,2.875,2.7934,2.6515,2.4406,0.0,0.0,0.0,0.0,0.0,0.0,0.0,0.0,0.0,0.0,0.0,0.0,0.0,0.0,0.0,0.0,0.0,0.0,0.0,0.0,0.0,0.0,0.0,0.0,0.0,0.0,0.0,0.0,0.0,0.0,0.0,0.0,0.0,0.0,0.0,0.0,0.0,0.0,0.0,0.0,0.0,0.0,0.0,0.0,0.0,0.0,0.0,0.0,0.0,0.0,0.0,0.0,0.0,2.0113,2.0717,2.3201,2.4584,2.4797,2.5351,2.545,2.5126,2.5086,2.4059,0.0,0.0,0.0,0.0,0.0,0.0,0.0,0.0,0.0,0.0,0.0,0.0,0.0,0.0,0.0,0.0,0.0,0.0,0.0,0.0,0.0,0.0,0.0,0.0,0.0,0.0,0.0,0.0,2.3864,2.3939,2.3528,0.0,0.0,0.0,0.0,0.0,0.0,0.0,0.0,0.0,0.0,2.9835,3.0447,3.0424,0.0,0.0,2.9428,2.9089,2.8913,2.772,2.6298,2.4745,2.3434,0.0,0.0,0.0,0.0,0.0,0.0,0.0,0.0,0.0,0.0,0.0,0.0,0.0,0.0,0.0,0.0,0.0,0.0,0.0,0.0,0.0,0.0,0.0,0.0,0.0,0.0,0.0,0.0,0.0,0.0,0.0,0.0,0.0,0.0,0.0,0.0,0.0,0.0,0.0,0.0,0.0,0.0,0.0,0.0,0.0,0.0,0.0,0.0,0.0,0.0,0.0,0.0,2.0989,2.1565,2.4361,2.6084,2.6595,2.6788,2.685,2.6871,2.6289,2.5377,0.0,0.0,0.0,0.0,0.0,0.0,0.0,0.0,0.0,0.0,0.0,0.0,0.0,0.0,0.0,0.0,0.0,0.0,0.0,0.0,0.0,0.0,0.0,0.0,0.0,0.0,0.0,0.0,2.5166,2.5113,2.4664,0.0,0.0,0.0,0.0,0.0,0.0,0.0,0.0,0.0,0.0,3.1447,3.1956,3.1559,3.097,3.0317,2.9821,2.934,2.8737,2.7708,2.6465,2.5013,0.0,0.0,0.0,0.0,0.0,0.0,0.0,0.0,0.0,0.0,0.0,0.0,0.0,0.0,0.0,0.0,0.0,0.0,0.0,0.0,0.0,0.0,0.0,0.0,0.0,0.0,0.0,0.0,0.0,0.0,2.6656,0.0,0.0,0.0,0.0,0.0,0.0,0.0,0.0,0.0,0.0,0.0,0.0,0.0,0.0,0.0,0.0,0.0,0.0,0.0,0.0,0.0,0.0,2.2991,2.3577,2.6497,2.8322,2.8852,2.8103,2.767,2.7657,2.715,2.6607,2.6003,0.0,0.0,0.0,0.0,0.0,0.0,0.0,0.0,0.0,0.0,0.0,0.0,0.0,0.0,0.0,0.0,0.0,0.0,0.0,0.0,0.0,0.0,0.0,0.0,0.0,0.0,2.5704,2.5038,2.4694,0.0,0.0,0.0,0.0,0.0,0.0,0.0,0.0,0.0,0.0,3.2018,3.2331,3.3688,3.2393,3.1241,3.118,2.9943,2.8762,2.8321,2.8121,2.7331,0.0,0.0,0.0,0.0,0.0,0.0,0.0,0.0,0.0,0.0,0.0,0.0,0.0,0.0,0.0,0.0,0.0,0.0,0.0,0.0,0.0,0.0,0.0,0.0,0.0,0.0,0.0,3.2358,3.1309,0.0,0.0,0.0,0.0,0.0,0.0,0.0,0.0,0.0,0.0,0.0,3.2047,3.2013,0.0,0.0,0.0,0.0,0.0,0.0,0.0,0.0,0.0,0.0,0.0,0.0,2.3648,2.4216,2.6818,2.8457,2.8975,2.8716,2.8556,2.8556,2.8398,2.7684,2.6395,0.0,0.0,0.0,0.0,0.0,0.0,0.0,0.0,0.0,0.0,0.0,0.0,0.0,0.0,0.0,0.0,0.0,0.0,0.0,0.0,0.0,0.0,0.0,0.0,0.0,2.7844,0.0,0.0,0.0,0.0,0.0,0.0,0.0,0.0,0.0,0.0,0.0,3.2263,3.3619,3.4071,3.4195,3.4032,3.3449,3.2841,0.0,0.0,0.0,0.0,0.0,0.0,0.0,0.0,0.0,0.0,0.0,0.0,0.0,0.0,2.5084,2.2484,2.1594,2.1232,2.1245,0.0,0.0,0.0,0.0,0.0,0.0,0.0,0.0,0.0,0.0,0.0,0.0,0.0,0.0,0.0,0.0,3.3214,0.0,0.0,0.0,0.0,0.0,0.0,0.0,0.0,3.3297,3.4186,3.4854,3.5051,3.4533,0.0,3.2883,3.0724,0.0,0.0,0.0,0.0,0.0,0.0,0.0,0.0,2.5335,2.592,2.816,2.9506,2.983,2.9597,2.9442,2.9442,2.9442,2.8951,2.7911,2.6716,2.5871,0.0,0.0,0.0,0.0,0.0,0.0,0.0,0.0,0.0,0.0,0.0,0.0,0.0,0.0,0.0,0.0,0.0,0.0,0.0,0.0,0.0,0.0,0.0,2.9174,0.0,0.0,0.0,0.0,0.0,0.0,0.0,0.0,0.0,3.2112,3.3288,3.447,3.5122,3.5383,3.5246,3.4624,0.0,0.0,0.0,0.0,0.0,0.0,0.0,3.0126,3.0386,2.9487,2.8711,2.8588,2.8716,2.8681,2.8266,0.0,0.0,2.4661,2.35,2.2924,2.2912,2.3062,2.3238,2.3414,2.3195,2.3084,0.0,0.0,0.0,0.0,0.0,0.0,0.0,0.0,3.5895,3.6345,0.0,3.5551,0.0,0.0,0.0,0.0,0.0,0.0,0.0,0.0,3.6818,3.7447,3.6982,3.7523,3.7479,3.6886,3.6632,3.5909,3.4494,2.9629,0.0,0.0,0.0,0.0,0.0,0.0,2.7984,2.8581,3.0451,3.1467,3.1438,3.0718,3.0329,3.0329,3.0329,3.0397,3.0453,2.9282,2.8057,2.677,2.5491,0.0,0.0,0.0,0.0,0.0,0.0,0.0,0.0,0.0,0.0,0.0,0.0,0.0,0.0,0.0,0.0,0.0,0.0,0.0,0.0,3.0236,0.0,0.0,0.0,0.0,0.0,0.0,0.0,0.0,0.0,0.0,3.4906,3.5309,3.5886,3.6522,0.0,0.0,0.0,0.0,3.4095,3.4061,3.3276,3.2541,3.2027,3.2284,3.2256,3.1316,0.0,0.0,2.9575,2.9724,2.971,2.8552,2.874,2.878,2.79,2.6563,2.5676,2.561,2.5219,2.5079,2.5435,2.5101,2.5081,3.8407,0.0,0.0,0.0,0.0,3.7397,3.8323,3.9666,3.9621,3.9194,3.8487,3.7551,0.0,0.0,0.0,0.0,0.0,0.0,3.6044,3.7095,3.7691,3.8374,3.9137,3.8772,3.8493,3.827,3.7722,3.7058,3.6192,3.4695,3.1851,2.7859,0.0,0.0,0.0,0.0,2.9085,2.9276,3.0717,3.1496,3.1496,3.1278,3.1146,3.1161,3.1161,3.1188,3.1212,3.0413,2.9794,2.9394,2.8107,0.0,0.0,0.0,0.0,0.0,0.0,0.0,0.0,0.0,0.0,0.0,0.0,0.0,0.0,0.0,0.0,0.0,0.0,0.0,3.17,3.2351,3.2664,0.0,0.0,0.0,0.0,0.0,0.0,0.0,0.0,0.0,3.7648,3.7386,3.7013,0.0,0.0,3.6738,3.5651,3.5689,3.5676,3.5151,0.0,0.0,0.0,3.3652,3.3293,3.4101,3.3932,3.339,3.2392,3.1996,3.1526,3.0675,3.0199,2.9858,2.9583,2.8738,2.7849,2.7275,2.696,2.669,2.632,2.6109,2.6097,4.2322,4.0998,3.9779,3.9444,3.9676,3.9928,4.065,4.1646,4.1618,4.1458,4.1209,4.0201,3.8725,3.6869,3.5566,0.0,0.0,0.0,3.7679,3.8846,3.8846,3.9302,4.0028,3.961,3.9368,3.9342,3.8624,3.8202,3.8105,3.7487,3.5652,3.2681,0.0,0.0,2.944,3.06,3.1036,3.075,3.1777,3.2201,3.1966,3.1938,3.2064,3.2312,3.2076,3.2064,3.2324,3.1936,3.1624,3.1347,3.0573,2.9769,0.0,0.0,0.0,0.0,0.0,0.0,0.0,0.0,0.0,0.0,0.0,3.014,0.0,0.0,0.0,0.0,3.1713,3.2996,3.5021,3.5269,0.0,0.0,0.0,0.0,0.0,0.0,0.0,3.7989,3.8533,3.897,3.9318,3.8995,3.843,3.7613,3.7674,3.7472,3.6554,0.0,3.6919,3.6461,3.6133,3.5958,3.5911,3.4909,3.443,3.5332,3.4968,3.4279,3.3619,3.2961,3.2273,3.1632,3.1102,3.0777,3.0777,3.0329,2.9597,2.8473,2.792,2.755,2.7061,2.6714,2.6487,4.5385,4.5243,4.3396,4.2153,4.1415,4.2043,4.2366,4.2477,4.2402,4.316,4.4367,4.3024,4.1594,4.0128,3.8121,0.0,3.8176,3.8751,3.9394,4.0113,4.0113,4.0113,4.0113,4.0096,4.0113,4.0087,3.9342,3.9385,3.9978,3.8652,3.7736,3.7235,3.5883,3.4733,3.3767,3.3726,3.3413,3.2695,3.3303,3.3287,3.2695,3.2668,3.296,3.3556,3.2986,3.2975,3.3572,3.3582,3.3319,3.272,3.2609,3.1726,2.9923,0.0,0.0,0.0,0.0,0.0,0.0,0.0,0.0,0.0,0.0,0.0,0.0,0.0,0.0,0.0,3.3963,0.0,3.8922,3.8514,0.0,0.0,0.0,3.8278,3.8311,3.8903,3.951,4.01,0.0,0.0,4.0113,0.0,3.9808,3.9086,3.8386,3.7921,3.7822,3.7835,3.7879,3.7719,3.716,3.6707,3.6676,3.6027,3.5537,3.5503,3.4941,3.4252,3.353,3.2946,3.2258,3.1615,3.1496,3.1467,3.1496,3.1409,3.1014,2.9504,2.857,2.792,2.7822,2.7284,2.6803,4.7011,4.6995,4.6683,4.5407,4.3635,4.3783,4.3913,4.4029,4.4041,4.3912,4.3629,4.3318,4.2341,4.0918,4.039,3.9947,3.9615,3.9766,3.9927,4.0096,4.0113,4.0113,4.0113,4.0113,4.0113,4.007,3.9901,3.9927,4.0087,3.9747,3.9511,3.9354,3.9026,3.7101,3.3841,3.4214,3.41,3.3365,3.3505,3.3505,3.3365,3.3365,3.3443,3.3598,3.3443,3.3443,3.3608,3.3608,3.3528,3.3351,3.2789,3.2478,3.2524,3.0341,0.0,0.0,0.0,0.0,0.0,0.0,0.0,0.0,0.0,3.4766,3.2009,0.0,3.6757,0.0,3.7892,3.9328,4.0561,4.0003,0.0,0.0,4.0776,4.0673,4.1228,4.0939,4.0776,4.0918,4.0467,4.0113,4.0113,4.0113,4.002,3.9833,3.9679,3.9129,3.8051,3.8274,3.8442,3.7966,3.7661,3.7515,3.7454,3.688,3.6228,3.566,3.5,3.4118,3.2931,3.2647,3.2288,3.166,3.1496,3.1496,3.1524,3.1496,3.138,3.0925,3.0254,2.9473,2.8844,2.8524,2.8214,4.7726,4.7723,4.7518,4.6481,4.4957,4.4973,4.4838,4.4587,4.4598,4.4333,4.391,4.3527,4.2936,4.2151,4.1508,4.0967,4.0561,4.0265,4.0113,4.0113,4.0113,4.0113,4.0113,4.0113,4.0113,4.0113,4.0113,4.0113,4.0113,4.0113,4.0113,4.0113,4.0113,3.874,3.6191,3.609,3.5602,3.4549,3.4183,3.4202,3.4471,3.4186,3.4186,3.4471,3.4186,3.4202,3.4471,3.4496,3.4324,3.4003,3.358,3.3378,3.3428,3.1971,3.1128,0.0,0.0,0.0,0.0,0.0,0.0,0.0,0.0,0.0,0.0,0.0,3.9014,0.0,4.0096,4.1009,4.2083,4.1813,4.2033,4.3227,4.2973,4.2743,4.2811,4.2151,4.1559,4.1238,4.0544,4.0113,4.0113,4.0113,4.0113,4.0113,4.0113,3.9799,3.9065,3.9183,3.9279,3.8887,3.8513,3.8149,3.7863,3.7185,3.6565,3.6114,3.5244,3.4291,3.354,3.319,3.2851,3.2511,3.2188,3.1994,3.1979,3.1697,3.1511,3.1438,3.1161,3.0554,2.9752,2.9272,2.8812,4.7906,4.7821,4.7005,4.6278,4.5703,4.5602,4.5179,4.4598,4.4598,4.4598,4.4564,4.3859,4.3426,4.3156,4.1905,4.1255,4.1018,4.04,4.0113,4.0113,4.0113,4.0113,4.0113,4.0113,4.0113,4.0113,4.0113,4.0113,4.0113,4.0113,4.0113,4.0113,4.0113,3.974,3.8988,3.8278,3.7187,3.5712,3.5042,3.5005,3.5577,3.5028,3.4988,3.5538,3.5028,3.5005,3.5577,3.5616,3.5368,3.4827,3.4714,3.4438,3.3998,3.3812,3.3467,0.0,3.3424,0.0,0.0,0.0,0.0,0.0,0.0,0.0,0.0,3.9555,4.0798,4.1441,4.1593,4.2168,4.3453,4.3572,4.3842,4.4513,4.4513,4.4164,4.3443,4.2739,4.2029,4.1384,4.0654,4.0204,4.0229,4.0146,4.0113,4.0113,4.0113,4.0003,3.9935,3.9961,3.9986,4.0011,3.9356,3.8673,3.8244,3.7471,3.6851,3.6612,3.5514,3.4621,3.4399,3.3936,3.3572,3.3521,3.3077,3.2734,3.2722,3.2132,3.1682,3.1682,3.1582,3.1234,3.0584,2.995,2.9317,4.7906,4.777,4.6464,4.5838,4.5652,4.5043,4.475,4.4598,4.4598,4.4598,4.4598,4.4418,4.3673,4.2506,4.2219,4.1467,4.0316,4.0163,4.0113,4.0113,4.0113,4.0113,4.0113,4.0113,4.0113,4.0113,4.0113,4.0113,4.0113,4.0113,4.0113,4.0113,4.0113,3.974,3.9005,0.0,0.0,0.0,3.5475,3.5453,3.5583,3.547,3.5453,3.5583,3.547,0.0,3.56,3.5616,3.5819,3.6321,3.5757,0.0,0.0,0.0,0.0,0.0,0.0,0.0,0.0,0.0,0.0,0.0,3.8565,3.8633,3.8853,4.1255,4.2861,4.297,4.3572,4.4045,4.4361,4.4378,4.4445,4.4564,4.4012,4.3544,4.3386,4.2655,4.2071,4.1933,4.1233,4.0756,4.0709,4.0392,4.0121,4.0171,4.0096,3.9859,3.9359,3.9782,3.9876,3.9343,3.9059,3.9143,3.9595,3.8463,3.7319,3.6809,3.5554,3.452,3.4011,3.3777,3.3633,3.3659,3.3505,3.3417,3.3417,3.2868,3.241,3.241,3.1923,3.1453,3.1322,3.1146,3.0822,4.6836,0.0,4.5618,4.5145,0.0,4.5087,4.5052,4.5008,4.472,4.4598,4.4553,4.4164,4.3572,4.2811,4.2083,4.1356,4.0612,4.0265,4.0113,4.0113,4.0113,4.0113,4.0113,4.0113,4.0113,4.0113,4.0113,4.0113,4.0113,4.0113,4.0113,4.0113,4.0113,3.9723,3.9012,3.812,3.6996,3.5616,3.5616,3.5616,3.5616,3.5616,3.5616,3.5616,0.0,0.0,0.0,0.0,0.0,0.0,0.0,0.0,0.0,0.0,0.0,3.7677,3.8294,3.8673,3.8673,3.9059,3.9591,4.0314,4.073,4.0814,4.0556,4.1962,4.3131,4.3809,4.458,4.5035,4.5035,4.4966,4.4888,4.4854,4.4171,4.3558,4.3158,4.2747,4.2345,4.2001,4.1598,4.1358,4.1358,4.1127,4.0961,4.0938,4.0938,4.0776,4.0435,4.0219,3.9842,3.9089,3.8633,3.8582,3.8819,3.8125,3.7276,3.6731,3.5833,3.5041,3.4657,3.4609,3.4585,3.456,3.435,3.4087,3.4037,3.3556,3.3093,3.3066,3.2783,3.2528,3.2501,3.1992,3.1409,4.5954,4.5953,4.5231,4.4906,4.4944,4.5459,4.5673,4.5622,0.0,0.0,0.0,4.3992,4.3566,4.3242,4.2031,4.1418,4.1264,4.0675,4.041,4.0392,4.041,4.041,4.0392,4.041,4.041,4.041,4.041,4.041,4.041,4.041,4.041,4.041,4.0392,4.0051,3.9272,3.8195,3.7145,3.6124,3.5966,3.5881,3.5876,3.5876,3.5881,3.5859,3.5859,3.5949,3.6103,3.6739,3.6893,3.6534,3.7115,3.7547,3.7724,3.8671,3.9508,4.0152,4.12,4.181,4.181,4.181,4.181,4.181,4.2355,4.263,4.2432,4.2549,4.3049,4.4165,4.4858,4.5231,4.5231,4.508,4.4981,4.4986,4.4269,4.3544,4.3006,4.2888,4.2612,4.2082,4.1976,4.1976,4.1958,4.1832,4.181,4.1789,4.1686,4.181,4.1629,4.0603,3.9591,3.9054,3.8294,3.777,3.7804,3.7354,3.6846,3.6783,3.6101,3.5633,3.5616,3.5616,3.5616,3.5509,3.5121,3.4847,3.4719,3.4105,3.3625,3.3584,3.3386,3.323,3.3128,3.2291,3.1488,4.6778,4.7262,4.6477,4.6143,4.6143,4.624,4.6264,4.6264,4.6185,4.5756,4.5117,4.4994,4.422,4.2949,4.2743,4.2326,4.171,4.1604,4.1573,0.0,4.1556,4.1556,4.1556,4.1556,4.1573,4.1573,4.1534,4.1573,4.1556,4.1552,4.1573,4.1552,4.1573,4.1169,4.0405,3.902,3.817,3.8005,3.7334,3.6962,3.6962,3.6999,3.6981,3.698,3.6962,3.7316,3.7987,3.8108,3.8745,3.9893,4.0087,4.0419,4.1067,4.1237,4.1421,4.1527,4.1715,4.181,4.181,4.181,4.181,4.181,4.1899,4.2453,4.3626,4.3763,4.3845,4.4061,4.4202,4.4219,4.4184,4.4228,4.4248,4.4173,4.3536,4.3028,4.2912,4.2836,4.2721,4.2595,4.2577,4.2559,4.2519,4.2162,4.1916,4.1853,4.2,4.1853,4.1612,4.0132,3.9072,3.8802,3.7828,3.7337,3.76,3.7269,3.6864,3.6812,3.6135,3.5644,3.5616,3.5616,3.5616,3.5616,3.547,3.5391,3.5357,3.4379,3.3714,3.3498,3.2756,3.2039,3.2023,3.1713,3.1473,4.6671,4.6896,4.6548,4.6389,4.643,4.6778,4.7132,4.7409,4.7431,4.6595,4.5204,4.4774,4.3983,4.29,4.2479,4.2108,4.181,4.181,4.181,4.181,4.181,4.181,4.181,4.181,4.181,4.181,4.181,4.181,4.181,4.181,4.181,4.1775,4.1407,4.1164,4.0978,3.9547,3.8924,3.9155,3.788,3.7209,3.7209,3.7209,3.7209,3.7209,3.7209,3.7563,3.838,3.8805,3.9532,4.0651,4.1073,4.146,4.1775,4.2121,4.2302,4.2284,4.2562,4.2715,4.2716,4.2734,4.2734,4.2734,4.2734,4.3004,4.3651,4.3526,4.354,4.3875,4.4257,4.4546,4.4511,4.4443,4.4371,4.4371,4.3707,4.3219,4.3203,4.3176,4.3142,4.3142,4.3142,4.3142,4.3142,4.2884,4.2734,4.2734,4.2715,4.262,4.2271,4.0746,3.9479,3.9199,3.8009,3.728,3.7446,3.7259,3.6928,3.6629,3.6272,3.5932,3.5711,3.5622,3.5622,3.5616,3.5622,3.5414,3.5131,3.4544,3.398,3.3445,3.3018,3.2512,3.2434,3.1968,3.1587,4.671,4.6824,4.6824,4.6824,4.6869,4.7385,4.7877,4.8287,4.8287,4.7284,4.5676,4.4842,4.4057,4.3272,4.2524,4.2185,4.2185,4.2185,4.2167,4.2167,4.2185,4.2185,4.2185,4.2185,4.2185,4.2185,4.2185,4.2185,4.2167,4.2007,4.1917,4.1846,4.135,4.133,4.185,4.0509,4.0046,4.0311,3.8705,3.7721,3.7542,3.7542,3.7542,3.7542,3.7721,3.8167,3.899,3.9722,4.051,4.1298,4.1866,4.2185,4.2206,4.2637,4.2883,4.292,4.3268,4.3479,4.3479,4.3479,4.3479,4.3479,4.3479,4.3479,4.3464,4.3219,4.3222,4.3709,4.4277,4.4603,4.4569,4.4491,4.4433,4.4397,4.3901,4.3482,4.3479,4.3479,4.3479,4.3479,4.3479,4.3479,4.3479,4.3479,4.3353,4.317,4.3222,4.2992,4.2341,4.1089,4.0095,3.9441,3.8231,3.7276,3.7209,3.7207,3.7034,3.6623,3.66,3.6419,3.6143,3.5989,3.5968,3.6015,3.571,3.5377,3.4806,3.4181,3.3744,3.3157,3.2791,3.2714,3.2605,3.219,3.1797,4.7614,4.8094,4.8075,4.8114,4.8094,4.8172,4.823,4.8287,4.8324,4.7809,4.6867,4.6065,4.526,4.4492,4.3651,4.3286,4.3285,4.3339,4.3303,4.3285,4.3339,4.3339,4.3286,4.3303,4.3339,4.3285,4.3267,4.3232,4.3195,4.2573,4.2224,4.2259,4.2186,4.2461,4.3061,4.2365,4.1996,4.2047,4.0478,3.9294,3.8617,3.8564,3.858,3.858,3.9257,4.0026,4.0746,4.1618,4.2405,4.3155,4.3248,4.3303,4.3339,4.3392,4.341,4.341,4.3462,4.3479,4.3479,4.3479,4.3479,4.3479,4.3479,4.3479,4.3479,4.3447,4.3448,4.3575,4.3594,4.3704,4.3647,4.3664,4.3681,4.3718,4.3571,4.3479,4.3479,4.3479,4.3479,4.3479,4.3479,4.3479,4.3479,4.3442,4.3149,4.2488,4.2396,4.2179,4.1508,4.0615,3.9973,3.9589,3.8365,3.7411,3.7303,3.7228,3.7266,3.7154,3.7133,3.702,3.6923,3.6851,3.7002,3.6407,3.5941,3.5264,3.4749,3.3905,3.2662,3.2613,3.2128,3.1501,3.1515,3.1756,3.2085,4.8093,4.8324,4.8324,4.8324,4.8324,4.8324,4.8324,4.8324,4.8324,4.8122,4.7663,4.6471,4.5461,4.4672,4.3846,4.3479,4.3479,4.3479,4.3479,4.3479,4.3479,4.3479,4.3479,4.3479,4.3479,4.3479,4.3479,4.3479,4.3351,4.269,4.2066,4.1627,4.1572,4.2011,4.2671,4.2011,4.1827,4.2249,4.1203,4.0435,4.0049,3.9184,3.8927,3.9386,3.9735,4.0524,4.168,4.2158,4.2653,4.3406,4.3479,4.3479,4.3479,4.3479,4.3479,4.3479,4.3479,4.3479,4.3479,4.3479,4.3479,4.3479,4.3479,4.3479,4.3479,4.3479,4.3479,4.3479,4.3479,4.3479,4.3479,4.3479,4.3479,4.3479,4.3479,4.3479,4.3479,4.3479,4.3479,4.3479,4.3479,4.3479,4.3406,4.3075,4.2488,4.1791,4.1607,4.1405,4.1058,4.0432,3.9955,3.974,3.8828,3.8189,3.805,3.8101,3.7948,3.7702,3.7614,3.7578,3.725,3.6676,3.6427,3.6482,3.5625,3.4827,3.4264,3.384,3.2976,3.2572,3.202,3.1547,3.1564,3.1592,3.1665,4.8324,4.8324,4.8324,4.8324,4.8324,4.8324,4.8324,4.8324,4.8324,4.8177,4.7829,4.6507,4.5461,4.4672,4.3864,4.3479,4.3479,4.3479,4.3479,4.3479,4.3479,4.3479,4.3479,4.3479,4.3479,4.3479,4.3479,4.3276,4.2855,4.2286,4.157,4.0875,4.0765,4.1185,4.1864,4.1535,4.1701,4.2194,4.1717,4.1407,4.1258,4.0084,3.9643,4.0157,4.023,4.0799,4.1919,4.2194,4.2543,4.3147,4.3369,4.3479,4.3479,4.3479,4.3479,4.3479,4.3479,4.3479,4.3479,4.3479,4.3479,4.3479,4.3479,4.3479,4.3479,4.3479,4.3479,4.3479,4.3479,4.3479,4.3479,4.3479,4.3479,4.3479,4.3479,4.3479,4.3479,4.3479,4.3479,4.3479,4.3479,4.3387,4.3112,4.247,4.168,4.0965,4.0781,4.0653,4.0435,3.9918,3.9551,3.957,3.9022,3.8713,3.8707,3.8627,3.8481,3.83,3.8115,3.8033,3.7613,3.6898,3.638,3.6798,3.5505,3.4603,3.4195,3.3788,3.3244,3.2681,3.2248,3.2004,3.1986,3.1675,3.1447,4.8324,4.8324,4.8324,4.8324,4.8324,4.8324,4.8324,4.8324,4.8324,4.7883,4.7168,4.6305,4.5461,4.4654,4.3846,4.3479,4.3479,4.3479,4.3479,4.3479,4.3479,4.3479,4.3479,4.3479,4.3479,4.3479,4.3479,4.2782,4.1425,4.1242,4.0744,4.0029,4.001,4.0377,4.113,4.1717,4.2213,4.2176,4.2121,4.2158,4.2084,4.1352,4.0912,4.1022,4.1022,4.1058,4.1297,4.1919,4.2359,4.2378,4.3112,4.3479,4.3479,4.3479,4.3479,4.3479,4.3479,4.3479,4.3479,4.3479,4.3479,4.3479,4.3479,4.3479,4.3479,4.3479,4.3479,4.3479,4.3479,4.3479,4.3479,4.3479,4.3479,4.3479,4.3479,4.3479,4.3479,4.3479,4.3479,4.3531,4.3508,4.3135,4.2445,4.1662,4.0917,4.027,4.0,3.9813,3.9307,3.8949,3.8927,3.8942,3.8835,3.8723,3.8723,3.8707,3.8692,3.8562,3.8481,3.8523,3.8368,3.8074,3.7589,3.6854,3.538,3.4452,3.4189,3.3687,3.3016,3.2632,3.2616,3.2483,3.2466,3.2074,3.1843,4.8324,4.8324,4.8324,4.8324,4.8324,4.8324,4.8324,4.8324,4.8324,4.7828,4.7058,4.625,4.5461,4.4654,4.3846,4.3479,4.3479,4.3479,4.3479,4.3479,4.3479,4.3479,4.3479,4.3479,4.3479,4.3479,4.3479,4.2928,4.2011,4.1882,4.1185,4.01,3.9882,4.0065,4.0341,4.0598,4.1001,4.1497,4.1535,4.1534,4.1568,4.1242,4.1332,4.1809,4.1368,4.1334,4.1846,4.2158,4.2525,4.3039,4.3368,4.3479,4.3479,4.3479,4.3479,4.3479,4.3479,4.3479,4.3479,4.3479,4.3479,4.3479,4.3479,4.3479,4.3479,4.3479,4.3479,4.3479,4.3479,4.3479,4.3479,4.3479,4.3496,4.3479,4.3496,4.3531,4.3479,4.3496,4.358,4.3714,4.3576,4.2861,4.1703,4.1072,4.06,3.9898,3.9711,3.9573,3.9399,3.9262,3.9242,3.9268,3.9281,3.9203,3.8961,3.8788,3.8692,3.8692,3.8637,3.8273,3.8046,3.7257,3.6648,3.601,3.4787,3.4229,3.3927,3.3858,3.3181,3.3181,3.3136,3.2916,3.2952,3.2373,3.2227,4.8693,4.8675,4.8675,4.8675,4.8675,4.8675,4.8604,4.8532,4.864,4.8012,4.6946,4.6318,4.5507,4.4514,4.3787,4.3479,4.3479,4.3479,4.3479,4.3479,4.3479,4.3565,4.3646,4.3662,4.3726,4.3855,4.3852,4.3381,4.2567,4.2569,4.1924,4.0692,4.0622,4.0492,4.031,4.0477,4.0815,4.1045,4.1267,4.1396,4.1415,4.1656,4.1912,4.2153,4.1946,4.1936,4.2303,4.2304,4.2525,4.3057,4.3368,4.3479,4.3479,4.3479,4.3479,4.3479,4.3479,4.3479,4.3479,4.3479,4.3479,4.3479,4.3479,4.3479,4.3479,4.3479,4.3479,4.3496,4.3631,4.3662,4.3695,4.3775,4.3807,4.3726,4.3775,4.3836,4.3836,4.3852,4.381,4.3623,4.29,4.1958,4.1053,4.062,4.0186,3.9637,3.9611,3.9611,3.9611,3.9611,3.9611,3.9599,3.9564,3.9469,3.9333,3.9163,3.8826,3.877,3.8309,3.7963,3.743,3.657,3.5771,3.5078,3.4523,3.4045,3.3807,3.3807,3.3807,3.3793,3.3584,3.3285,3.3008,3.2565,3.2219,4.946,4.9431,4.9489,4.9416,4.9386,4.9386,4.9234,4.8996,4.928,4.8325,4.6698,4.6472,4.5615,4.4253,4.3795,4.3565,4.3597,4.3631,4.3546,4.3515,4.3531,4.3712,4.394,4.4001,4.4175,4.4474,4.4553,4.3979,4.2976,4.3154,4.2862,4.2221,4.2002,4.1625,4.0932,4.1456,4.1506,4.113,4.1468,4.1851,4.2071,4.2598,4.2729,4.2335,4.2781,4.2913,4.2458,4.2388,4.2458,4.2557,4.3145,4.3478,4.3496,4.3479,4.3479,4.3479,4.3479,4.3479,4.3479,4.3479,4.3479,4.3479,4.3479,4.3513,4.3546,4.3546,4.3563,4.3662,4.3833,4.3998,4.4058,4.4318,4.4387,4.4102,4.428,4.446,4.4514,4.4567,4.424,4.3353,4.2157,4.0983,4.0674,4.0295,3.9848,3.9772,3.9724,3.9735,3.9757,3.9767,3.9668,3.9668,3.9757,3.9778,3.969,3.9564,3.9165,3.8765,3.8128,3.7591,3.6914,3.6127,3.5363,3.4674,3.4284,3.3825,3.3807,3.3807,3.3807,3.3775,3.3648,3.3382,3.2898,3.2385,3.1779,4.9489,4.9489,4.9489,4.9489,4.9489,4.9489,4.9416,4.9326,4.946,4.8474,4.7032,4.6844,4.5942,4.4688,4.4294,4.4237,4.4252,4.4256,4.3989,4.3614,4.3758,4.3893,4.4028,4.4308,4.4487,4.458,4.4593,4.4427,4.4116,4.4139,4.3756,4.3077,4.295,4.2504,4.1784,4.1465,4.1095,4.0944,4.1101,4.124,4.1309,4.2076,4.2586,4.2932,4.319,4.3439,4.3812,4.3315,4.3169,4.3438,4.3704,4.3758,4.3565,4.3479,4.3479,4.3479,4.3479,4.3479,4.3515,4.3496,4.3531,4.3496,4.3496,4.3631,4.3802,4.3852,4.3974,4.4198,4.4364,4.4401,4.4455,4.4732,4.4769,4.4441,4.4527,4.4631,4.4651,4.4787,4.4235,4.3072,4.2515,4.1887,4.0911,4.0289,4.0243,4.0166,4.0175,4.0194,4.0193,4.0138,4.023,4.023,4.0212,4.0091,4.0003,3.977,3.9388,3.8715,3.797,3.719,3.647,3.5755,3.5003,3.444,3.4036,3.3844,3.3825,3.3807,3.3807,3.3642,3.3413,3.3051,3.2643,3.2125,3.1536,4.9949,4.9949,4.9949,4.9949,4.9949,4.9949,4.9859,4.9703,4.9524,4.8618,4.734,4.6872,4.602,4.4953,4.4676,4.4593,4.4593,4.4593,4.435,4.3992,4.4106,4.4257,4.4441,4.4787,4.4877,4.4837,4.4919,4.4908,4.48,4.49,4.4692,4.4227,4.4151,4.3743,4.2982,4.243,4.2068,4.1772,4.1745,4.1707,4.1878,4.2506,4.3142,4.3637,4.3999,4.4417,4.492,4.4436,4.417,4.4219,4.4219,4.4106,4.3931,4.3915,4.3899,4.3899,4.3934,4.3915,4.3899,4.3943,4.3899,4.3899,4.3899,4.3989,4.4175,4.4237,4.4378,4.454,4.4707,4.4788,4.4818,4.5085,4.515,4.5,4.4988,4.4977,4.4981,4.4853,4.443,4.3484,4.3136,4.2376,4.1431,4.0989,4.0796,4.0631,4.0496,4.0496,4.0496,4.0481,4.0489,4.0489,4.0422,4.0319,4.0286,3.9984,3.9603,3.8743,3.7804,3.6956,3.6183,3.5457,3.4721,3.4345,3.3941,3.3852,3.3807,3.3807,3.3788,3.3495,3.3319,3.3078,3.2766,3.1959,3.1351,5.0683,5.0683,5.0683,5.0624,5.0624,5.0624,5.0421,5.0073,4.962,4.8696,4.7564,4.6778,4.593,4.5197,4.4872,4.4757,4.4688,4.4732,4.4745,4.467,4.4695,4.4818,4.5085,4.5352,4.5342,4.5211,4.541,4.54,4.514,4.5362,4.5586,4.5417,4.5331,4.5173,4.4371,4.428,4.3726,4.3133,4.3101,4.3101,4.3139,4.3917,4.4339,4.4407,4.5061,4.5455,4.5465,4.5379,4.5147,4.472,4.458,4.4527,4.4553,4.458,4.4514,4.4501,4.4567,4.4527,4.4553,4.4474,4.4487,4.4474,4.4474,4.4606,4.4606,4.4618,4.467,4.4788,4.4977,4.5118,4.5191,4.5381,4.5522,4.5577,4.5466,4.5495,4.5491,4.4914,4.4446,4.4175,4.3605,4.2777,4.1885,4.17,4.1296,4.0746,4.0496,4.0496,4.0496,4.0496,4.0496,4.0496,4.0496,4.0473,4.0372,3.9904,3.9467,3.852,3.7576,3.6709,3.591,3.5203,3.4741,3.4358,3.408,3.3954,3.3895,3.3972,3.3941,3.3817,3.3607,3.3351,3.2779,3.1971,3.1268,5.0683,5.0683,5.0683,5.0683,5.0683,5.0683,5.0653,5.0439,4.9702,4.8789,4.7904,4.7098,4.6206,4.5505,4.5362,4.5342,4.5293,4.5293,4.5342,4.5323,4.5342,4.539,4.5467,4.555,4.554,4.5485,4.5531,4.5559,4.5466,4.554,4.5594,4.5594,4.5594,4.5518,4.5229,4.4643,4.4239,4.4008,4.397,4.3989,4.4105,4.4806,4.5248,4.5287,4.5479,4.5594,4.5594,4.5594,4.5419,4.5019,4.4707,4.4593,4.4631,4.4631,4.4657,4.4657,4.4631,4.4606,4.4618,4.4618,4.4606,4.4593,4.4657,4.4707,4.4943,4.4966,4.5096,4.5263,4.5438,4.5448,4.5457,4.5531,4.5594,4.5594,4.5594,4.5594,4.5556,4.5402,4.5028,4.4432,4.4124,4.3355,4.2393,4.1854,4.1546,4.0835,4.0535,4.0496,4.0496,4.0496,4.0496,4.0496,4.0496,4.0496,4.0346,3.9865,3.9204,3.8239,3.7321,3.6408,3.5683,3.503,3.4761,3.4551,3.4442,3.4314,3.4314,3.433,3.4237,3.4117,3.3642,3.3253,3.272,3.2021,3.1336,5.0683,5.0683,5.0683,5.0683,5.0683,5.0683,5.0683,5.0442,4.9375,4.8586,4.7932,4.6836,4.6075,4.5614,4.5586,4.5594,4.5594,4.5594,4.5586,4.5586,4.5577,4.5577,4.5586,4.5594,4.5594,4.5594,4.5594,4.5594,4.5586,4.5594,4.5594,4.5594,4.5594,4.5594,4.5537,4.5171,4.4836,4.4855,4.4855,4.4836,4.4902,4.5325,4.5537,4.5594,4.5594,4.5594,4.5594,4.5594,4.5504,4.5312,4.5129,4.5022,4.5022,4.5011,4.5011,4.5022,4.5022,4.5041,4.5022,4.5022,4.5022,4.5022,4.5041,4.5107,4.5263,4.5312,4.5429,4.555,4.5594,4.5594,4.5594,4.5594,4.5594,4.5594,4.5594,4.5594,4.5594,4.5575,4.5383,4.5009,4.4778,4.4374,4.2989,4.2566,4.1931,4.1258,4.07,4.0585,4.0496,4.0496,4.0496,4.0496,4.0496,4.0496,4.0285,3.9842,3.9008,3.8038,3.6889,3.6012,3.5618,3.5025,3.4944,3.486,3.4764,3.4694,3.4674,3.4603,3.4497,3.4226,3.3673,3.3418,3.3093,3.2588,3.182,5.0683,5.0683,5.0683,5.0683,5.0683,5.0683,5.0683,5.0375,4.9086,4.8279,4.7817,4.6451,4.5864,4.5594,4.5594,4.5594,4.5594,4.5594,4.5594,4.5594,4.5594,4.5594,4.5594,4.5594,4.5594,4.5594,4.5594,4.5594,4.5594,4.5594,4.5594,4.5594,4.5594,4.5594,4.5594,4.5537,4.5575,4.5498,4.546,4.5441,4.5441,4.5556,4.5594,4.5594,4.5594,4.5594,4.5594,4.5594,4.5577,4.5586,4.5594,4.555,4.554,4.5558,4.5549,4.5541,4.5475,4.5513,4.5568,4.5485,4.554,4.5513,4.5522,4.5594,4.5559,4.5531,4.5568,4.5586,4.5594,4.5594,4.5594,4.5594,4.5594,4.5594,4.5594,4.5594,4.5594,4.5594,4.5594,4.5594,4.5575,4.5171,4.4432,4.3643,4.2835,4.1623,4.1104,4.0854,4.065,4.0496,4.0496,4.0496,4.0496,4.0496,4.0189,3.9823,3.8854,3.7834,3.6519,3.5664,3.5624,3.5281,3.5198,3.5113,3.5079,3.499,3.4926,3.486,3.4754,3.4646,3.4287,3.4266,3.4203,3.3527,3.2794,5.0683,5.0683,5.0683,5.0683,5.0683,5.0683,5.0683,5.0587,4.9567,4.8625,4.7971,4.7028,4.622,4.5594,4.5594,4.5594,4.5594,4.5594,4.5594,4.5594,4.5594,4.5594,4.5594,4.5594,4.5594,4.5594,4.5594,4.5594,4.5594,4.5594,4.5594,4.5594,4.5594,4.5594,4.5594,4.5594,4.5594,4.5594,4.5594,4.5594,4.5594,4.5594,4.5594,4.5594,4.5594,4.5594,4.5594,4.5594,4.5594,4.5594,4.5594,4.5594,4.5594,4.5594,4.5594,4.5594,4.5594,4.5594,4.5594,4.5594,4.5594,4.5594,4.5594,4.5594,4.5594,4.5594,4.5594,4.5594,4.5594,4.5594,4.5594,4.5594,4.5594,4.5594,4.5594,4.5594,4.5594,4.5594,4.5594,4.5594,4.5575,4.5287,4.4451,4.422,4.3335,4.2143,4.1546,4.1181,4.0893,4.0612,4.0496,4.0496,4.0496,4.0477,4.0285,3.9746,3.87,3.7738,3.6481,3.5538,3.5518,3.5472,3.5361,3.5361,3.5391,3.5304,3.5174,3.5115,3.5027,3.4944,3.4879,3.4754,3.4538,3.4097,3.3791,5.0683,5.0683,5.0683,5.0683,5.0683,5.0683,5.0683,5.0433,4.9298,4.8529,4.7913,4.6855,4.6028,4.5614,4.5594,4.5594,4.5594,4.5594,4.5594,4.5594,4.5594,4.5594,4.5594,4.5594,4.5594,4.5594,4.5594,4.5594,4.5594,4.5594,4.5594,4.5594,4.5594,4.5594,4.5594,4.5594,4.5594,4.5594,4.5594,4.5594,4.5594,4.5594,4.5594,4.5594,4.5594,4.5594,4.5594,4.5594,4.5594,4.5594,4.5594,4.5594,4.5594,4.5594,4.5594,4.5594,4.5594,4.5594,4.5594,4.5594,4.5594,4.5594,4.5594,4.5594,4.5594,4.5594,4.5594,4.5594,4.5594,4.5594,4.5594,4.5594,4.5594,4.5594,4.5594,4.5594,4.5594,4.5594,4.5594,4.5594,4.5594,4.5421,4.5047,4.4662,4.4201,4.3162,4.1962,4.1566,4.1258,4.0969,4.0593,4.0496,4.0496,4.0458,4.0323,3.9669,3.8565,3.7623,3.6642,3.5904,3.557,3.5532,3.5474,3.5474,3.5467,3.5474,3.5369,3.5331,3.5273,3.5258,3.5182,3.5034,3.4869,3.4614,3.44,5.0683,5.0683,5.0683,5.0683,5.0683,5.0683,5.0587,5.024,4.8971,4.8259,4.7702,4.6355,4.5932,4.5633,4.5594,4.5594,4.5594,4.5594,4.5594,4.5594,4.5594,4.5594,4.5594,4.5594,4.5594,4.5594,4.5594,4.5594,4.5594,4.5594,4.5594,4.5594,4.5594,4.5594,4.5594,4.5594,4.5594,4.5594,4.5594,4.5594,4.5594,4.5594,4.5594,4.5594,4.5594,4.5594,4.5594,4.5594,4.5594,4.5594,4.5594,4.5594,4.5594,4.5594,4.5594,4.5594,4.5594,4.5594,4.5594,4.5594,4.5594,4.5594,4.5594,4.5594,4.5594,4.5594,4.5594,4.5594,4.5594,4.5594,4.5594,4.5594,4.5594,4.5594,4.5594,4.5594,4.5594,4.5594,4.5594,4.5594,4.5594,4.5479,4.5325,4.5037,4.4662,4.4143,4.2931,4.2038,4.1777,4.1393,4.1046,4.0689,4.0689,4.0535,4.0381,3.99,3.8738,3.8104,3.7103,3.6481,3.6,3.5923,3.5904,3.5538,3.55,3.55,3.55,3.5439,3.5432,3.5481,3.5439,3.5281,3.519,3.5149,3.4906,5.0683,5.0683,5.0683,5.0683,5.0683,5.0683,5.0308,4.9644,4.926,4.8355,4.7163,4.6778,4.6163,4.5768,4.5594,4.5594,4.5594,4.5594,4.5594,4.5594,4.5594,4.5594,4.5594,4.5594,4.5594,4.5594,4.5594,4.5594,4.5594,4.5594,4.5594,4.5594,4.5594,4.5594,4.5594,4.5594,4.5594,4.5594,4.5594,4.5594,4.5594,4.5594,4.5594,4.5594,4.5594,4.5594,4.5594,4.5594,4.5594,4.5594,4.5594,4.5594,4.5594,4.5594,4.5594,4.5594,4.5594,4.5594,4.5594,4.5594,4.5594,4.5594,4.5594,4.5594,4.5594,4.5594,4.5594,4.5594,4.5594,4.5594,4.5594,4.5594,4.5594,4.5594,4.5594,4.5594,4.5594,4.5594,4.5594,4.5594,4.5594,4.5594,4.5441,4.5306,4.5047,4.4643,4.3855,4.3124,4.2777,4.2239,4.1681,4.1277,4.0939,4.0708,4.0477,3.99,3.9161,3.8873,3.8104,3.7373,3.6923,3.6635,3.6385,3.6212,3.5769,3.55,3.55,3.55,3.55,3.55,3.5493,3.5486,3.5395,3.5281,3.519,5.0683,5.0683,5.0683,5.0683,5.0683,5.0683,5.0202,4.9413,4.8913,4.8067,4.7067,4.6432,4.6018,4.5671,4.5594,4.5594,4.5594,4.5594,4.5594,4.5594,4.5594,4.5594,4.5594,4.5594,4.5594,4.5594,4.5594,4.5594,4.5594,4.5594,4.5594,4.5594,4.5594,4.5594,4.5594,4.5594,4.5594,4.5594,4.5594,4.5594,4.5594,4.5594,4.5594,4.5594,4.5594,4.5594,4.5594,4.5594,4.5594,4.5594,4.5594,4.5594,4.5594,4.5594,4.5594,4.5594,4.5594,4.5594,4.5594,4.5594,4.5594,4.5594,4.5594,4.5594,4.5594,4.5594,4.5594,4.5594,4.5594,4.5594,4.5594,4.5594,4.5594,4.5594,4.5594,4.5594,4.5594,4.5594,4.5594,4.5594,4.5594,4.5594,4.5594,4.546,4.5364,4.5017,4.4594,4.4182,4.3758,4.3104,4.2393,4.1566,4.1085,4.0708,4.0496,4.015,3.965,3.9373,3.9065,3.8334,3.7777,3.7469,3.7296,3.7142,3.6584,3.5865,3.5519,3.5538,3.5519,3.55,3.55,3.5493,3.5479,3.5417,3.5304,5.0683,5.0683,5.05,5.0442,5.0404,5.0231,4.9644,4.8875,4.8163,4.7385,4.6605,4.597,4.5633,4.5594,4.5594,4.5594,4.5594,4.5594,4.5594,4.5594,4.5594,4.5594,4.5594,4.5594,4.5594,4.5594,4.5594,4.5594,4.5594,4.5594,4.5594,4.5594,4.5594,4.5594,4.5594,4.5594,4.5594,4.5594,4.5594,4.5594,4.5594,4.5594,4.5594,4.5594,4.5594,4.5594,4.5594,4.5594,4.5594,4.5594,4.5594,4.5594,4.5594,4.5594,4.5594,4.5594,4.5594,4.5594,4.5594,4.5594,4.5594,4.5594,4.5594,4.5594,4.5594,4.5594,4.5594,4.5594,4.5594,4.5594,4.5594,4.5594,4.5594,4.5594,4.5594,4.5594,4.5594,4.5594,4.5594,4.5594,4.5594,4.5603,4.5612,4.5594,4.546,4.5421,4.5017,4.494,4.4489,4.3835,4.3047,4.1912,4.1181,4.07,4.0496,4.0496,4.0092,3.9815,3.965,3.9227,3.87,3.8257,3.8104,3.7873,3.7199,3.6519,3.6058,3.5596,3.5519,3.55,3.55,3.55,3.5486,3.5486,3.5432,5.0683,5.0616,4.9875,4.9548,4.9442,4.8798,4.799,4.7317,4.7182,4.6547,4.5864,4.5691,4.5594,4.5594,4.5594,4.5594,4.5594,4.5594,4.5594,4.5594,4.5594,4.5594,4.5594,4.5594,4.5594,4.5594,4.5594,4.5594,4.5594,4.5594,4.5594,4.5594,4.5594,4.5594,4.5594,4.5594,4.5594,4.5594,4.5594,4.5594,4.5594,4.5594,4.5594,4.5594,4.5594,4.5594,4.5594,4.5594,4.5594,4.5594,4.5594,4.5594,4.5594,4.5594,4.5594,4.5594,4.5594,4.5594,4.5594,4.5594,4.5594,4.5594,4.5594,4.5594,4.5594,4.5594,4.5594,4.5594,4.5594,4.5594,4.5594,4.5594,4.5594,4.5594,4.5594,4.5594,4.5594,4.5594,4.5594,4.561,4.5618,4.5618,4.5618,4.5612,4.5575,4.5556,4.5518,4.5419,4.5145,4.4461,4.3875,4.2811,4.1659,4.108,4.0797,4.0757,4.0498,4.0239,4.0106,3.9983,3.9579,3.9085,3.8738,3.8392,3.7796,3.7373,3.7026,3.6526,3.5827,3.5558,3.5635,3.5577,3.55,3.55,3.55,4.9695,5.0055,4.9585,4.9169,4.8745,4.8275,4.7654,4.7019,4.6885,4.6413,4.571,4.5594,4.5594,4.5594,4.5594,4.5594,4.5594,4.5594,4.5594,4.5594,4.5594,4.5594,4.5594,4.5594,4.5594,4.5594,4.5594,4.5594,4.5594,4.5594,4.5594,4.5594,4.5594,4.5594,4.5594,4.5594,4.5594,4.5594,4.5594,4.5594,4.5594,4.5594,4.5594,4.5594,4.5594,4.5594,4.5594,4.5594,4.5594,4.5594,4.5594,4.5594,4.5594,4.5594,4.5594,4.5594,4.5594,4.5594,4.5594,4.5614,4.5594,4.5594,4.5594,4.5594,4.5594,4.5594,4.5594,4.5594,4.5594,4.5594,4.5594,4.5594,4.5594,4.5594,4.5594,4.5594,4.5594,4.5594,4.5603,4.5627,4.5657,4.5669,4.5685,4.5653,4.5645,4.5637,4.5646,4.5621,4.5376,4.4904,4.4385,4.3846,4.2662,4.1576,4.1329,4.1174,4.0833,4.0607,4.0507,4.0378,4.0275,3.9919,3.9543,3.9299,3.8977,3.8546,3.8084,3.7238,3.6372,3.6058,3.5827,3.5692,3.5577,3.55,3.5481,4.8718,4.9026,4.891,4.8531,4.7999,4.7697,4.7198,4.6677,4.6607,4.6267,4.5778,4.561,4.5594,4.5594,4.5594,4.5594,4.5594,4.5594,4.5594,4.5594,4.5594,4.5594,4.5594,4.5594,4.5594,4.5594,4.5594,4.5594,4.5594,4.5594,4.5594,4.5594,4.5594,4.5594,4.5594,4.5594,4.5594,4.5594,4.5594,4.5594,4.5594,4.5594,4.5594,4.5594,4.5594,4.5594,4.5594,4.5594,4.5594,4.5594,4.5594,4.5594,4.5594,4.5594,4.5806,4.5932,4.6067,4.6028,4.5932,4.5817,4.5652,4.5594,4.5594,4.5594,4.5594,4.5594,4.5594,4.5594,4.5594,4.5594,4.5594,4.5594,4.5594,4.5594,4.5594,4.5594,4.5603,4.5618,4.5648,4.57,4.5747,4.5783,4.577,4.5715,4.5713,4.5725,4.5743,4.5808,4.5553,4.521,4.4802,4.434,4.3441,4.241,4.2201,4.1863,4.1428,4.107,4.0995,4.0809,4.0704,4.0565,4.0287,4.0104,4.0017,3.9688,3.9227,3.8046,3.693,3.6538,3.6154,3.5827,3.5654,3.5577,3.55,4.8117,4.7524,4.7434,4.7349,4.7218,4.6382,4.6061,4.6051,4.6008,4.5958,4.5789,4.5673,4.5629,4.5603,4.5603,4.5594,4.5594,4.5594,4.5594,4.5594,4.5594,4.5594,4.5594,4.5594,4.5594,4.5594,4.5594,4.5594,4.5594,4.5594,4.5594,4.5594,4.5594,4.5594,4.5594,4.5594,4.5594,4.5594,4.5594,4.5594,4.5594,4.5594,4.5594,4.5594,4.5594,4.5594,4.5594,4.5594,4.5594,4.5594,4.5748,4.5787,4.5845,4.5979,4.6297,4.6663,4.6797,4.6797,4.6721,4.6182,4.5682,4.5614,4.5594,4.5594,4.5594,4.5594,4.5594,4.5594,4.5594,4.5594,4.5594,4.5594,4.5594,4.5612,4.561,4.564,4.5657,4.5661,4.5696,4.5756,4.5808,4.5885,4.5944,4.5906,4.5828,4.5811,4.5871,4.5914,4.5788,4.5475,4.5129,4.4639,4.3969,4.3385,4.3226,4.2834,4.2281,4.1947,4.1808,4.1467,4.1139,4.1019,4.1259,4.1022,4.0926,4.0665,4.0262,3.9208,3.8143,3.7125,3.6538,3.6392,3.6058,3.5865,3.5692,4.6972,4.671,4.6677,4.6594,4.6489,4.6084,4.5899,4.5899,4.5899,4.5876,4.5855,4.5764,4.5711,4.57,4.5637,4.5594,4.5594,4.5594,4.5594,4.5594,4.5594,4.5594,4.5594,4.5594,4.5594,4.5594,4.5594,4.5594,4.5594,4.5594,4.5594,4.5594,4.5594,4.5594,4.5594,4.5594,4.5594,4.5594,4.5594,4.5594,4.5594,4.5594,4.5594,4.5594,4.5594,4.5594,4.5594,4.5594,4.5594,4.5729,4.6086,4.6259,4.6413,4.674,4.7182,4.7567,4.7625,4.7644,4.7509,4.6855,4.6201,4.5652,4.5594,4.5652,4.5729,4.5633,4.5594,4.5594,4.5594,4.5594,4.5594,4.5594,4.5603,4.561,4.5648,4.5688,4.5713,4.5729,4.577,4.5864,4.5938,4.6008,4.6064,4.6106,4.5998,4.5924,4.5988,4.6016,4.5898,4.5859,4.5547,4.5312,4.4707,4.4433,4.4277,4.373,4.3105,4.2873,4.2661,4.2339,4.207,4.2412,4.2534,4.2223,4.178,4.1443,4.0964,4.0301,3.9373,3.8262,3.7572,3.718,3.6776,3.6288,3.6135,4.6289,4.6289,4.6289,4.6247,4.6147,4.605,4.6008,4.6008,4.6014,4.5988,4.594,4.5866,4.5821,4.5776,4.5723,4.5618,4.5612,4.5594,4.5594,4.5594,4.5594,4.5594,4.5594,4.5594,4.5594,4.5594,4.5594,4.5594,4.5594,4.5594,4.5594,4.5594,4.5594,4.5594,4.5594,4.5594,4.5594,4.5594,4.5594,4.5594,4.5594,4.5594,4.5594,4.5594,4.5594,4.5594,4.5594,4.5594,4.5594,4.5864,4.6278,4.6797,4.7154,4.7605,4.8144,4.8394,4.849,4.8509,4.8298,4.7721,4.7028,4.6644,4.6509,4.6355,4.6067,4.5951,4.6028,4.5594,4.5594,4.5594,4.5612,4.5635,4.5653,4.5688,4.577,4.5799,4.5811,4.582,4.5896,4.5959,4.6033,4.6094,4.6152,4.6211,4.6172,4.6094,4.6113,4.6172,4.6152,4.6133,4.6113,4.5898,4.5625,4.5469,4.5332,4.4629,4.4004,4.3841,4.362,4.3403,4.3312,4.3582,4.3504,4.2987,4.2552,4.2196,4.1607,4.0877,4.0152,3.936,3.8614,3.7798,3.7507,3.7077,3.693,4.6289,4.6289,4.6289,4.6289,4.6269,4.6289,4.6269,4.623,4.625,4.62,4.6082,4.5963,4.5857,4.5826,4.5803,4.5735,4.5661,4.5632,4.5632,4.5657,4.5632,4.561,4.5612,4.562,4.5594,4.5594,4.5594,4.5594,4.5594,4.5594,4.5594,4.5594,4.5594,4.5594,4.5594,4.5594,4.5594,4.5594,4.5594,4.5594,4.5614,4.5691,4.5806,4.5825,4.5845,4.5855,4.5864,4.5652,4.5691,4.5998,4.6663,4.7144,4.7394,4.8067,4.8721,4.9298,4.9356,4.9375,4.9317,4.8548,4.8105,4.774,4.7451,4.7375,4.699,4.6797,4.6528,4.6047,4.5813,4.5706,4.5679,4.5703,4.5756,4.5796,4.5852,4.5918,4.5912,4.5971,4.6042,4.6082,4.611,4.6152,4.623,4.6289,4.6289,4.6269,4.6289,4.6289,4.6289,4.6289,4.6289,4.623,4.6055,4.5996,4.5762,4.5351,4.4941,4.4766,4.4629,4.4473,4.4277,4.4278,4.4067,4.3711,4.34,4.31,4.2302,4.1439,4.0727,3.9972,3.9036,3.8346,3.8087,3.7911,3.7738,4.6289,4.6289,4.6289,4.6289,4.6289,4.6289,4.6289,4.6289,4.6289,4.6269,4.6222,4.6084,4.6008,4.5983,4.591,4.5845,4.5799,4.5799,4.5799,4.5801,4.5743,4.574,4.5715,4.566,4.5612,4.5594,4.5594,4.5594,4.5594,4.5594,4.5594,4.5594,4.5594,4.5594,4.5594,4.5594,4.5594,4.5594,4.5594,4.5614,4.5691,4.6124,4.6471,4.6471,4.6471,4.6471,4.6413,4.6095,4.6037,4.649,4.7259,4.7875,4.8394,4.9183,4.9817,5.0183,5.0221,5.0269,5.025,4.9837,4.924,4.8644,4.8221,4.8144,4.7721,4.7682,4.7221,4.6726,4.6521,4.631,4.5896,4.5858,4.5871,4.5881,4.5932,4.6001,4.605,4.6145,4.6222,4.6224,4.6246,4.623,4.6269,4.6289,4.6289,4.6289,4.6289,4.6289,4.6289,4.6289,4.6289,4.6289,4.623,4.625,4.6113,4.5762,4.5644,4.5547,4.5625,4.5723,4.5488,4.5098,4.5156,4.5058,4.4531,4.3962,4.3195,4.2373,4.1404,4.0553,3.9899,3.9277,3.8961,3.8758,3.8527,4.6289,4.6289,4.6289,4.6289,4.6289,4.6289,4.6289,4.6289,4.6289,4.6289,4.6269,4.6201,4.6122,4.608,4.6027,4.5939,4.5907,4.5899,4.5899,4.589,4.5841,4.5814,4.5769,4.573,4.5692,4.5657,4.5637,4.562,4.5673,4.561,4.5594,4.5594,4.5594,4.5594,4.5594,4.5594,4.5594,4.5691,4.5836,4.6144,4.6374,4.6778,4.7288,4.7308,4.7308,4.7327,4.7182,4.6932,4.6701,4.7375,4.8067,4.8759,4.951,5.0125,5.0625,5.0683,5.0693,5.0673,5.0635,5.0616,4.9933,4.9336,4.9029,4.8836,4.8644,4.8548,4.8067,4.763,4.7457,4.6969,4.6455,4.6377,4.6344,4.6369,4.6209,4.6298,4.6269,4.6348,4.6367,4.6367,4.6289,4.6289,4.6289,4.6289,4.6289,4.6289,4.6289,4.6289,4.6289,4.6289,4.6289,4.6289,4.6289,4.6289,4.6289,4.6191,4.6152,4.6269,4.6289,4.6289,4.623,4.5781,4.6094,4.6211,4.5293,4.4531,4.4121,4.3363,4.2415,4.1753,4.1283,4.0641,3.9971,3.9605,3.9346,4.6289,4.6289,4.6289,4.6289,4.6289,4.6289,4.6289,4.6289,4.6289,4.6289,4.6289,4.6289,4.6225,4.612,4.611,4.6047,4.5981,4.5944,4.5967,4.5932,4.5944,4.5886,4.5836,4.5815,4.579,4.5775,4.5868,4.6056,4.5899,4.5951,4.5874,4.5594,4.5594,4.5594,4.5594,4.5594,4.5691,4.597,4.6336,4.6682,4.7028,4.7702,4.8067,4.8163,4.8154,4.8144,4.8048,4.7894,4.7932,4.8336,4.8894,4.926,4.9721,5.026,5.0529,5.0683,5.0683,5.0683,5.0683,5.0683,5.0664,5.0221,5.0375,5.0106,4.9721,4.9404,4.8989,4.8546,4.8283,4.7759,4.7306,4.7233,4.7186,4.697,4.6671,4.6621,4.6543,4.6523,4.6504,4.6465,4.6328,4.6289,4.6289,4.6289,4.6387,4.6289,4.6289,4.6289,4.6289,4.6289,4.6289,4.6289,4.6289,4.6289,4.6289,4.6289,4.6289,4.6289,4.6289,4.6289,4.6289,4.6289,4.6289,4.6094,4.5566,4.5,4.4531,4.4023,4.3431,4.2851,4.2344,4.1468,4.0655,4.0438,4.0258,4.6289,4.6289,4.6289,4.6289,4.6289,4.6289,4.6289,4.6289,4.6289,4.6289,4.6289,4.6289,4.6269,4.6247,4.6226,4.6211,4.6191,4.6177,4.6198,4.6168,4.6077,4.605,4.5986,4.5929,4.5901,4.6104,4.636,4.6682,4.6788,4.6694,4.6179,4.5717,4.5879,4.5794,4.5757,4.5633,4.6086,4.649,4.6932,4.7278,4.7875,4.8586,4.8875,4.9009,4.9029,4.9009,4.8971,4.8509,4.8548,4.9086,4.924,4.9567,5.0366,5.0577,5.0683,5.0683,5.0683,5.0683,5.0683,5.0683,5.0683,5.0693,5.0702,5.0654,5.0385,5.0153,4.9861,4.9467,4.924,4.8868,4.8431,4.8245,4.8125,4.7871,4.7637,4.7519,4.7461,4.7461,4.7383,4.6894,4.6758,4.6641,4.6601,4.6484,4.6543,4.6387,4.6289,4.6289,4.6289,4.6289,4.6289,4.6289,4.6289,4.6289,4.6289,4.6289,4.6289,4.6289,4.6289,4.6289,4.6289,4.6289,4.6289,4.6133,4.582,4.5371,4.4863,4.4492,4.4316,4.375,4.3203,4.2226,4.1461,4.1326,4.1165,4.6289,4.6289,4.6289,4.6289,4.6289,4.6289,4.6289,4.6289,4.6289,4.6289,4.6289,4.6289,4.6289,4.6289,4.6289,4.6289,4.6289,4.6269,4.6269,4.6247,4.6211,4.6145,4.608,4.6072,4.6264,4.6543,4.6953,4.7332,4.7622,4.7651,4.7256,4.6858,4.6653,4.6607,4.6698,4.6817,4.7201,4.7509,4.7778,4.7952,4.8606,4.9433,4.9779,4.9856,4.9885,4.9885,4.9837,4.9202,4.9452,4.9837,4.9894,5.0115,5.0654,5.0693,5.0683,5.0683,5.0683,5.0683,5.0683,5.0683,5.0683,5.0712,5.0758,5.0763,5.0771,5.0623,5.0422,5.0185,5.0217,5.0114,4.9664,4.9277,4.9082,4.8887,4.873,4.8594,4.8613,4.8633,4.8203,4.7598,4.7344,4.7207,4.707,4.6894,4.6641,4.6406,4.6289,4.6289,4.6289,4.6289,4.6289,4.6289,4.6289,4.6289,4.6289,4.6289,4.6289,4.6289,4.6289,4.6289,4.6289,4.6289,4.6289,4.6289,4.625,4.582,4.541,4.5469,4.5293,4.4687,4.4141,4.3476,4.2812,4.2476,4.2276,4.6289,4.6289,4.6289,4.6289,4.6289,4.6289,4.6289,4.6328,4.6426,4.6406,4.6465,4.6426,4.6582,4.6816,4.6719,4.6582,4.6504,4.6426,4.6289,4.6308,4.6269,4.623,4.6152,4.6154,4.6526,4.7055,4.7605,4.805,4.8583,4.8631,4.8487,4.8341,4.8106,4.7882,4.769,4.7682,4.8067,4.8644,4.8606,4.8625,4.9433,5.0183,5.0683,5.0625,5.0606,5.0606,5.0625,5.0625,5.0683,5.0683,5.0693,5.0635,5.0673,5.0683,5.0683,5.0683,5.0683,5.0683,5.0683,5.0683,5.0683,5.073,5.0822,5.084,5.0867,5.0916,5.0758,5.0755,5.0735,5.0684,5.0315,5.0195,5.0058,4.9883,4.9726,4.9473,4.9277,4.918,4.8789,4.834,4.8262,4.8105,4.7832,4.7676,4.7363,4.6797,4.6543,4.6562,4.6582,4.6582,4.6484,4.6465,4.6328,4.6328,4.6289,4.6289,4.6289,4.6289,4.6289,4.6289,4.6289,4.6289,4.6289,4.6289,4.6289,4.6289,4.6094,4.6016,4.584,4.543,4.4961,4.4707,4.4258,4.3808,4.3279,4.6289,4.6289,4.6289,4.6289,4.6289,4.6289,4.6289,4.6367,4.7031,4.7246,4.7285,4.7344,4.7637,4.7988,4.748,4.7285,4.7187,4.6855,4.6387,4.6426,4.6445,4.6484,4.6308,4.6426,4.6836,4.7516,4.8156,4.8921,4.9515,4.9564,4.9192,4.8471,4.849,4.8556,4.841,4.8373,4.8777,4.95,4.9394,4.9471,5.0202,5.0433,5.0683,5.0683,5.0683,5.0683,5.0683,5.0683,5.0683,5.0683,5.0683,5.0693,5.0683,5.0683,5.0683,5.0683,5.0683,5.0683,5.0702,5.0712,5.0712,5.0757,5.083,5.0863,5.0925,5.101,5.1084,5.1125,5.1144,5.1088,5.1035,5.1016,5.0976,5.0801,5.0644,5.0273,4.9922,4.9668,4.9375,4.9297,4.9219,4.9004,4.873,4.8398,4.8047,4.7734,4.7441,4.7344,4.7344,4.7324,4.7012,4.6875,4.6445,4.6348,4.6387,4.6289,4.6289,4.6289,4.6289,4.6289,4.6308,4.6289,4.6289,4.6289,4.6289,4.6289,4.6289,4.6269,4.6055,4.582,4.5742,4.5449,4.5527,4.5254,4.4531,4.6289,4.6289,4.6289,4.6289,4.6289,4.6289,4.6289,4.6445,4.7226,4.7812,4.8164,4.8223,4.8476,4.8906,4.8359,4.8164,4.8086,4.7715,4.7656,4.748,4.6992,4.6933,4.6875,4.6914,4.7539,4.8223,4.9433,5.027,5.0508,5.0589,5.0179,4.9581,4.9503,4.9432,4.9312,4.9335,4.9437,4.9962,4.9923,5.0221,5.0683,5.0683,5.0683,5.0683,5.0683,5.0683,5.0683,5.0683,5.0683,5.0683,5.0683,5.0683,5.0683,5.0683,5.0683,5.0683,5.0683,5.0693,5.0721,5.0739,5.0773,5.0839,5.0946,5.1045,5.1087,5.1167,5.1187,5.123,5.1288,5.125,5.125,5.123,5.123,5.1113,5.1074,5.0898,5.0742,5.0605,5.0469,5.0469,5.0332,5.0058,4.9766,4.9453,4.9062,4.8457,4.8203,4.8183,4.8183,4.8223,4.7851,4.7578,4.7305,4.6973,4.6992,4.6699,4.6289,4.6289,4.6504,4.6367,4.6406,4.6328,4.6289,4.6289,4.6289,4.6289,4.6289,4.6289,4.6289,4.6113,4.6152,4.6172,4.6289,4.6289,4.5625,4.6289,4.6289,4.6289,4.6289,4.6289,4.6289,4.6387,4.6641,4.7402,4.8301,4.9043,4.9199,4.9219,4.9219,4.9062,4.9062,4.8926,4.8555,4.8691,4.8516,4.8027,4.7851,4.7754,4.7812,4.8379,4.9258,5.043,5.0918,5.1211,5.1191,5.1143,5.1215,5.1177,5.1063,5.0978,5.0835,5.0708,5.0573,5.0538,5.0596,5.0683,5.0683,5.0683,5.0683,5.0683,5.0683,5.0683,5.0683,5.0683,5.0683,5.0683,5.0683,5.0683,5.0683,5.0683,5.0683,5.0683,5.0721,5.0767,5.0819,5.0879,5.0972,5.1133,5.1199,5.1249,5.1421,5.1429,5.1582,5.1641,5.1641,5.1641,5.1641,5.1641,5.1426,5.1426,5.1406,5.1348,5.1289,5.1308,5.1348,5.1133,5.0859,5.0664,5.0371,4.9922,4.9336,4.9062,4.9082,4.9101,4.916,4.9043,4.8867,4.8691,4.834,4.7871,4.7441,4.6992,4.7129,4.7324,4.6855,4.6504,4.6426,4.6367,4.6289,4.6289,4.6289,4.6289,4.6289,4.6289,4.6289,4.6289,4.6289,4.6289,4.6289,4.6289,4.6289,4.6289,4.6289,4.6289,4.6289,4.6289,4.668,4.7441,4.8223,4.9141,4.9805,5.0605,5.0937,5.0859,5.0176,4.9941,4.9844,4.9453,4.9023,4.875,4.8789,4.8711,4.8652,4.8672,4.9219,5.0058,5.0879,5.125,5.1387,5.1387,5.1343,5.1213,5.1208,5.1158,5.1079,5.0997,5.0903,5.0827,5.0757,5.0702,5.0693,5.0683,5.0683,5.0683,5.0683,5.0683,5.0683,5.0683,5.0683,5.0683,5.0683,5.0683,5.0683,5.0683,5.0683,5.077,5.077,5.0938,5.1013,5.1111,5.1192,5.1224,5.1343,5.131,5.154,5.2043,5.2207,5.2578,5.2637,5.2558,5.2539,5.25,5.2441,5.1816,5.1562,5.1484,5.1406,5.1367,5.1367,5.1367,5.1308,5.1191,5.1172,5.0918,5.0703,5.0215,4.9941,4.9941,4.9941,5.0039,5.0137,5.0019,4.9883,4.9394,4.8789,4.8496,4.8164,4.8262,4.8183,4.7773,4.7246,4.6601,4.6484,4.6601,4.6406,4.6289,4.6289,4.6289,4.6289,4.6289,4.6289,4.6289,4.6289,4.6289,4.6289]}]]